<?xml version="1.0" encoding="UTF-8" standalone="no" ?>
<gpx xmlns="http://www.topografix.com/GPX/1/1" xmlns:xsi="http://www.w3.org/2001/XMLSchema-instance" xsi:schemaLocation="http://www.topografix.com/GPX/1/1 http://www.topografix.com/GPX/1/1/gpx.xsd" version="1.1" creator="VisuGPX - https://www.visugpx.com">
  <metadata>
    <name>[25/06/2022] Haut Esteron [54km-2400d] </name>
    <desc><![CDATA[avec Jean]]></desc>
  </metadata>
  <trk>
    <name><![CDATA[trip haut esteron part 1 ]]></name>
    <desc><![CDATA[<p>Type: Indéfini<br/>Heure de départ: 19:41 25 juin 2022<br/>Heure d'arrivée: 15:46 26 juin 2022<br/>Distance: 53,4 km (20:05)<br/>Temps déplacement: 17:15<br/>Vitesse moyenne: 2,66 km/h<br/>Vitesse moyenne mouv.: 3,09 km/h<br/>Vitesse Max.: 44,13 km/h<br/>Altitude minimale: 393 m<br/>Altitude maximale: 1465 m<br/>Vitesse de montée: 435,9 m/h<br/>Vitesse de descente: 1437 m/h<br/>Gain d'altitude: 2410 m<br/>Perte d'altitude: 2360 m<br/>Temps de montée: 05:31<br/>Temps de descente: 01:38<br/></p><hr align="center" width="480" style="height: 2px; width: 517px"/>
<p>Type: Indéfini<br/>Heure de départ: 19:41 25 juin 2022<br/>Heure d'arrivée: 15:46 26 juin 2022<br/>Distance: 53,6 km (20:05)<br/>Temps déplacement: 07:34<br/>Vitesse moyenne: 2,67 km/h<br/>Vitesse moyenne mouv.: 7,07 km/h<br/>Vitesse Max.: 44,13 km/h<br/>Altitude minimale: 391 m<br/>Altitude maximale: 1469 m<br/>Vitesse de montée: 166,1 m/h<br/>Gain d'altitude: 2505 m<br/>Perte d'altitude: 2511 m<br/>Temps de montée: 15:05<br/></p><hr align="center" width="480" style="height: 2px; width: 517px"/>]]></desc>
    <extensions>
      <line xmlns="http://www.topografix.com/GPX/gpx_style/0/2">
        <color>0000FF</color>
        <width>4</width>
      </line>
    </extensions>
    <trkseg>
      <trkpt lat="43.87318" lon="6.96422">
        <ele>630.92</ele>
        <time>2022-06-25T17:41:53.999Z</time>
      </trkpt>
      <trkpt lat="43.87326" lon="6.96445">
        <ele>630.7</ele>
        <time>2022-06-25T17:48:58.999Z</time>
      </trkpt>
      <trkpt lat="43.87334" lon="6.96469">
        <ele>628.04</ele>
        <time>2022-06-25T17:49:06.999Z</time>
      </trkpt>
      <trkpt lat="43.87333" lon="6.96498">
        <ele>625.8</ele>
        <time>2022-06-25T17:49:12.999Z</time>
      </trkpt>
      <trkpt lat="43.87332" lon="6.96523">
        <ele>625.74</ele>
        <time>2022-06-25T17:49:19.999Z</time>
      </trkpt>
      <trkpt lat="43.87329" lon="6.96548">
        <ele>622.43</ele>
        <time>2022-06-25T17:49:40.999Z</time>
      </trkpt>
      <trkpt lat="43.87325" lon="6.96575">
        <ele>621.66</ele>
        <time>2022-06-25T17:49:45.999Z</time>
      </trkpt>
      <trkpt lat="43.87329" lon="6.96604">
        <ele>619.72</ele>
        <time>2022-06-25T17:49:50.999Z</time>
      </trkpt>
      <trkpt lat="43.87336" lon="6.96628">
        <ele>619.12</ele>
        <time>2022-06-25T17:49:54.999Z</time>
      </trkpt>
      <trkpt lat="43.87338" lon="6.96657">
        <ele>618.43</ele>
        <time>2022-06-25T17:49:58.999Z</time>
      </trkpt>
      <trkpt lat="43.87338" lon="6.96682">
        <ele>617.58</ele>
        <time>2022-06-25T17:50:01.999Z</time>
      </trkpt>
      <trkpt lat="43.87342" lon="6.96707">
        <ele>616.48</ele>
        <time>2022-06-25T17:50:04.999Z</time>
      </trkpt>
      <trkpt lat="43.87345" lon="6.96735">
        <ele>616.18</ele>
        <time>2022-06-25T17:50:07.999Z</time>
      </trkpt>
      <trkpt lat="43.87349" lon="6.96765">
        <ele>614.73</ele>
        <time>2022-06-25T17:50:10.999Z</time>
      </trkpt>
      <trkpt lat="43.87347" lon="6.96795">
        <ele>613.37</ele>
        <time>2022-06-25T17:50:13.999Z</time>
      </trkpt>
      <trkpt lat="43.87349" lon="6.96826">
        <ele>612.1</ele>
        <time>2022-06-25T17:50:16.999Z</time>
      </trkpt>
      <trkpt lat="43.87353" lon="6.96859">
        <ele>611.34</ele>
        <time>2022-06-25T17:50:19.999Z</time>
      </trkpt>
      <trkpt lat="43.87355" lon="6.96892">
        <ele>610.43</ele>
        <time>2022-06-25T17:50:22.999Z</time>
      </trkpt>
      <trkpt lat="43.8736" lon="6.96923">
        <ele>609.02</ele>
        <time>2022-06-25T17:50:25.999Z</time>
      </trkpt>
      <trkpt lat="43.87373" lon="6.9695">
        <ele>608.17</ele>
        <time>2022-06-25T17:50:28.999Z</time>
      </trkpt>
      <trkpt lat="43.8739" lon="6.96975">
        <ele>607.32</ele>
        <time>2022-06-25T17:50:31.999Z</time>
      </trkpt>
      <trkpt lat="43.87406" lon="6.97004">
        <ele>606.44</ele>
        <time>2022-06-25T17:50:34.999Z</time>
      </trkpt>
      <trkpt lat="43.8742" lon="6.97034">
        <ele>604.32</ele>
        <time>2022-06-25T17:50:37.999Z</time>
      </trkpt>
      <trkpt lat="43.87433" lon="6.97062">
        <ele>603.17</ele>
        <time>2022-06-25T17:50:40.999Z</time>
      </trkpt>
      <trkpt lat="43.87451" lon="6.97086">
        <ele>601.55</ele>
        <time>2022-06-25T17:50:43.999Z</time>
      </trkpt>
      <trkpt lat="43.87464" lon="6.97104">
        <ele>600.32</ele>
        <time>2022-06-25T17:50:45.999Z</time>
      </trkpt>
      <trkpt lat="43.87476" lon="6.97125">
        <ele>599.26</ele>
        <time>2022-06-25T17:50:47.999Z</time>
      </trkpt>
      <trkpt lat="43.87485" lon="6.9715">
        <ele>598.58</ele>
        <time>2022-06-25T17:50:49.999Z</time>
      </trkpt>
      <trkpt lat="43.87495" lon="6.97173">
        <ele>597.49</ele>
        <time>2022-06-25T17:50:51.999Z</time>
      </trkpt>
      <trkpt lat="43.87507" lon="6.97193">
        <ele>595.79</ele>
        <time>2022-06-25T17:50:53.999Z</time>
      </trkpt>
      <trkpt lat="43.87521" lon="6.97211">
        <ele>594.39</ele>
        <time>2022-06-25T17:50:55.999Z</time>
      </trkpt>
      <trkpt lat="43.87533" lon="6.97243">
        <ele>592.22</ele>
        <time>2022-06-25T17:50:58.999Z</time>
      </trkpt>
      <trkpt lat="43.87537" lon="6.97269">
        <ele>590.94</ele>
        <time>2022-06-25T17:51:00.999Z</time>
      </trkpt>
      <trkpt lat="43.87544" lon="6.97292">
        <ele>589.43</ele>
        <time>2022-06-25T17:51:02.999Z</time>
      </trkpt>
      <trkpt lat="43.87558" lon="6.97312">
        <ele>587.42</ele>
        <time>2022-06-25T17:51:04.999Z</time>
      </trkpt>
      <trkpt lat="43.87573" lon="6.97331">
        <ele>585.82</ele>
        <time>2022-06-25T17:51:06.999Z</time>
      </trkpt>
      <trkpt lat="43.87588" lon="6.9735">
        <ele>584.28</ele>
        <time>2022-06-25T17:51:08.999Z</time>
      </trkpt>
      <trkpt lat="43.87598" lon="6.97373">
        <ele>583.14</ele>
        <time>2022-06-25T17:51:10.999Z</time>
      </trkpt>
      <trkpt lat="43.87606" lon="6.97398">
        <ele>581.9</ele>
        <time>2022-06-25T17:51:12.999Z</time>
      </trkpt>
      <trkpt lat="43.87617" lon="6.97422">
        <ele>580.54</ele>
        <time>2022-06-25T17:51:14.999Z</time>
      </trkpt>
      <trkpt lat="43.87629" lon="6.97445">
        <ele>579.45</ele>
        <time>2022-06-25T17:51:16.999Z</time>
      </trkpt>
      <trkpt lat="43.87643" lon="6.97468">
        <ele>578.42</ele>
        <time>2022-06-25T17:51:18.999Z</time>
      </trkpt>
      <trkpt lat="43.87658" lon="6.97487">
        <ele>577.01</ele>
        <time>2022-06-25T17:51:20.999Z</time>
      </trkpt>
      <trkpt lat="43.87674" lon="6.97506">
        <ele>576.01</ele>
        <time>2022-06-25T17:51:22.999Z</time>
      </trkpt>
      <trkpt lat="43.8769" lon="6.97527">
        <ele>575.09</ele>
        <time>2022-06-25T17:51:24.999Z</time>
      </trkpt>
      <trkpt lat="43.87702" lon="6.97548">
        <ele>573.66</ele>
        <time>2022-06-25T17:51:26.999Z</time>
      </trkpt>
      <trkpt lat="43.87712" lon="6.97576">
        <ele>572.46</ele>
        <time>2022-06-25T17:51:28.999Z</time>
      </trkpt>
      <trkpt lat="43.87721" lon="6.97603">
        <ele>571.06</ele>
        <time>2022-06-25T17:51:30.999Z</time>
      </trkpt>
      <trkpt lat="43.87731" lon="6.9763">
        <ele>568.59</ele>
        <time>2022-06-25T17:51:32.999Z</time>
      </trkpt>
      <trkpt lat="43.87742" lon="6.97659">
        <ele>566.96</ele>
        <time>2022-06-25T17:51:34.999Z</time>
      </trkpt>
      <trkpt lat="43.87753" lon="6.97686">
        <ele>565.06</ele>
        <time>2022-06-25T17:51:36.999Z</time>
      </trkpt>
      <trkpt lat="43.87762" lon="6.97713">
        <ele>563.52</ele>
        <time>2022-06-25T17:51:38.999Z</time>
      </trkpt>
      <trkpt lat="43.87769" lon="6.97742">
        <ele>562.08</ele>
        <time>2022-06-25T17:51:40.999Z</time>
      </trkpt>
      <trkpt lat="43.87778" lon="6.97769">
        <ele>560.85</ele>
        <time>2022-06-25T17:51:42.999Z</time>
      </trkpt>
      <trkpt lat="43.8779" lon="6.97793">
        <ele>559.52</ele>
        <time>2022-06-25T17:51:44.999Z</time>
      </trkpt>
      <trkpt lat="43.87806" lon="6.97808">
        <ele>557.13</ele>
        <time>2022-06-25T17:51:46.999Z</time>
      </trkpt>
      <trkpt lat="43.87827" lon="6.97818">
        <ele>556.49</ele>
        <time>2022-06-25T17:51:48.999Z</time>
      </trkpt>
      <trkpt lat="43.87842" lon="6.97835">
        <ele>554.86</ele>
        <time>2022-06-25T17:51:50.999Z</time>
      </trkpt>
      <trkpt lat="43.87844" lon="6.97862">
        <ele>551.75</ele>
        <time>2022-06-25T17:51:52.999Z</time>
      </trkpt>
      <trkpt lat="43.87838" lon="6.97892">
        <ele>550.39</ele>
        <time>2022-06-25T17:51:54.999Z</time>
      </trkpt>
      <trkpt lat="43.87838" lon="6.9792">
        <ele>548.79</ele>
        <time>2022-06-25T17:51:56.999Z</time>
      </trkpt>
      <trkpt lat="43.87853" lon="6.97949">
        <ele>547.95</ele>
        <time>2022-06-25T17:51:59.999Z</time>
      </trkpt>
      <trkpt lat="43.87835" lon="6.97938">
        <ele>546.71</ele>
        <time>2022-06-25T17:52:07.999Z</time>
      </trkpt>
      <trkpt lat="43.87826" lon="6.97907">
        <ele>545.7</ele>
        <time>2022-06-25T17:52:10.999Z</time>
      </trkpt>
      <trkpt lat="43.87819" lon="6.97877">
        <ele>542.89</ele>
        <time>2022-06-25T17:52:14.999Z</time>
      </trkpt>
      <trkpt lat="43.87807" lon="6.97852">
        <ele>541.82</ele>
        <time>2022-06-25T17:52:18.999Z</time>
      </trkpt>
      <trkpt lat="43.87788" lon="6.97838">
        <ele>541.92</ele>
        <time>2022-06-25T17:52:21.999Z</time>
      </trkpt>
      <trkpt lat="43.87767" lon="6.97827">
        <ele>540.35</ele>
        <time>2022-06-25T17:52:24.999Z</time>
      </trkpt>
      <trkpt lat="43.87749" lon="6.97813">
        <ele>539.27</ele>
        <time>2022-06-25T17:52:27.999Z</time>
      </trkpt>
      <trkpt lat="43.8774" lon="6.97788">
        <ele>536.71</ele>
        <time>2022-06-25T17:52:30.999Z</time>
      </trkpt>
      <trkpt lat="43.87729" lon="6.97764">
        <ele>536.3</ele>
        <time>2022-06-25T17:52:33.999Z</time>
      </trkpt>
      <trkpt lat="43.87714" lon="6.97741">
        <ele>535.61</ele>
        <time>2022-06-25T17:52:36.999Z</time>
      </trkpt>
      <trkpt lat="43.87697" lon="6.97721">
        <ele>534.42</ele>
        <time>2022-06-25T17:52:39.999Z</time>
      </trkpt>
      <trkpt lat="43.87674" lon="6.97717">
        <ele>529.35</ele>
        <time>2022-06-25T17:52:42.999Z</time>
      </trkpt>
      <trkpt lat="43.87655" lon="6.97725">
        <ele>528.26</ele>
        <time>2022-06-25T17:52:44.999Z</time>
      </trkpt>
      <trkpt lat="43.87638" lon="6.97714">
        <ele>526.16</ele>
        <time>2022-06-25T17:52:46.999Z</time>
      </trkpt>
      <trkpt lat="43.87631" lon="6.97688">
        <ele>524.33</ele>
        <time>2022-06-25T17:52:48.999Z</time>
      </trkpt>
      <trkpt lat="43.87629" lon="6.97656">
        <ele>524.55</ele>
        <time>2022-06-25T17:52:51.999Z</time>
      </trkpt>
      <trkpt lat="43.87607" lon="6.97648">
        <ele>523.85</ele>
        <time>2022-06-25T17:52:55.999Z</time>
      </trkpt>
      <trkpt lat="43.87587" lon="6.97649">
        <ele>523.13</ele>
        <time>2022-06-25T17:52:58.999Z</time>
      </trkpt>
      <trkpt lat="43.87565" lon="6.97658">
        <ele>522.3</ele>
        <time>2022-06-25T17:53:01.999Z</time>
      </trkpt>
      <trkpt lat="43.87541" lon="6.97659">
        <ele>522.69</ele>
        <time>2022-06-25T17:53:04.999Z</time>
      </trkpt>
      <trkpt lat="43.87519" lon="6.97644">
        <ele>521.46</ele>
        <time>2022-06-25T17:53:07.999Z</time>
      </trkpt>
      <trkpt lat="43.87504" lon="6.97616">
        <ele>519.91</ele>
        <time>2022-06-25T17:53:10.999Z</time>
      </trkpt>
      <trkpt lat="43.87497" lon="6.97584">
        <ele>519.58</ele>
        <time>2022-06-25T17:53:13.999Z</time>
      </trkpt>
      <trkpt lat="43.87488" lon="6.97555">
        <ele>519.73</ele>
        <time>2022-06-25T17:53:16.999Z</time>
      </trkpt>
      <trkpt lat="43.8748" lon="6.97527">
        <ele>518.91</ele>
        <time>2022-06-25T17:53:19.999Z</time>
      </trkpt>
      <trkpt lat="43.87478" lon="6.97496">
        <ele>518.63</ele>
        <time>2022-06-25T17:53:22.999Z</time>
      </trkpt>
      <trkpt lat="43.87473" lon="6.97466">
        <ele>516.79</ele>
        <time>2022-06-25T17:53:25.999Z</time>
      </trkpt>
      <trkpt lat="43.87464" lon="6.97437">
        <ele>516.02</ele>
        <time>2022-06-25T17:53:28.999Z</time>
      </trkpt>
      <trkpt lat="43.87455" lon="6.97408">
        <ele>516.69</ele>
        <time>2022-06-25T17:53:31.999Z</time>
      </trkpt>
      <trkpt lat="43.87445" lon="6.97381">
        <ele>516.34</ele>
        <time>2022-06-25T17:53:34.999Z</time>
      </trkpt>
      <trkpt lat="43.87428" lon="6.9736">
        <ele>515.7</ele>
        <time>2022-06-25T17:53:37.999Z</time>
      </trkpt>
      <trkpt lat="43.87405" lon="6.97348">
        <ele>513.95</ele>
        <time>2022-06-25T17:53:40.999Z</time>
      </trkpt>
      <trkpt lat="43.87382" lon="6.97338">
        <ele>512.75</ele>
        <time>2022-06-25T17:53:43.999Z</time>
      </trkpt>
      <trkpt lat="43.8736" lon="6.97321">
        <ele>511.4</ele>
        <time>2022-06-25T17:53:46.999Z</time>
      </trkpt>
      <trkpt lat="43.87338" lon="6.97304">
        <ele>510.31</ele>
        <time>2022-06-25T17:53:49.999Z</time>
      </trkpt>
      <trkpt lat="43.87324" lon="6.97278">
        <ele>509.32</ele>
        <time>2022-06-25T17:53:52.999Z</time>
      </trkpt>
      <trkpt lat="43.87308" lon="6.97256">
        <ele>508.18</ele>
        <time>2022-06-25T17:53:55.999Z</time>
      </trkpt>
      <trkpt lat="43.87287" lon="6.97245">
        <ele>506.68</ele>
        <time>2022-06-25T17:53:58.999Z</time>
      </trkpt>
      <trkpt lat="43.87266" lon="6.97233">
        <ele>505.89</ele>
        <time>2022-06-25T17:54:01.999Z</time>
      </trkpt>
      <trkpt lat="43.87244" lon="6.97224">
        <ele>504.71</ele>
        <time>2022-06-25T17:54:04.999Z</time>
      </trkpt>
      <trkpt lat="43.87218" lon="6.97223">
        <ele>503.94</ele>
        <time>2022-06-25T17:54:07.999Z</time>
      </trkpt>
      <trkpt lat="43.87201" lon="6.97207">
        <ele>501.84</ele>
        <time>2022-06-25T17:54:09.999Z</time>
      </trkpt>
      <trkpt lat="43.87193" lon="6.97182">
        <ele>501.34</ele>
        <time>2022-06-25T17:54:11.999Z</time>
      </trkpt>
      <trkpt lat="43.87192" lon="6.97146">
        <ele>499.99</ele>
        <time>2022-06-25T17:54:14.999Z</time>
      </trkpt>
      <trkpt lat="43.87185" lon="6.97113">
        <ele>499.49</ele>
        <time>2022-06-25T17:54:17.999Z</time>
      </trkpt>
      <trkpt lat="43.87169" lon="6.97088">
        <ele>498.97</ele>
        <time>2022-06-25T17:54:20.999Z</time>
      </trkpt>
      <trkpt lat="43.87152" lon="6.97064">
        <ele>497.95</ele>
        <time>2022-06-25T17:54:23.999Z</time>
      </trkpt>
      <trkpt lat="43.87139" lon="6.97035">
        <ele>497.32</ele>
        <time>2022-06-25T17:54:26.999Z</time>
      </trkpt>
      <trkpt lat="43.87126" lon="6.97006">
        <ele>495.11</ele>
        <time>2022-06-25T17:54:29.999Z</time>
      </trkpt>
      <trkpt lat="43.8711" lon="6.96979">
        <ele>495.49</ele>
        <time>2022-06-25T17:54:32.999Z</time>
      </trkpt>
      <trkpt lat="43.87097" lon="6.96947">
        <ele>495.17</ele>
        <time>2022-06-25T17:54:35.999Z</time>
      </trkpt>
      <trkpt lat="43.87096" lon="6.96922">
        <ele>494.7</ele>
        <time>2022-06-25T17:54:37.999Z</time>
      </trkpt>
      <trkpt lat="43.87099" lon="6.96887">
        <ele>493.65</ele>
        <time>2022-06-25T17:54:40.999Z</time>
      </trkpt>
      <trkpt lat="43.87093" lon="6.96855">
        <ele>493.65</ele>
        <time>2022-06-25T17:54:43.999Z</time>
      </trkpt>
      <trkpt lat="43.87073" lon="6.9684">
        <ele>489.47</ele>
        <time>2022-06-25T17:54:46.999Z</time>
      </trkpt>
      <trkpt lat="43.87047" lon="6.96836">
        <ele>491.24</ele>
        <time>2022-06-25T17:54:49.999Z</time>
      </trkpt>
      <trkpt lat="43.87031" lon="6.96824">
        <ele>492.01</ele>
        <time>2022-06-25T17:54:51.999Z</time>
      </trkpt>
      <trkpt lat="43.87019" lon="6.96803">
        <ele>491.41</ele>
        <time>2022-06-25T17:54:53.999Z</time>
      </trkpt>
      <trkpt lat="43.87009" lon="6.96771">
        <ele>490.68</ele>
        <time>2022-06-25T17:54:56.999Z</time>
      </trkpt>
      <trkpt lat="43.86994" lon="6.96747">
        <ele>489.53</ele>
        <time>2022-06-25T17:54:59.999Z</time>
      </trkpt>
      <trkpt lat="43.86972" lon="6.96725">
        <ele>487.14</ele>
        <time>2022-06-25T17:55:02.999Z</time>
      </trkpt>
      <trkpt lat="43.86962" lon="6.96704">
        <ele>485.79</ele>
        <time>2022-06-25T17:55:04.999Z</time>
      </trkpt>
      <trkpt lat="43.86952" lon="6.96682">
        <ele>484.52</ele>
        <time>2022-06-25T17:55:06.999Z</time>
      </trkpt>
      <trkpt lat="43.86933" lon="6.96657">
        <ele>484.33</ele>
        <time>2022-06-25T17:55:09.999Z</time>
      </trkpt>
      <trkpt lat="43.86921" lon="6.96637">
        <ele>483.81</ele>
        <time>2022-06-25T17:55:11.999Z</time>
      </trkpt>
      <trkpt lat="43.86915" lon="6.96613">
        <ele>483.86</ele>
        <time>2022-06-25T17:55:13.999Z</time>
      </trkpt>
      <trkpt lat="43.86911" lon="6.96579">
        <ele>483.46</ele>
        <time>2022-06-25T17:55:16.999Z</time>
      </trkpt>
      <trkpt lat="43.86895" lon="6.96554">
        <ele>483.07</ele>
        <time>2022-06-25T17:55:19.999Z</time>
      </trkpt>
      <trkpt lat="43.86879" lon="6.96529">
        <ele>480.95</ele>
        <time>2022-06-25T17:55:22.999Z</time>
      </trkpt>
      <trkpt lat="43.86877" lon="6.96496">
        <ele>480.44</ele>
        <time>2022-06-25T17:55:25.999Z</time>
      </trkpt>
      <trkpt lat="43.8687" lon="6.96469">
        <ele>480.37</ele>
        <time>2022-06-25T17:55:28.999Z</time>
      </trkpt>
      <trkpt lat="43.86861" lon="6.96443">
        <ele>480.89</ele>
        <time>2022-06-25T17:55:31.999Z</time>
      </trkpt>
      <trkpt lat="43.86854" lon="6.96415">
        <ele>480.85</ele>
        <time>2022-06-25T17:55:34.999Z</time>
      </trkpt>
      <trkpt lat="43.86859" lon="6.96387">
        <ele>480.52</ele>
        <time>2022-06-25T17:55:37.999Z</time>
      </trkpt>
      <trkpt lat="43.86873" lon="6.96364">
        <ele>479.75</ele>
        <time>2022-06-25T17:55:40.999Z</time>
      </trkpt>
      <trkpt lat="43.86884" lon="6.96338">
        <ele>477.54</ele>
        <time>2022-06-25T17:55:43.999Z</time>
      </trkpt>
      <trkpt lat="43.86892" lon="6.96307">
        <ele>476.21</ele>
        <time>2022-06-25T17:55:46.999Z</time>
      </trkpt>
      <trkpt lat="43.86906" lon="6.9628">
        <ele>475.78</ele>
        <time>2022-06-25T17:55:49.999Z</time>
      </trkpt>
      <trkpt lat="43.86915" lon="6.96251">
        <ele>473.75</ele>
        <time>2022-06-25T17:55:52.999Z</time>
      </trkpt>
      <trkpt lat="43.86908" lon="6.96218">
        <ele>472.4</ele>
        <time>2022-06-25T17:55:55.999Z</time>
      </trkpt>
      <trkpt lat="43.86902" lon="6.96184">
        <ele>469.91</ele>
        <time>2022-06-25T17:55:58.999Z</time>
      </trkpt>
      <trkpt lat="43.86905" lon="6.96147">
        <ele>466.38</ele>
        <time>2022-06-25T17:56:01.999Z</time>
      </trkpt>
      <trkpt lat="43.86907" lon="6.9612">
        <ele>465.11</ele>
        <time>2022-06-25T17:56:03.999Z</time>
      </trkpt>
      <trkpt lat="43.86908" lon="6.96095">
        <ele>464.3</ele>
        <time>2022-06-25T17:56:05.999Z</time>
      </trkpt>
      <trkpt lat="43.8691" lon="6.96069">
        <ele>463.68</ele>
        <time>2022-06-25T17:56:07.999Z</time>
      </trkpt>
      <trkpt lat="43.8691" lon="6.96033">
        <ele>463.01</ele>
        <time>2022-06-25T17:56:10.999Z</time>
      </trkpt>
      <trkpt lat="43.86901" lon="6.9601">
        <ele>462.04</ele>
        <time>2022-06-25T17:56:12.999Z</time>
      </trkpt>
      <trkpt lat="43.86888" lon="6.95989">
        <ele>461.16</ele>
        <time>2022-06-25T17:56:14.999Z</time>
      </trkpt>
      <trkpt lat="43.86876" lon="6.95969">
        <ele>459.97</ele>
        <time>2022-06-25T17:56:16.999Z</time>
      </trkpt>
      <trkpt lat="43.86859" lon="6.95957">
        <ele>459.03</ele>
        <time>2022-06-25T17:56:18.999Z</time>
      </trkpt>
      <trkpt lat="43.86839" lon="6.95952">
        <ele>458.07</ele>
        <time>2022-06-25T17:56:20.999Z</time>
      </trkpt>
      <trkpt lat="43.86819" lon="6.95946">
        <ele>457.09</ele>
        <time>2022-06-25T17:56:22.999Z</time>
      </trkpt>
      <trkpt lat="43.86803" lon="6.95933">
        <ele>455.99</ele>
        <time>2022-06-25T17:56:24.999Z</time>
      </trkpt>
      <trkpt lat="43.86793" lon="6.95909">
        <ele>454.75</ele>
        <time>2022-06-25T17:56:26.999Z</time>
      </trkpt>
      <trkpt lat="43.86796" lon="6.95883">
        <ele>453.69</ele>
        <time>2022-06-25T17:56:28.999Z</time>
      </trkpt>
      <trkpt lat="43.8681" lon="6.9586">
        <ele>452.63</ele>
        <time>2022-06-25T17:56:30.999Z</time>
      </trkpt>
      <trkpt lat="43.86828" lon="6.95846">
        <ele>451.24</ele>
        <time>2022-06-25T17:56:32.999Z</time>
      </trkpt>
      <trkpt lat="43.86845" lon="6.95833">
        <ele>449.34</ele>
        <time>2022-06-25T17:56:34.999Z</time>
      </trkpt>
      <trkpt lat="43.86858" lon="6.95814">
        <ele>447.07</ele>
        <time>2022-06-25T17:56:36.999Z</time>
      </trkpt>
      <trkpt lat="43.86863" lon="6.95789">
        <ele>445.77</ele>
        <time>2022-06-25T17:56:38.999Z</time>
      </trkpt>
      <trkpt lat="43.86881" lon="6.95764">
        <ele>444.22</ele>
        <time>2022-06-25T17:56:41.999Z</time>
      </trkpt>
      <trkpt lat="43.86897" lon="6.95753">
        <ele>443.63</ele>
        <time>2022-06-25T17:56:43.999Z</time>
      </trkpt>
      <trkpt lat="43.86902" lon="6.95723">
        <ele>441.86</ele>
        <time>2022-06-25T17:56:46.999Z</time>
      </trkpt>
      <trkpt lat="43.86879" lon="6.95706">
        <ele>439.79</ele>
        <time>2022-06-25T17:56:49.999Z</time>
      </trkpt>
      <trkpt lat="43.86859" lon="6.95711">
        <ele>439.12</ele>
        <time>2022-06-25T17:56:51.999Z</time>
      </trkpt>
      <trkpt lat="43.8684" lon="6.95715">
        <ele>438.19</ele>
        <time>2022-06-25T17:56:53.999Z</time>
      </trkpt>
      <trkpt lat="43.86818" lon="6.95693">
        <ele>434.26</ele>
        <time>2022-06-25T17:56:56.999Z</time>
      </trkpt>
      <trkpt lat="43.86813" lon="6.95665">
        <ele>431.88</ele>
        <time>2022-06-25T17:56:58.999Z</time>
      </trkpt>
      <trkpt lat="43.8681" lon="6.95639">
        <ele>430.29</ele>
        <time>2022-06-25T17:57:00.999Z</time>
      </trkpt>
      <trkpt lat="43.86808" lon="6.95611">
        <ele>429.24</ele>
        <time>2022-06-25T17:57:02.999Z</time>
      </trkpt>
      <trkpt lat="43.86799" lon="6.95588">
        <ele>428.29</ele>
        <time>2022-06-25T17:57:04.999Z</time>
      </trkpt>
      <trkpt lat="43.86796" lon="6.95553">
        <ele>427.92</ele>
        <time>2022-06-25T17:57:07.999Z</time>
      </trkpt>
      <trkpt lat="43.86808" lon="6.95535">
        <ele>427.38</ele>
        <time>2022-06-25T17:57:09.999Z</time>
      </trkpt>
      <trkpt lat="43.86825" lon="6.95519">
        <ele>426.16</ele>
        <time>2022-06-25T17:57:11.999Z</time>
      </trkpt>
      <trkpt lat="43.86846" lon="6.95499">
        <ele>424.88</ele>
        <time>2022-06-25T17:57:14.999Z</time>
      </trkpt>
      <trkpt lat="43.86866" lon="6.95496">
        <ele>425.1</ele>
        <time>2022-06-25T17:57:16.999Z</time>
      </trkpt>
      <trkpt lat="43.8688" lon="6.95479">
        <ele>424.07</ele>
        <time>2022-06-25T17:57:19.999Z</time>
      </trkpt>
      <trkpt lat="43.86863" lon="6.95459">
        <ele>420.77</ele>
        <time>2022-06-25T17:57:23.999Z</time>
      </trkpt>
      <trkpt lat="43.86842" lon="6.95449">
        <ele>420.34</ele>
        <time>2022-06-25T17:57:25.999Z</time>
      </trkpt>
      <trkpt lat="43.86825" lon="6.95438">
        <ele>418.72</ele>
        <time>2022-06-25T17:57:27.999Z</time>
      </trkpt>
      <trkpt lat="43.86803" lon="6.95423">
        <ele>415.17</ele>
        <time>2022-06-25T17:57:30.999Z</time>
      </trkpt>
      <trkpt lat="43.86777" lon="6.95418">
        <ele>413.43</ele>
        <time>2022-06-25T17:57:33.999Z</time>
      </trkpt>
      <trkpt lat="43.86751" lon="6.95414">
        <ele>411.46</ele>
        <time>2022-06-25T17:57:36.999Z</time>
      </trkpt>
      <trkpt lat="43.86738" lon="6.95394">
        <ele>410.94</ele>
        <time>2022-06-25T17:57:38.999Z</time>
      </trkpt>
      <trkpt lat="43.86733" lon="6.95367">
        <ele>408.17</ele>
        <time>2022-06-25T17:57:40.999Z</time>
      </trkpt>
      <trkpt lat="43.86719" lon="6.95342">
        <ele>406.32</ele>
        <time>2022-06-25T17:57:43.999Z</time>
      </trkpt>
      <trkpt lat="43.86699" lon="6.9534">
        <ele>405.25</ele>
        <time>2022-06-25T17:57:45.999Z</time>
      </trkpt>
      <trkpt lat="43.86682" lon="6.95328">
        <ele>405.01</ele>
        <time>2022-06-25T17:57:47.999Z</time>
      </trkpt>
      <trkpt lat="43.86669" lon="6.95309">
        <ele>404.56</ele>
        <time>2022-06-25T17:57:49.999Z</time>
      </trkpt>
      <trkpt lat="43.86657" lon="6.95289">
        <ele>403.9</ele>
        <time>2022-06-25T17:57:51.999Z</time>
      </trkpt>
      <trkpt lat="43.86646" lon="6.95268">
        <ele>403.45</ele>
        <time>2022-06-25T17:57:53.999Z</time>
      </trkpt>
      <trkpt lat="43.86635" lon="6.95249">
        <ele>402.76</ele>
        <time>2022-06-25T17:57:55.999Z</time>
      </trkpt>
      <trkpt lat="43.86618" lon="6.9522">
        <ele>401.22</ele>
        <time>2022-06-25T17:57:58.999Z</time>
      </trkpt>
      <trkpt lat="43.86603" lon="6.95189">
        <ele>399.49</ele>
        <time>2022-06-25T17:58:01.999Z</time>
      </trkpt>
      <trkpt lat="43.86593" lon="6.95155">
        <ele>398.09</ele>
        <time>2022-06-25T17:58:04.999Z</time>
      </trkpt>
      <trkpt lat="43.86583" lon="6.95126">
        <ele>397.9</ele>
        <time>2022-06-25T17:58:07.999Z</time>
      </trkpt>
      <trkpt lat="43.86598" lon="6.95106">
        <ele>399.69</ele>
        <time>2022-06-25T17:58:12.999Z</time>
      </trkpt>
      <trkpt lat="43.86623" lon="6.95105">
        <ele>398.33</ele>
        <time>2022-06-25T17:58:15.999Z</time>
      </trkpt>
      <trkpt lat="43.8664" lon="6.95092">
        <ele>396.57</ele>
        <time>2022-06-25T17:58:18.999Z</time>
      </trkpt>
      <trkpt lat="43.86657" lon="6.95076">
        <ele>394.99</ele>
        <time>2022-06-25T17:58:21.999Z</time>
      </trkpt>
      <trkpt lat="43.86676" lon="6.95062">
        <ele>394.55</ele>
        <time>2022-06-25T17:58:24.999Z</time>
      </trkpt>
      <trkpt lat="43.86695" lon="6.95064">
        <ele>394.29</ele>
        <time>2022-06-25T17:58:27.999Z</time>
      </trkpt>
      <trkpt lat="43.86717" lon="6.95058">
        <ele>392.93</ele>
        <time>2022-06-25T17:58:31.999Z</time>
      </trkpt>
      <trkpt lat="43.86723" lon="6.95029">
        <ele>392.8</ele>
        <time>2022-06-25T17:58:35.999Z</time>
      </trkpt>
      <trkpt lat="43.86718" lon="6.95003">
        <ele>391.86</ele>
        <time>2022-06-25T17:58:40.999Z</time>
      </trkpt>
      <trkpt lat="43.86703" lon="6.94985">
        <ele>390.5</ele>
        <time>2022-06-25T18:01:55.999Z</time>
      </trkpt>
      <trkpt lat="43.86686" lon="6.94977">
        <ele>394.44</ele>
        <time>2022-06-25T18:02:07.999Z</time>
      </trkpt>
      <trkpt lat="43.86668" lon="6.94988">
        <ele>395.08</ele>
        <time>2022-06-25T18:02:14.999Z</time>
      </trkpt>
      <trkpt lat="43.86652" lon="6.95004">
        <ele>394.95</ele>
        <time>2022-06-25T18:02:22.999Z</time>
      </trkpt>
      <trkpt lat="43.86634" lon="6.95012">
        <ele>394.8</ele>
        <time>2022-06-25T18:02:28.999Z</time>
      </trkpt>
      <trkpt lat="43.86615" lon="6.9501">
        <ele>393.23</ele>
        <time>2022-06-25T18:02:34.999Z</time>
      </trkpt>
      <trkpt lat="43.86602" lon="6.94989">
        <ele>392.21</ele>
        <time>2022-06-25T18:02:40.999Z</time>
      </trkpt>
      <trkpt lat="43.86593" lon="6.94966">
        <ele>393.9</ele>
        <time>2022-06-25T18:02:46.999Z</time>
      </trkpt>
      <trkpt lat="43.86586" lon="6.94941">
        <ele>395.43</ele>
        <time>2022-06-25T18:02:52.999Z</time>
      </trkpt>
      <trkpt lat="43.86576" lon="6.94916">
        <ele>396.79</ele>
        <time>2022-06-25T18:02:58.999Z</time>
      </trkpt>
      <trkpt lat="43.86557" lon="6.94916">
        <ele>397.36</ele>
        <time>2022-06-25T18:03:04.999Z</time>
      </trkpt>
      <trkpt lat="43.86538" lon="6.9492">
        <ele>398.77</ele>
        <time>2022-06-25T18:03:10.999Z</time>
      </trkpt>
      <trkpt lat="43.86524" lon="6.949">
        <ele>400.04</ele>
        <time>2022-06-25T18:03:16.999Z</time>
      </trkpt>
      <trkpt lat="43.86518" lon="6.94874">
        <ele>399.95</ele>
        <time>2022-06-25T18:03:22.999Z</time>
      </trkpt>
      <trkpt lat="43.86515" lon="6.94847">
        <ele>400.84</ele>
        <time>2022-06-25T18:03:28.999Z</time>
      </trkpt>
      <trkpt lat="43.86511" lon="6.9482">
        <ele>401.53</ele>
        <time>2022-06-25T18:03:34.999Z</time>
      </trkpt>
      <trkpt lat="43.86508" lon="6.94793">
        <ele>401.79</ele>
        <time>2022-06-25T18:03:40.999Z</time>
      </trkpt>
      <trkpt lat="43.86508" lon="6.94768">
        <ele>401.39</ele>
        <time>2022-06-25T18:03:45.999Z</time>
      </trkpt>
      <trkpt lat="43.86514" lon="6.94741">
        <ele>402.62</ele>
        <time>2022-06-25T18:03:50.999Z</time>
      </trkpt>
      <trkpt lat="43.8651" lon="6.94714">
        <ele>405.06</ele>
        <time>2022-06-25T18:03:56.999Z</time>
      </trkpt>
      <trkpt lat="43.86501" lon="6.9469">
        <ele>405.3</ele>
        <time>2022-06-25T18:04:01.999Z</time>
      </trkpt>
      <trkpt lat="43.86493" lon="6.94666">
        <ele>405.3</ele>
        <time>2022-06-25T18:04:06.999Z</time>
      </trkpt>
      <trkpt lat="43.86483" lon="6.94643">
        <ele>405.44</ele>
        <time>2022-06-25T18:04:11.999Z</time>
      </trkpt>
      <trkpt lat="43.86477" lon="6.94618">
        <ele>406.32</ele>
        <time>2022-06-25T18:04:16.999Z</time>
      </trkpt>
      <trkpt lat="43.86466" lon="6.94593">
        <ele>407.95</ele>
        <time>2022-06-25T18:04:22.999Z</time>
      </trkpt>
      <trkpt lat="43.86455" lon="6.94573">
        <ele>408.03</ele>
        <time>2022-06-25T18:04:27.999Z</time>
      </trkpt>
      <trkpt lat="43.86437" lon="6.94556">
        <ele>407.67</ele>
        <time>2022-06-25T18:04:33.999Z</time>
      </trkpt>
      <trkpt lat="43.86419" lon="6.94549">
        <ele>407.44</ele>
        <time>2022-06-25T18:04:38.999Z</time>
      </trkpt>
      <trkpt lat="43.864" lon="6.94545">
        <ele>407.81</ele>
        <time>2022-06-25T18:04:44.999Z</time>
      </trkpt>
      <trkpt lat="43.86388" lon="6.94523">
        <ele>405.18</ele>
        <time>2022-06-25T18:04:49.999Z</time>
      </trkpt>
      <trkpt lat="43.86399" lon="6.94499">
        <ele>406.49</ele>
        <time>2022-06-25T18:04:55.999Z</time>
      </trkpt>
      <trkpt lat="43.86414" lon="6.94479">
        <ele>407.93</ele>
        <time>2022-06-25T18:05:01.999Z</time>
      </trkpt>
      <trkpt lat="43.86431" lon="6.94466">
        <ele>408.98</ele>
        <time>2022-06-25T18:05:07.999Z</time>
      </trkpt>
      <trkpt lat="43.86446" lon="6.94449">
        <ele>411.14</ele>
        <time>2022-06-25T18:05:13.999Z</time>
      </trkpt>
      <trkpt lat="43.8645" lon="6.94423">
        <ele>412.82</ele>
        <time>2022-06-25T18:05:19.999Z</time>
      </trkpt>
      <trkpt lat="43.86436" lon="6.94407">
        <ele>412.6</ele>
        <time>2022-06-25T18:05:25.999Z</time>
      </trkpt>
      <trkpt lat="43.86421" lon="6.94392">
        <ele>413.64</ele>
        <time>2022-06-25T18:05:31.999Z</time>
      </trkpt>
      <trkpt lat="43.86411" lon="6.9437">
        <ele>416.28</ele>
        <time>2022-06-25T18:05:38.999Z</time>
      </trkpt>
      <trkpt lat="43.86407" lon="6.94346">
        <ele>418.08</ele>
        <time>2022-06-25T18:05:46.999Z</time>
      </trkpt>
      <trkpt lat="43.86388" lon="6.9435">
        <ele>421.96</ele>
        <time>2022-06-25T18:05:57.999Z</time>
      </trkpt>
      <trkpt lat="43.86379" lon="6.94374">
        <ele>422.17</ele>
        <time>2022-06-25T18:06:06.999Z</time>
      </trkpt>
      <trkpt lat="43.86369" lon="6.94396">
        <ele>422.03</ele>
        <time>2022-06-25T18:06:15.999Z</time>
      </trkpt>
      <trkpt lat="43.86352" lon="6.94409">
        <ele>422.13</ele>
        <time>2022-06-25T18:06:22.999Z</time>
      </trkpt>
      <trkpt lat="43.86335" lon="6.9442">
        <ele>421.86</ele>
        <time>2022-06-25T18:06:31.999Z</time>
      </trkpt>
      <trkpt lat="43.86318" lon="6.94433">
        <ele>423.95</ele>
        <time>2022-06-25T18:06:40.999Z</time>
      </trkpt>
      <trkpt lat="43.86299" lon="6.94428">
        <ele>425.15</ele>
        <time>2022-06-25T18:06:50.999Z</time>
      </trkpt>
      <trkpt lat="43.86282" lon="6.94416">
        <ele>427.05</ele>
        <time>2022-06-25T18:06:58.999Z</time>
      </trkpt>
      <trkpt lat="43.86264" lon="6.94405">
        <ele>429.32</ele>
        <time>2022-06-25T18:07:06.999Z</time>
      </trkpt>
      <trkpt lat="43.86246" lon="6.94399">
        <ele>431.28</ele>
        <time>2022-06-25T18:07:15.999Z</time>
      </trkpt>
      <trkpt lat="43.86227" lon="6.94391">
        <ele>432.54</ele>
        <time>2022-06-25T18:07:23.999Z</time>
      </trkpt>
      <trkpt lat="43.86211" lon="6.94377">
        <ele>433.94</ele>
        <time>2022-06-25T18:07:31.999Z</time>
      </trkpt>
      <trkpt lat="43.86209" lon="6.94352">
        <ele>435.5</ele>
        <time>2022-06-25T18:07:39.999Z</time>
      </trkpt>
      <trkpt lat="43.8622" lon="6.9433">
        <ele>438.34</ele>
        <time>2022-06-25T18:07:47.999Z</time>
      </trkpt>
      <trkpt lat="43.86234" lon="6.94311">
        <ele>440.29</ele>
        <time>2022-06-25T18:07:55.999Z</time>
      </trkpt>
      <trkpt lat="43.86245" lon="6.94291">
        <ele>441.33</ele>
        <time>2022-06-25T18:08:02.999Z</time>
      </trkpt>
      <trkpt lat="43.86255" lon="6.94269">
        <ele>442.27</ele>
        <time>2022-06-25T18:08:08.999Z</time>
      </trkpt>
      <trkpt lat="43.86268" lon="6.9425">
        <ele>443</ele>
        <time>2022-06-25T18:08:14.999Z</time>
      </trkpt>
      <trkpt lat="43.86273" lon="6.94225">
        <ele>442.58</ele>
        <time>2022-06-25T18:08:20.999Z</time>
      </trkpt>
      <trkpt lat="43.86268" lon="6.942">
        <ele>441.6</ele>
        <time>2022-06-25T18:08:25.999Z</time>
      </trkpt>
      <trkpt lat="43.8626" lon="6.94175">
        <ele>440.99</ele>
        <time>2022-06-25T18:08:31.999Z</time>
      </trkpt>
      <trkpt lat="43.86257" lon="6.94148">
        <ele>440.26</ele>
        <time>2022-06-25T18:08:37.999Z</time>
      </trkpt>
      <trkpt lat="43.86266" lon="6.94126">
        <ele>439.49</ele>
        <time>2022-06-25T18:08:42.999Z</time>
      </trkpt>
      <trkpt lat="43.86281" lon="6.94106">
        <ele>440.45</ele>
        <time>2022-06-25T18:08:48.999Z</time>
      </trkpt>
      <trkpt lat="43.8628" lon="6.94079">
        <ele>441.35</ele>
        <time>2022-06-25T18:08:54.999Z</time>
      </trkpt>
      <trkpt lat="43.86277" lon="6.94054">
        <ele>442.59</ele>
        <time>2022-06-25T18:09:00.999Z</time>
      </trkpt>
      <trkpt lat="43.86276" lon="6.94025">
        <ele>443.32</ele>
        <time>2022-06-25T18:09:07.999Z</time>
      </trkpt>
      <trkpt lat="43.86281" lon="6.93998">
        <ele>444.66</ele>
        <time>2022-06-25T18:09:14.999Z</time>
      </trkpt>
      <trkpt lat="43.86283" lon="6.93971">
        <ele>446.08</ele>
        <time>2022-06-25T18:09:21.999Z</time>
      </trkpt>
      <trkpt lat="43.8628" lon="6.93946">
        <ele>449.18</ele>
        <time>2022-06-25T18:09:28.999Z</time>
      </trkpt>
      <trkpt lat="43.86266" lon="6.9393">
        <ele>452.25</ele>
        <time>2022-06-25T18:09:35.999Z</time>
      </trkpt>
      <trkpt lat="43.86246" lon="6.93923">
        <ele>452.89</ele>
        <time>2022-06-25T18:09:43.999Z</time>
      </trkpt>
      <trkpt lat="43.8623" lon="6.93912">
        <ele>454.24</ele>
        <time>2022-06-25T18:09:50.999Z</time>
      </trkpt>
      <trkpt lat="43.86211" lon="6.93904">
        <ele>455.03</ele>
        <time>2022-06-25T18:09:58.999Z</time>
      </trkpt>
      <trkpt lat="43.86199" lon="6.93885">
        <ele>454.41</ele>
        <time>2022-06-25T18:10:05.999Z</time>
      </trkpt>
      <trkpt lat="43.86197" lon="6.93859">
        <ele>456</ele>
        <time>2022-06-25T18:10:13.999Z</time>
      </trkpt>
      <trkpt lat="43.86195" lon="6.93833">
        <ele>457.92</ele>
        <time>2022-06-25T18:10:21.999Z</time>
      </trkpt>
      <trkpt lat="43.86193" lon="6.93807">
        <ele>459.91</ele>
        <time>2022-06-25T18:10:29.999Z</time>
      </trkpt>
      <trkpt lat="43.86193" lon="6.93781">
        <ele>461.94</ele>
        <time>2022-06-25T18:10:37.999Z</time>
      </trkpt>
      <trkpt lat="43.86195" lon="6.93756">
        <ele>463.86</ele>
        <time>2022-06-25T18:10:44.999Z</time>
      </trkpt>
      <trkpt lat="43.86198" lon="6.9373">
        <ele>465.11</ele>
        <time>2022-06-25T18:10:51.999Z</time>
      </trkpt>
      <trkpt lat="43.86187" lon="6.9371">
        <ele>464.94</ele>
        <time>2022-06-25T18:10:57.999Z</time>
      </trkpt>
      <trkpt lat="43.86176" lon="6.9369">
        <ele>465.41</ele>
        <time>2022-06-25T18:11:03.999Z</time>
      </trkpt>
      <trkpt lat="43.86171" lon="6.93665">
        <ele>466.43</ele>
        <time>2022-06-25T18:11:10.999Z</time>
      </trkpt>
      <trkpt lat="43.86157" lon="6.93645">
        <ele>468.09</ele>
        <time>2022-06-25T18:11:18.999Z</time>
      </trkpt>
      <trkpt lat="43.86139" lon="6.93651">
        <ele>469.74</ele>
        <time>2022-06-25T18:11:25.999Z</time>
      </trkpt>
      <trkpt lat="43.86121" lon="6.93657">
        <ele>468.97</ele>
        <time>2022-06-25T18:11:32.999Z</time>
      </trkpt>
      <trkpt lat="43.86102" lon="6.93669">
        <ele>470.04</ele>
        <time>2022-06-25T18:11:40.999Z</time>
      </trkpt>
      <trkpt lat="43.86083" lon="6.9367">
        <ele>471.06</ele>
        <time>2022-06-25T18:11:47.999Z</time>
      </trkpt>
      <trkpt lat="43.86068" lon="6.93656">
        <ele>471.95</ele>
        <time>2022-06-25T18:11:54.999Z</time>
      </trkpt>
      <trkpt lat="43.86052" lon="6.93639">
        <ele>472.9</ele>
        <time>2022-06-25T18:12:02.999Z</time>
      </trkpt>
      <trkpt lat="43.86037" lon="6.9362">
        <ele>476.44</ele>
        <time>2022-06-25T18:12:10.999Z</time>
      </trkpt>
      <trkpt lat="43.86022" lon="6.93603">
        <ele>476.99</ele>
        <time>2022-06-25T18:12:18.999Z</time>
      </trkpt>
      <trkpt lat="43.86005" lon="6.9359">
        <ele>477.51</ele>
        <time>2022-06-25T18:12:25.999Z</time>
      </trkpt>
      <trkpt lat="43.85995" lon="6.93566">
        <ele>479.16</ele>
        <time>2022-06-25T18:12:33.999Z</time>
      </trkpt>
      <trkpt lat="43.85991" lon="6.93541">
        <ele>480.34</ele>
        <time>2022-06-25T18:12:40.999Z</time>
      </trkpt>
      <trkpt lat="43.85989" lon="6.93515">
        <ele>481.91</ele>
        <time>2022-06-25T18:12:48.999Z</time>
      </trkpt>
      <trkpt lat="43.8597" lon="6.93507">
        <ele>484.09</ele>
        <time>2022-06-25T18:12:56.999Z</time>
      </trkpt>
      <trkpt lat="43.85954" lon="6.93519">
        <ele>484.88</ele>
        <time>2022-06-25T18:13:03.999Z</time>
      </trkpt>
      <trkpt lat="43.85935" lon="6.93531">
        <ele>486.89</ele>
        <time>2022-06-25T18:13:11.999Z</time>
      </trkpt>
      <trkpt lat="43.85917" lon="6.9352">
        <ele>488.51</ele>
        <time>2022-06-25T18:13:19.999Z</time>
      </trkpt>
      <trkpt lat="43.85903" lon="6.93502">
        <ele>490.26</ele>
        <time>2022-06-25T18:13:28.999Z</time>
      </trkpt>
      <trkpt lat="43.85888" lon="6.93482">
        <ele>491.39</ele>
        <time>2022-06-25T18:13:37.999Z</time>
      </trkpt>
      <trkpt lat="43.85876" lon="6.93464">
        <ele>493.62</ele>
        <time>2022-06-25T18:13:45.999Z</time>
      </trkpt>
      <trkpt lat="43.85869" lon="6.93439">
        <ele>494.32</ele>
        <time>2022-06-25T18:13:53.999Z</time>
      </trkpt>
      <trkpt lat="43.85861" lon="6.93415">
        <ele>495.74</ele>
        <time>2022-06-25T18:14:01.999Z</time>
      </trkpt>
      <trkpt lat="43.85852" lon="6.93392">
        <ele>497.78</ele>
        <time>2022-06-25T18:14:09.999Z</time>
      </trkpt>
      <trkpt lat="43.85841" lon="6.93372">
        <ele>498.98</ele>
        <time>2022-06-25T18:14:17.999Z</time>
      </trkpt>
      <trkpt lat="43.85832" lon="6.9335">
        <ele>501.06</ele>
        <time>2022-06-25T18:14:25.999Z</time>
      </trkpt>
      <trkpt lat="43.85819" lon="6.93331">
        <ele>501.64</ele>
        <time>2022-06-25T18:14:34.999Z</time>
      </trkpt>
      <trkpt lat="43.85806" lon="6.93313">
        <ele>503.05</ele>
        <time>2022-06-25T18:14:43.999Z</time>
      </trkpt>
      <trkpt lat="43.85796" lon="6.93289">
        <ele>504.5</ele>
        <time>2022-06-25T18:14:52.999Z</time>
      </trkpt>
      <trkpt lat="43.85783" lon="6.93271">
        <ele>505.4</ele>
        <time>2022-06-25T18:15:00.999Z</time>
      </trkpt>
      <trkpt lat="43.85772" lon="6.9325">
        <ele>505.35</ele>
        <time>2022-06-25T18:15:08.999Z</time>
      </trkpt>
      <trkpt lat="43.85769" lon="6.93223">
        <ele>506.09</ele>
        <time>2022-06-25T18:15:17.999Z</time>
      </trkpt>
      <trkpt lat="43.8577" lon="6.93197">
        <ele>507.15</ele>
        <time>2022-06-25T18:15:25.999Z</time>
      </trkpt>
      <trkpt lat="43.85775" lon="6.93171">
        <ele>508.54</ele>
        <time>2022-06-25T18:15:33.999Z</time>
      </trkpt>
      <trkpt lat="43.85775" lon="6.93145">
        <ele>511.4</ele>
        <time>2022-06-25T18:15:42.999Z</time>
      </trkpt>
      <trkpt lat="43.85759" lon="6.93131">
        <ele>512.55</ele>
        <time>2022-06-25T18:15:49.999Z</time>
      </trkpt>
      <trkpt lat="43.85741" lon="6.93121">
        <ele>514.64</ele>
        <time>2022-06-25T18:15:57.999Z</time>
      </trkpt>
      <trkpt lat="43.85723" lon="6.93112">
        <ele>515.48</ele>
        <time>2022-06-25T18:16:05.999Z</time>
      </trkpt>
      <trkpt lat="43.85705" lon="6.931">
        <ele>516.91</ele>
        <time>2022-06-25T18:16:14.999Z</time>
      </trkpt>
      <trkpt lat="43.85692" lon="6.93083">
        <ele>518.34</ele>
        <time>2022-06-25T18:16:22.999Z</time>
      </trkpt>
      <trkpt lat="43.85682" lon="6.93061">
        <ele>520.06</ele>
        <time>2022-06-25T18:16:30.999Z</time>
      </trkpt>
      <trkpt lat="43.85675" lon="6.93036">
        <ele>521.15</ele>
        <time>2022-06-25T18:16:38.999Z</time>
      </trkpt>
      <trkpt lat="43.85666" lon="6.93012">
        <ele>523.2</ele>
        <time>2022-06-25T18:16:46.999Z</time>
      </trkpt>
      <trkpt lat="43.85652" lon="6.92992">
        <ele>524.19</ele>
        <time>2022-06-25T18:16:54.999Z</time>
      </trkpt>
      <trkpt lat="43.85642" lon="6.92969">
        <ele>525.1</ele>
        <time>2022-06-25T18:17:02.999Z</time>
      </trkpt>
      <trkpt lat="43.85637" lon="6.92944">
        <ele>527.19</ele>
        <time>2022-06-25T18:17:10.999Z</time>
      </trkpt>
      <trkpt lat="43.8562" lon="6.92932">
        <ele>526.85</ele>
        <time>2022-06-25T18:17:18.999Z</time>
      </trkpt>
      <trkpt lat="43.85601" lon="6.92934">
        <ele>527.88</ele>
        <time>2022-06-25T18:17:25.999Z</time>
      </trkpt>
      <trkpt lat="43.85583" lon="6.92923">
        <ele>528.02</ele>
        <time>2022-06-25T18:17:33.999Z</time>
      </trkpt>
      <trkpt lat="43.85568" lon="6.92907">
        <ele>528.98</ele>
        <time>2022-06-25T18:17:41.999Z</time>
      </trkpt>
      <trkpt lat="43.85551" lon="6.92891">
        <ele>529.77</ele>
        <time>2022-06-25T18:17:50.999Z</time>
      </trkpt>
      <trkpt lat="43.85535" lon="6.92878">
        <ele>530.49</ele>
        <time>2022-06-25T18:17:58.999Z</time>
      </trkpt>
      <trkpt lat="43.8552" lon="6.92865">
        <ele>532.63</ele>
        <time>2022-06-25T18:18:06.999Z</time>
      </trkpt>
      <trkpt lat="43.85502" lon="6.92857">
        <ele>534.09</ele>
        <time>2022-06-25T18:18:14.999Z</time>
      </trkpt>
      <trkpt lat="43.85482" lon="6.9286">
        <ele>535.89</ele>
        <time>2022-06-25T18:18:22.999Z</time>
      </trkpt>
      <trkpt lat="43.85464" lon="6.92863">
        <ele>537.6</ele>
        <time>2022-06-25T18:18:29.999Z</time>
      </trkpt>
      <trkpt lat="43.85444" lon="6.92864">
        <ele>539.65</ele>
        <time>2022-06-25T18:18:37.999Z</time>
      </trkpt>
      <trkpt lat="43.85424" lon="6.92863">
        <ele>539.88</ele>
        <time>2022-06-25T18:18:45.999Z</time>
      </trkpt>
      <trkpt lat="43.85415" lon="6.92841">
        <ele>541.39</ele>
        <time>2022-06-25T18:18:53.999Z</time>
      </trkpt>
      <trkpt lat="43.85413" lon="6.92815">
        <ele>543.54</ele>
        <time>2022-06-25T18:19:01.999Z</time>
      </trkpt>
      <trkpt lat="43.8541" lon="6.9279">
        <ele>545.82</ele>
        <time>2022-06-25T18:19:09.999Z</time>
      </trkpt>
      <trkpt lat="43.85406" lon="6.92764">
        <ele>548.22</ele>
        <time>2022-06-25T18:19:17.999Z</time>
      </trkpt>
      <trkpt lat="43.85404" lon="6.92737">
        <ele>550.88</ele>
        <time>2022-06-25T18:19:25.999Z</time>
      </trkpt>
      <trkpt lat="43.85406" lon="6.92709">
        <ele>553.65</ele>
        <time>2022-06-25T18:19:33.999Z</time>
      </trkpt>
      <trkpt lat="43.85406" lon="6.92682">
        <ele>555.19</ele>
        <time>2022-06-25T18:19:40.999Z</time>
      </trkpt>
      <trkpt lat="43.85412" lon="6.92657">
        <ele>555.75</ele>
        <time>2022-06-25T18:19:47.999Z</time>
      </trkpt>
      <trkpt lat="43.85425" lon="6.92637">
        <ele>556.48</ele>
        <time>2022-06-25T18:19:54.999Z</time>
      </trkpt>
      <trkpt lat="43.85431" lon="6.92611">
        <ele>557.96</ele>
        <time>2022-06-25T18:20:01.999Z</time>
      </trkpt>
      <trkpt lat="43.85425" lon="6.92587">
        <ele>559.31</ele>
        <time>2022-06-25T18:20:07.999Z</time>
      </trkpt>
      <trkpt lat="43.85415" lon="6.92566">
        <ele>560.78</ele>
        <time>2022-06-25T18:20:14.999Z</time>
      </trkpt>
      <trkpt lat="43.85403" lon="6.92542">
        <ele>559.65</ele>
        <time>2022-06-25T18:20:21.999Z</time>
      </trkpt>
      <trkpt lat="43.85398" lon="6.92516">
        <ele>558.82</ele>
        <time>2022-06-25T18:20:28.999Z</time>
      </trkpt>
      <trkpt lat="43.85402" lon="6.9249">
        <ele>560.57</ele>
        <time>2022-06-25T18:20:35.999Z</time>
      </trkpt>
      <trkpt lat="43.85405" lon="6.92466">
        <ele>562.4</ele>
        <time>2022-06-25T18:20:42.999Z</time>
      </trkpt>
      <trkpt lat="43.85415" lon="6.92442">
        <ele>563.69</ele>
        <time>2022-06-25T18:20:49.999Z</time>
      </trkpt>
      <trkpt lat="43.85428" lon="6.92424">
        <ele>564.61</ele>
        <time>2022-06-25T18:20:56.999Z</time>
      </trkpt>
      <trkpt lat="43.85441" lon="6.92406">
        <ele>566.11</ele>
        <time>2022-06-25T18:21:03.999Z</time>
      </trkpt>
      <trkpt lat="43.85452" lon="6.92384">
        <ele>566.61</ele>
        <time>2022-06-25T18:21:10.999Z</time>
      </trkpt>
      <trkpt lat="43.85463" lon="6.92365">
        <ele>566.75</ele>
        <time>2022-06-25T18:21:17.999Z</time>
      </trkpt>
      <trkpt lat="43.85481" lon="6.92351">
        <ele>569.38</ele>
        <time>2022-06-25T18:21:25.999Z</time>
      </trkpt>
      <trkpt lat="43.85497" lon="6.92338">
        <ele>570.99</ele>
        <time>2022-06-25T18:21:32.999Z</time>
      </trkpt>
      <trkpt lat="43.8551" lon="6.9232">
        <ele>572.83</ele>
        <time>2022-06-25T18:21:39.999Z</time>
      </trkpt>
      <trkpt lat="43.85523" lon="6.92301">
        <ele>574.48</ele>
        <time>2022-06-25T18:21:46.999Z</time>
      </trkpt>
      <trkpt lat="43.85536" lon="6.92282">
        <ele>575.64</ele>
        <time>2022-06-25T18:21:53.999Z</time>
      </trkpt>
      <trkpt lat="43.85549" lon="6.92264">
        <ele>577.57</ele>
        <time>2022-06-25T18:22:00.999Z</time>
      </trkpt>
      <trkpt lat="43.85563" lon="6.92245">
        <ele>579.07</ele>
        <time>2022-06-25T18:22:07.999Z</time>
      </trkpt>
      <trkpt lat="43.85575" lon="6.92226">
        <ele>580.52</ele>
        <time>2022-06-25T18:22:14.999Z</time>
      </trkpt>
      <trkpt lat="43.85589" lon="6.92207">
        <ele>581.06</ele>
        <time>2022-06-25T18:22:21.999Z</time>
      </trkpt>
      <trkpt lat="43.85597" lon="6.92183">
        <ele>582.09</ele>
        <time>2022-06-25T18:22:28.999Z</time>
      </trkpt>
      <trkpt lat="43.856" lon="6.92158">
        <ele>582.4</ele>
        <time>2022-06-25T18:22:35.999Z</time>
      </trkpt>
      <trkpt lat="43.85594" lon="6.92132">
        <ele>584.85</ele>
        <time>2022-06-25T18:22:43.999Z</time>
      </trkpt>
      <trkpt lat="43.85579" lon="6.92112">
        <ele>588.21</ele>
        <time>2022-06-25T18:22:52.000Z</time>
      </trkpt>
      <trkpt lat="43.85565" lon="6.92093">
        <ele>588.43</ele>
        <time>2022-06-25T18:23:00.000Z</time>
      </trkpt>
      <trkpt lat="43.85551" lon="6.92077">
        <ele>588.4</ele>
        <time>2022-06-25T18:23:07.000Z</time>
      </trkpt>
      <trkpt lat="43.85535" lon="6.92063">
        <ele>588.11</ele>
        <time>2022-06-25T18:23:14.000Z</time>
      </trkpt>
      <trkpt lat="43.85517" lon="6.92049">
        <ele>588.49</ele>
        <time>2022-06-25T18:23:22.000Z</time>
      </trkpt>
      <trkpt lat="43.85503" lon="6.92033">
        <ele>588</ele>
        <time>2022-06-25T18:23:29.000Z</time>
      </trkpt>
      <trkpt lat="43.85485" lon="6.92024">
        <ele>589.1</ele>
        <time>2022-06-25T18:23:36.000Z</time>
      </trkpt>
      <trkpt lat="43.85466" lon="6.92022">
        <ele>591</ele>
        <time>2022-06-25T18:23:43.000Z</time>
      </trkpt>
      <trkpt lat="43.85448" lon="6.92023">
        <ele>592.47</ele>
        <time>2022-06-25T18:23:49.000Z</time>
      </trkpt>
      <trkpt lat="43.85429" lon="6.92016">
        <ele>592.75</ele>
        <time>2022-06-25T18:23:56.000Z</time>
      </trkpt>
      <trkpt lat="43.8543" lon="6.91989">
        <ele>593.67</ele>
        <time>2022-06-25T18:24:03.000Z</time>
      </trkpt>
      <trkpt lat="43.85435" lon="6.91965">
        <ele>594.52</ele>
        <time>2022-06-25T18:24:10.000Z</time>
      </trkpt>
      <trkpt lat="43.85447" lon="6.91942">
        <ele>594.77</ele>
        <time>2022-06-25T18:24:17.000Z</time>
      </trkpt>
      <trkpt lat="43.85466" lon="6.91941">
        <ele>595.96</ele>
        <time>2022-06-25T18:24:25.000Z</time>
      </trkpt>
      <trkpt lat="43.85484" lon="6.91939">
        <ele>597.63</ele>
        <time>2022-06-25T18:24:32.000Z</time>
      </trkpt>
      <trkpt lat="43.85501" lon="6.91923">
        <ele>600</ele>
        <time>2022-06-25T18:24:39.000Z</time>
      </trkpt>
      <trkpt lat="43.85512" lon="6.91901">
        <ele>600.72</ele>
        <time>2022-06-25T18:24:46.000Z</time>
      </trkpt>
      <trkpt lat="43.85521" lon="6.91877">
        <ele>601.17</ele>
        <time>2022-06-25T18:24:53.000Z</time>
      </trkpt>
      <trkpt lat="43.85531" lon="6.91854">
        <ele>602.17</ele>
        <time>2022-06-25T18:25:00.000Z</time>
      </trkpt>
      <trkpt lat="43.85544" lon="6.91832">
        <ele>603.13</ele>
        <time>2022-06-25T18:25:07.000Z</time>
      </trkpt>
      <trkpt lat="43.85561" lon="6.91816">
        <ele>605</ele>
        <time>2022-06-25T18:25:14.000Z</time>
      </trkpt>
      <trkpt lat="43.85577" lon="6.91802">
        <ele>606.54</ele>
        <time>2022-06-25T18:25:21.000Z</time>
      </trkpt>
      <trkpt lat="43.85595" lon="6.91786">
        <ele>607.81</ele>
        <time>2022-06-25T18:25:28.000Z</time>
      </trkpt>
      <trkpt lat="43.85605" lon="6.91762">
        <ele>608.27</ele>
        <time>2022-06-25T18:25:35.000Z</time>
      </trkpt>
      <trkpt lat="43.85607" lon="6.91737">
        <ele>608.18</ele>
        <time>2022-06-25T18:25:41.000Z</time>
      </trkpt>
      <trkpt lat="43.85607" lon="6.9171">
        <ele>609.23</ele>
        <time>2022-06-25T18:25:48.000Z</time>
      </trkpt>
      <trkpt lat="43.85614" lon="6.91686">
        <ele>610.12</ele>
        <time>2022-06-25T18:25:54.000Z</time>
      </trkpt>
      <trkpt lat="43.8563" lon="6.9167">
        <ele>611.48</ele>
        <time>2022-06-25T18:26:01.000Z</time>
      </trkpt>
      <trkpt lat="43.8565" lon="6.91663">
        <ele>611.54</ele>
        <time>2022-06-25T18:26:08.000Z</time>
      </trkpt>
      <trkpt lat="43.85668" lon="6.91651">
        <ele>611.7</ele>
        <time>2022-06-25T18:26:15.000Z</time>
      </trkpt>
      <trkpt lat="43.85678" lon="6.91628">
        <ele>612.57</ele>
        <time>2022-06-25T18:26:22.000Z</time>
      </trkpt>
      <trkpt lat="43.85683" lon="6.91602">
        <ele>614.02</ele>
        <time>2022-06-25T18:26:29.000Z</time>
      </trkpt>
      <trkpt lat="43.85692" lon="6.91577">
        <ele>614.97</ele>
        <time>2022-06-25T18:26:36.000Z</time>
      </trkpt>
      <trkpt lat="43.85707" lon="6.91561">
        <ele>615.2</ele>
        <time>2022-06-25T18:26:43.000Z</time>
      </trkpt>
      <trkpt lat="43.85723" lon="6.91546">
        <ele>616.16</ele>
        <time>2022-06-25T18:26:50.000Z</time>
      </trkpt>
      <trkpt lat="43.85742" lon="6.91536">
        <ele>617.11</ele>
        <time>2022-06-25T18:26:57.000Z</time>
      </trkpt>
      <trkpt lat="43.85755" lon="6.91518">
        <ele>617.48</ele>
        <time>2022-06-25T18:27:03.000Z</time>
      </trkpt>
      <trkpt lat="43.85764" lon="6.91494">
        <ele>617.74</ele>
        <time>2022-06-25T18:27:09.000Z</time>
      </trkpt>
      <trkpt lat="43.85771" lon="6.91471">
        <ele>618.57</ele>
        <time>2022-06-25T18:27:15.000Z</time>
      </trkpt>
      <trkpt lat="43.85792" lon="6.9147">
        <ele>619.21</ele>
        <time>2022-06-25T18:27:21.000Z</time>
      </trkpt>
      <trkpt lat="43.85812" lon="6.91467">
        <ele>619.95</ele>
        <time>2022-06-25T18:27:25.000Z</time>
      </trkpt>
      <trkpt lat="43.8583" lon="6.91448">
        <ele>619.71</ele>
        <time>2022-06-25T18:27:29.000Z</time>
      </trkpt>
      <trkpt lat="43.85846" lon="6.91425">
        <ele>618.31</ele>
        <time>2022-06-25T18:27:33.000Z</time>
      </trkpt>
      <trkpt lat="43.85862" lon="6.91409">
        <ele>617.85</ele>
        <time>2022-06-25T18:27:37.000Z</time>
      </trkpt>
      <trkpt lat="43.8588" lon="6.91387">
        <ele>615.69</ele>
        <time>2022-06-25T18:27:41.000Z</time>
      </trkpt>
      <trkpt lat="43.85897" lon="6.91372">
        <ele>614.49</ele>
        <time>2022-06-25T18:27:44.000Z</time>
      </trkpt>
      <trkpt lat="43.85917" lon="6.91357">
        <ele>612.04</ele>
        <time>2022-06-25T18:27:47.000Z</time>
      </trkpt>
      <trkpt lat="43.85933" lon="6.91342">
        <ele>609.84</ele>
        <time>2022-06-25T18:27:49.000Z</time>
      </trkpt>
      <trkpt lat="43.85948" lon="6.91323">
        <ele>607.75</ele>
        <time>2022-06-25T18:27:51.000Z</time>
      </trkpt>
      <trkpt lat="43.85965" lon="6.91308">
        <ele>606.84</ele>
        <time>2022-06-25T18:27:53.000Z</time>
      </trkpt>
      <trkpt lat="43.85984" lon="6.91298">
        <ele>605.6</ele>
        <time>2022-06-25T18:27:55.000Z</time>
      </trkpt>
      <trkpt lat="43.86001" lon="6.91284">
        <ele>604.17</ele>
        <time>2022-06-25T18:27:57.000Z</time>
      </trkpt>
      <trkpt lat="43.86016" lon="6.91268">
        <ele>602.42</ele>
        <time>2022-06-25T18:28:00.000Z</time>
      </trkpt>
      <trkpt lat="43.85994" lon="6.91276">
        <ele>595.05</ele>
        <time>2022-06-25T18:28:06.000Z</time>
      </trkpt>
      <trkpt lat="43.85975" lon="6.91293">
        <ele>592.59</ele>
        <time>2022-06-25T18:28:10.000Z</time>
      </trkpt>
      <trkpt lat="43.85955" lon="6.91288">
        <ele>590.21</ele>
        <time>2022-06-25T18:28:15.000Z</time>
      </trkpt>
      <trkpt lat="43.85933" lon="6.91299">
        <ele>589</ele>
        <time>2022-06-25T18:28:20.000Z</time>
      </trkpt>
      <trkpt lat="43.8591" lon="6.91308">
        <ele>587.58</ele>
        <time>2022-06-25T18:28:24.000Z</time>
      </trkpt>
      <trkpt lat="43.85889" lon="6.91313">
        <ele>587.14</ele>
        <time>2022-06-25T18:28:27.000Z</time>
      </trkpt>
      <trkpt lat="43.85867" lon="6.91317">
        <ele>586.16</ele>
        <time>2022-06-25T18:28:30.000Z</time>
      </trkpt>
      <trkpt lat="43.85846" lon="6.91325">
        <ele>585.08</ele>
        <time>2022-06-25T18:28:33.000Z</time>
      </trkpt>
      <trkpt lat="43.85829" lon="6.91345">
        <ele>583.53</ele>
        <time>2022-06-25T18:28:36.000Z</time>
      </trkpt>
      <trkpt lat="43.85814" lon="6.91363">
        <ele>581.73</ele>
        <time>2022-06-25T18:28:39.000Z</time>
      </trkpt>
      <trkpt lat="43.85794" lon="6.91375">
        <ele>580.89</ele>
        <time>2022-06-25T18:28:42.000Z</time>
      </trkpt>
      <trkpt lat="43.85769" lon="6.91364">
        <ele>579.27</ele>
        <time>2022-06-25T18:28:45.000Z</time>
      </trkpt>
      <trkpt lat="43.85746" lon="6.91353">
        <ele>578.45</ele>
        <time>2022-06-25T18:28:48.000Z</time>
      </trkpt>
      <trkpt lat="43.85768" lon="6.91356">
        <ele>569.17</ele>
        <time>2022-06-25T18:28:57.000Z</time>
      </trkpt>
      <trkpt lat="43.85791" lon="6.91356">
        <ele>569.41</ele>
        <time>2022-06-25T18:29:01.000Z</time>
      </trkpt>
      <trkpt lat="43.85811" lon="6.91344">
        <ele>568.83</ele>
        <time>2022-06-25T18:29:04.000Z</time>
      </trkpt>
      <trkpt lat="43.85825" lon="6.9132">
        <ele>567.9</ele>
        <time>2022-06-25T18:29:07.000Z</time>
      </trkpt>
      <trkpt lat="43.85839" lon="6.91292">
        <ele>565.84</ele>
        <time>2022-06-25T18:29:10.000Z</time>
      </trkpt>
      <trkpt lat="43.85858" lon="6.91266">
        <ele>564.41</ele>
        <time>2022-06-25T18:29:13.000Z</time>
      </trkpt>
      <trkpt lat="43.85883" lon="6.91256">
        <ele>564.3</ele>
        <time>2022-06-25T18:29:16.000Z</time>
      </trkpt>
      <trkpt lat="43.85903" lon="6.91241">
        <ele>563.06</ele>
        <time>2022-06-25T18:29:19.000Z</time>
      </trkpt>
      <trkpt lat="43.85911" lon="6.91215">
        <ele>561.74</ele>
        <time>2022-06-25T18:29:22.000Z</time>
      </trkpt>
      <trkpt lat="43.85925" lon="6.91193">
        <ele>560.71</ele>
        <time>2022-06-25T18:29:26.000Z</time>
      </trkpt>
      <trkpt lat="43.85944" lon="6.9118">
        <ele>559.83</ele>
        <time>2022-06-25T18:29:30.000Z</time>
      </trkpt>
      <trkpt lat="43.85967" lon="6.91174">
        <ele>558.1</ele>
        <time>2022-06-25T18:29:34.000Z</time>
      </trkpt>
      <trkpt lat="43.85984" lon="6.91159">
        <ele>556.72</ele>
        <time>2022-06-25T18:29:37.000Z</time>
      </trkpt>
      <trkpt lat="43.86002" lon="6.91143">
        <ele>555.28</ele>
        <time>2022-06-25T18:29:40.000Z</time>
      </trkpt>
      <trkpt lat="43.86019" lon="6.91116">
        <ele>553.5</ele>
        <time>2022-06-25T18:29:43.000Z</time>
      </trkpt>
      <trkpt lat="43.86026" lon="6.91092">
        <ele>552.25</ele>
        <time>2022-06-25T18:29:45.000Z</time>
      </trkpt>
      <trkpt lat="43.86032" lon="6.91069">
        <ele>551.09</ele>
        <time>2022-06-25T18:29:47.000Z</time>
      </trkpt>
      <trkpt lat="43.86045" lon="6.91047">
        <ele>548.65</ele>
        <time>2022-06-25T18:29:50.000Z</time>
      </trkpt>
      <trkpt lat="43.86069" lon="6.91036">
        <ele>548.45</ele>
        <time>2022-06-25T18:29:53.000Z</time>
      </trkpt>
      <trkpt lat="43.86091" lon="6.91021">
        <ele>544.81</ele>
        <time>2022-06-25T18:29:56.000Z</time>
      </trkpt>
      <trkpt lat="43.86115" lon="6.91017">
        <ele>544.31</ele>
        <time>2022-06-25T18:29:59.000Z</time>
      </trkpt>
      <trkpt lat="43.8613" lon="6.90995">
        <ele>542.57</ele>
        <time>2022-06-25T18:30:02.000Z</time>
      </trkpt>
      <trkpt lat="43.86139" lon="6.9097">
        <ele>538.78</ele>
        <time>2022-06-25T18:30:05.000Z</time>
      </trkpt>
      <trkpt lat="43.86154" lon="6.9095">
        <ele>538.59</ele>
        <time>2022-06-25T18:30:08.000Z</time>
      </trkpt>
      <trkpt lat="43.86167" lon="6.90925">
        <ele>537.25</ele>
        <time>2022-06-25T18:30:11.000Z</time>
      </trkpt>
      <trkpt lat="43.86181" lon="6.90902">
        <ele>535.54</ele>
        <time>2022-06-25T18:30:14.000Z</time>
      </trkpt>
      <trkpt lat="43.86193" lon="6.90873">
        <ele>533.37</ele>
        <time>2022-06-25T18:30:17.000Z</time>
      </trkpt>
      <trkpt lat="43.86208" lon="6.90846">
        <ele>531.1</ele>
        <time>2022-06-25T18:30:20.000Z</time>
      </trkpt>
      <trkpt lat="43.86227" lon="6.90822">
        <ele>529.39</ele>
        <time>2022-06-25T18:30:23.000Z</time>
      </trkpt>
      <trkpt lat="43.86238" lon="6.90798">
        <ele>529.39</ele>
        <time>2022-06-25T18:30:26.000Z</time>
      </trkpt>
      <trkpt lat="43.86264" lon="6.90762">
        <ele>530.57</ele>
        <time>2022-06-25T18:30:31.000Z</time>
      </trkpt>
      <trkpt lat="43.86257" lon="6.90734">
        <ele>529.93</ele>
        <time>2022-06-25T18:30:34.000Z</time>
      </trkpt>
      <trkpt lat="43.86247" lon="6.9071">
        <ele>528.38</ele>
        <time>2022-06-25T18:30:38.000Z</time>
      </trkpt>
      <trkpt lat="43.86107" lon="6.90733">
        <ele>530.41</ele>
        <time>2022-06-25T18:31:33.000Z</time>
      </trkpt>
      <trkpt lat="43.86088" lon="6.90733">
        <ele>541.84</ele>
        <time>2022-06-25T18:31:41.000Z</time>
      </trkpt>
      <trkpt lat="43.8607" lon="6.90725">
        <ele>541.71</ele>
        <time>2022-06-25T18:31:49.000Z</time>
      </trkpt>
      <trkpt lat="43.86051" lon="6.90714">
        <ele>546.51</ele>
        <time>2022-06-25T18:31:57.000Z</time>
      </trkpt>
      <trkpt lat="43.86034" lon="6.90701">
        <ele>544.69</ele>
        <time>2022-06-25T18:32:06.000Z</time>
      </trkpt>
      <trkpt lat="43.86016" lon="6.90709">
        <ele>547.52</ele>
        <time>2022-06-25T18:32:13.000Z</time>
      </trkpt>
      <trkpt lat="43.85998" lon="6.90721">
        <ele>537.07</ele>
        <time>2022-06-25T18:32:22.000Z</time>
      </trkpt>
      <trkpt lat="43.85979" lon="6.90716">
        <ele>536.26</ele>
        <time>2022-06-25T18:32:30.000Z</time>
      </trkpt>
      <trkpt lat="43.85961" lon="6.9071">
        <ele>538.23</ele>
        <time>2022-06-25T18:32:37.000Z</time>
      </trkpt>
      <trkpt lat="43.85943" lon="6.90706">
        <ele>538.39</ele>
        <time>2022-06-25T18:32:44.000Z</time>
      </trkpt>
      <trkpt lat="43.85923" lon="6.90715">
        <ele>541.23</ele>
        <time>2022-06-25T18:32:51.000Z</time>
      </trkpt>
      <trkpt lat="43.85905" lon="6.90722">
        <ele>543.12</ele>
        <time>2022-06-25T18:32:59.000Z</time>
      </trkpt>
      <trkpt lat="43.85894" lon="6.90697">
        <ele>543.25</ele>
        <time>2022-06-25T18:33:08.000Z</time>
      </trkpt>
      <trkpt lat="43.85885" lon="6.90674">
        <ele>545.63</ele>
        <time>2022-06-25T18:33:16.000Z</time>
      </trkpt>
      <trkpt lat="43.85874" lon="6.9065">
        <ele>547.67</ele>
        <time>2022-06-25T18:33:24.000Z</time>
      </trkpt>
      <trkpt lat="43.85865" lon="6.90625">
        <ele>548</ele>
        <time>2022-06-25T18:33:32.000Z</time>
      </trkpt>
      <trkpt lat="43.85851" lon="6.90606">
        <ele>549.53</ele>
        <time>2022-06-25T18:33:41.000Z</time>
      </trkpt>
      <trkpt lat="43.85834" lon="6.9062">
        <ele>551.13</ele>
        <time>2022-06-25T18:33:49.000Z</time>
      </trkpt>
      <trkpt lat="43.85827" lon="6.90646">
        <ele>553.14</ele>
        <time>2022-06-25T18:33:57.000Z</time>
      </trkpt>
      <trkpt lat="43.8582" lon="6.90672">
        <ele>554.45</ele>
        <time>2022-06-25T18:34:05.000Z</time>
      </trkpt>
      <trkpt lat="43.85811" lon="6.90695">
        <ele>554.45</ele>
        <time>2022-06-25T18:34:13.000Z</time>
      </trkpt>
      <trkpt lat="43.858" lon="6.90716">
        <ele>556.3</ele>
        <time>2022-06-25T18:34:20.000Z</time>
      </trkpt>
      <trkpt lat="43.85791" lon="6.90738">
        <ele>558.42</ele>
        <time>2022-06-25T18:34:28.000Z</time>
      </trkpt>
      <trkpt lat="43.8578" lon="6.90759">
        <ele>557.76</ele>
        <time>2022-06-25T18:34:36.000Z</time>
      </trkpt>
      <trkpt lat="43.85764" lon="6.90774">
        <ele>558.75</ele>
        <time>2022-06-25T18:34:44.000Z</time>
      </trkpt>
      <trkpt lat="43.85747" lon="6.90785">
        <ele>559.71</ele>
        <time>2022-06-25T18:34:52.000Z</time>
      </trkpt>
      <trkpt lat="43.85729" lon="6.90794">
        <ele>561.69</ele>
        <time>2022-06-25T18:35:00.000Z</time>
      </trkpt>
      <trkpt lat="43.8571" lon="6.90803">
        <ele>561.96</ele>
        <time>2022-06-25T18:35:08.000Z</time>
      </trkpt>
      <trkpt lat="43.85691" lon="6.90813">
        <ele>563.35</ele>
        <time>2022-06-25T18:35:17.000Z</time>
      </trkpt>
      <trkpt lat="43.85673" lon="6.90825">
        <ele>565.53</ele>
        <time>2022-06-25T18:35:25.000Z</time>
      </trkpt>
      <trkpt lat="43.85656" lon="6.9084">
        <ele>568.98</ele>
        <time>2022-06-25T18:35:32.000Z</time>
      </trkpt>
      <trkpt lat="43.85645" lon="6.90862">
        <ele>569.03</ele>
        <time>2022-06-25T18:35:40.000Z</time>
      </trkpt>
      <trkpt lat="43.85634" lon="6.90886">
        <ele>570.68</ele>
        <time>2022-06-25T18:35:48.000Z</time>
      </trkpt>
      <trkpt lat="43.85622" lon="6.90907">
        <ele>569.2</ele>
        <time>2022-06-25T18:35:56.000Z</time>
      </trkpt>
      <trkpt lat="43.85609" lon="6.90927">
        <ele>569.42</ele>
        <time>2022-06-25T18:36:04.000Z</time>
      </trkpt>
      <trkpt lat="43.85592" lon="6.90942">
        <ele>568.34</ele>
        <time>2022-06-25T18:36:14.000Z</time>
      </trkpt>
      <trkpt lat="43.85578" lon="6.90958">
        <ele>569.69</ele>
        <time>2022-06-25T18:36:21.000Z</time>
      </trkpt>
      <trkpt lat="43.85567" lon="6.90979">
        <ele>571.76</ele>
        <time>2022-06-25T18:36:28.000Z</time>
      </trkpt>
      <trkpt lat="43.85551" lon="6.90995">
        <ele>574.08</ele>
        <time>2022-06-25T18:36:37.000Z</time>
      </trkpt>
      <trkpt lat="43.85539" lon="6.90975">
        <ele>578.09</ele>
        <time>2022-06-25T18:36:46.000Z</time>
      </trkpt>
      <trkpt lat="43.85528" lon="6.90953">
        <ele>580.87</ele>
        <time>2022-06-25T18:36:54.000Z</time>
      </trkpt>
      <trkpt lat="43.85518" lon="6.90929">
        <ele>583.38</ele>
        <time>2022-06-25T18:37:02.000Z</time>
      </trkpt>
      <trkpt lat="43.85507" lon="6.90907">
        <ele>585.47</ele>
        <time>2022-06-25T18:37:10.000Z</time>
      </trkpt>
      <trkpt lat="43.85501" lon="6.90881">
        <ele>587.2</ele>
        <time>2022-06-25T18:37:18.000Z</time>
      </trkpt>
      <trkpt lat="43.85497" lon="6.90855">
        <ele>588.72</ele>
        <time>2022-06-25T18:37:26.000Z</time>
      </trkpt>
      <trkpt lat="43.85489" lon="6.90832">
        <ele>588.77</ele>
        <time>2022-06-25T18:37:33.000Z</time>
      </trkpt>
      <trkpt lat="43.85478" lon="6.90808">
        <ele>589.44</ele>
        <time>2022-06-25T18:37:40.000Z</time>
      </trkpt>
      <trkpt lat="43.85471" lon="6.90783">
        <ele>590.73</ele>
        <time>2022-06-25T18:37:47.000Z</time>
      </trkpt>
      <trkpt lat="43.85463" lon="6.9076">
        <ele>591.89</ele>
        <time>2022-06-25T18:37:54.000Z</time>
      </trkpt>
      <trkpt lat="43.85453" lon="6.90737">
        <ele>593.83</ele>
        <time>2022-06-25T18:38:01.000Z</time>
      </trkpt>
      <trkpt lat="43.85443" lon="6.90716">
        <ele>593.55</ele>
        <time>2022-06-25T18:38:08.000Z</time>
      </trkpt>
      <trkpt lat="43.85434" lon="6.90694">
        <ele>594.1</ele>
        <time>2022-06-25T18:38:15.000Z</time>
      </trkpt>
      <trkpt lat="43.85426" lon="6.9067">
        <ele>595.88</ele>
        <time>2022-06-25T18:38:22.000Z</time>
      </trkpt>
      <trkpt lat="43.85416" lon="6.90647">
        <ele>597.12</ele>
        <time>2022-06-25T18:38:29.000Z</time>
      </trkpt>
      <trkpt lat="43.85405" lon="6.90624">
        <ele>598.02</ele>
        <time>2022-06-25T18:38:36.000Z</time>
      </trkpt>
      <trkpt lat="43.85396" lon="6.90601">
        <ele>599.48</ele>
        <time>2022-06-25T18:38:44.000Z</time>
      </trkpt>
      <trkpt lat="43.85388" lon="6.90578">
        <ele>600.08</ele>
        <time>2022-06-25T18:38:52.000Z</time>
      </trkpt>
      <trkpt lat="43.85378" lon="6.90554">
        <ele>600.48</ele>
        <time>2022-06-25T18:39:00.000Z</time>
      </trkpt>
      <trkpt lat="43.85368" lon="6.90531">
        <ele>601.47</ele>
        <time>2022-06-25T18:39:09.000Z</time>
      </trkpt>
      <trkpt lat="43.85362" lon="6.90505">
        <ele>602.97</ele>
        <time>2022-06-25T18:39:19.000Z</time>
      </trkpt>
      <trkpt lat="43.85347" lon="6.90487">
        <ele>605.8</ele>
        <time>2022-06-25T18:39:27.000Z</time>
      </trkpt>
      <trkpt lat="43.85333" lon="6.90469">
        <ele>607.81</ele>
        <time>2022-06-25T18:39:35.000Z</time>
      </trkpt>
      <trkpt lat="43.85325" lon="6.90446">
        <ele>609.05</ele>
        <time>2022-06-25T18:39:43.000Z</time>
      </trkpt>
      <trkpt lat="43.85314" lon="6.90425">
        <ele>609.76</ele>
        <time>2022-06-25T18:39:50.000Z</time>
      </trkpt>
      <trkpt lat="43.85303" lon="6.90404">
        <ele>610.3</ele>
        <time>2022-06-25T18:39:57.000Z</time>
      </trkpt>
      <trkpt lat="43.85296" lon="6.9038">
        <ele>612.23</ele>
        <time>2022-06-25T18:40:05.000Z</time>
      </trkpt>
      <trkpt lat="43.8529" lon="6.90354">
        <ele>613.29</ele>
        <time>2022-06-25T18:40:13.000Z</time>
      </trkpt>
      <trkpt lat="43.85286" lon="6.90328">
        <ele>614.69</ele>
        <time>2022-06-25T18:40:21.000Z</time>
      </trkpt>
      <trkpt lat="43.85276" lon="6.90304">
        <ele>615.63</ele>
        <time>2022-06-25T18:40:29.000Z</time>
      </trkpt>
      <trkpt lat="43.85264" lon="6.90281">
        <ele>617.12</ele>
        <time>2022-06-25T18:40:37.000Z</time>
      </trkpt>
      <trkpt lat="43.85259" lon="6.90257">
        <ele>616.33</ele>
        <time>2022-06-25T18:40:44.000Z</time>
      </trkpt>
      <trkpt lat="43.85255" lon="6.90229">
        <ele>617.12</ele>
        <time>2022-06-25T18:40:52.000Z</time>
      </trkpt>
      <trkpt lat="43.85244" lon="6.90208">
        <ele>617.85</ele>
        <time>2022-06-25T18:40:59.000Z</time>
      </trkpt>
      <trkpt lat="43.85231" lon="6.9019">
        <ele>618.87</ele>
        <time>2022-06-25T18:41:06.000Z</time>
      </trkpt>
      <trkpt lat="43.8522" lon="6.90169">
        <ele>619.6</ele>
        <time>2022-06-25T18:41:13.000Z</time>
      </trkpt>
      <trkpt lat="43.85218" lon="6.90142">
        <ele>621.54</ele>
        <time>2022-06-25T18:41:21.000Z</time>
      </trkpt>
      <trkpt lat="43.85223" lon="6.90115">
        <ele>622.69</ele>
        <time>2022-06-25T18:41:29.000Z</time>
      </trkpt>
      <trkpt lat="43.85229" lon="6.90091">
        <ele>623.25</ele>
        <time>2022-06-25T18:41:36.000Z</time>
      </trkpt>
      <trkpt lat="43.85232" lon="6.90065">
        <ele>623.69</ele>
        <time>2022-06-25T18:41:43.000Z</time>
      </trkpt>
      <trkpt lat="43.85227" lon="6.9004">
        <ele>624.83</ele>
        <time>2022-06-25T18:41:50.000Z</time>
      </trkpt>
      <trkpt lat="43.85221" lon="6.90015">
        <ele>627.2</ele>
        <time>2022-06-25T18:41:57.000Z</time>
      </trkpt>
      <trkpt lat="43.85206" lon="6.89998">
        <ele>629.42</ele>
        <time>2022-06-25T18:42:04.000Z</time>
      </trkpt>
      <trkpt lat="43.85189" lon="6.89985">
        <ele>631.34</ele>
        <time>2022-06-25T18:42:11.000Z</time>
      </trkpt>
      <trkpt lat="43.85169" lon="6.8998">
        <ele>631.4</ele>
        <time>2022-06-25T18:42:19.000Z</time>
      </trkpt>
      <trkpt lat="43.85149" lon="6.89983">
        <ele>631.44</ele>
        <time>2022-06-25T18:42:27.000Z</time>
      </trkpt>
      <trkpt lat="43.85164" lon="6.8997">
        <ele>634.76</ele>
        <time>2022-06-25T18:42:48.000Z</time>
      </trkpt>
      <trkpt lat="43.85185" lon="6.89969">
        <ele>636.48</ele>
        <time>2022-06-25T18:42:57.000Z</time>
      </trkpt>
      <trkpt lat="43.85203" lon="6.89973">
        <ele>638.58</ele>
        <time>2022-06-25T18:43:05.000Z</time>
      </trkpt>
      <trkpt lat="43.85222" lon="6.89982">
        <ele>640.48</ele>
        <time>2022-06-25T18:43:14.000Z</time>
      </trkpt>
      <trkpt lat="43.85239" lon="6.89996">
        <ele>643.15</ele>
        <time>2022-06-25T18:43:23.000Z</time>
      </trkpt>
      <trkpt lat="43.85254" lon="6.90014">
        <ele>646</ele>
        <time>2022-06-25T18:43:32.000Z</time>
      </trkpt>
      <trkpt lat="43.85265" lon="6.90036">
        <ele>646.13</ele>
        <time>2022-06-25T18:43:41.000Z</time>
      </trkpt>
      <trkpt lat="43.85271" lon="6.90062">
        <ele>647.89</ele>
        <time>2022-06-25T18:43:50.000Z</time>
      </trkpt>
      <trkpt lat="43.8527" lon="6.90088">
        <ele>648.66</ele>
        <time>2022-06-25T18:43:58.000Z</time>
      </trkpt>
      <trkpt lat="43.85267" lon="6.90113">
        <ele>649.66</ele>
        <time>2022-06-25T18:44:07.000Z</time>
      </trkpt>
      <trkpt lat="43.85282" lon="6.90098">
        <ele>653.35</ele>
        <time>2022-06-25T18:44:24.000Z</time>
      </trkpt>
      <trkpt lat="43.85286" lon="6.9007">
        <ele>657.53</ele>
        <time>2022-06-25T18:44:33.000Z</time>
      </trkpt>
      <trkpt lat="43.85287" lon="6.90043">
        <ele>660.54</ele>
        <time>2022-06-25T18:44:42.000Z</time>
      </trkpt>
      <trkpt lat="43.85281" lon="6.90017">
        <ele>661.99</ele>
        <time>2022-06-25T18:44:50.000Z</time>
      </trkpt>
      <trkpt lat="43.85272" lon="6.89994">
        <ele>663.51</ele>
        <time>2022-06-25T18:44:58.000Z</time>
      </trkpt>
      <trkpt lat="43.85261" lon="6.89973">
        <ele>663.65</ele>
        <time>2022-06-25T18:45:06.000Z</time>
      </trkpt>
      <trkpt lat="43.85247" lon="6.89956">
        <ele>665.27</ele>
        <time>2022-06-25T18:45:14.000Z</time>
      </trkpt>
      <trkpt lat="43.8523" lon="6.89943">
        <ele>666.53</ele>
        <time>2022-06-25T18:45:22.000Z</time>
      </trkpt>
      <trkpt lat="43.85214" lon="6.89927">
        <ele>666.05</ele>
        <time>2022-06-25T18:45:31.000Z</time>
      </trkpt>
      <trkpt lat="43.85206" lon="6.89905">
        <ele>666.85</ele>
        <time>2022-06-25T18:45:40.000Z</time>
      </trkpt>
      <trkpt lat="43.85211" lon="6.89879">
        <ele>668.23</ele>
        <time>2022-06-25T18:45:49.000Z</time>
      </trkpt>
      <trkpt lat="43.85216" lon="6.89854">
        <ele>669.89</ele>
        <time>2022-06-25T18:45:58.000Z</time>
      </trkpt>
      <trkpt lat="43.85222" lon="6.89829">
        <ele>669.83</ele>
        <time>2022-06-25T18:46:08.000Z</time>
      </trkpt>
      <trkpt lat="43.85222" lon="6.89803">
        <ele>669.86</ele>
        <time>2022-06-25T18:46:16.000Z</time>
      </trkpt>
      <trkpt lat="43.85221" lon="6.89777">
        <ele>671.84</ele>
        <time>2022-06-25T18:46:24.000Z</time>
      </trkpt>
      <trkpt lat="43.85213" lon="6.89753">
        <ele>673.4</ele>
        <time>2022-06-25T18:46:32.000Z</time>
      </trkpt>
      <trkpt lat="43.85204" lon="6.89731">
        <ele>674.25</ele>
        <time>2022-06-25T18:46:40.000Z</time>
      </trkpt>
      <trkpt lat="43.85194" lon="6.89707">
        <ele>676.9</ele>
        <time>2022-06-25T18:46:49.000Z</time>
      </trkpt>
      <trkpt lat="43.85179" lon="6.89691">
        <ele>680.36</ele>
        <time>2022-06-25T18:46:57.000Z</time>
      </trkpt>
      <trkpt lat="43.85165" lon="6.89675">
        <ele>682.46</ele>
        <time>2022-06-25T18:47:05.000Z</time>
      </trkpt>
      <trkpt lat="43.85151" lon="6.89658">
        <ele>683.47</ele>
        <time>2022-06-25T18:47:13.000Z</time>
      </trkpt>
      <trkpt lat="43.85135" lon="6.89645">
        <ele>684.84</ele>
        <time>2022-06-25T18:47:21.000Z</time>
      </trkpt>
      <trkpt lat="43.85117" lon="6.89633">
        <ele>685.04</ele>
        <time>2022-06-25T18:47:29.000Z</time>
      </trkpt>
      <trkpt lat="43.85101" lon="6.8962">
        <ele>685.21</ele>
        <time>2022-06-25T18:47:37.000Z</time>
      </trkpt>
      <trkpt lat="43.85105" lon="6.89594">
        <ele>685.36</ele>
        <time>2022-06-25T18:47:46.000Z</time>
      </trkpt>
      <trkpt lat="43.85119" lon="6.89578">
        <ele>687.72</ele>
        <time>2022-06-25T18:47:54.000Z</time>
      </trkpt>
      <trkpt lat="43.85134" lon="6.89562">
        <ele>689.75</ele>
        <time>2022-06-25T18:48:02.000Z</time>
      </trkpt>
      <trkpt lat="43.85148" lon="6.89545">
        <ele>691.74</ele>
        <time>2022-06-25T18:48:10.000Z</time>
      </trkpt>
      <trkpt lat="43.85161" lon="6.89524">
        <ele>693.86</ele>
        <time>2022-06-25T18:48:19.000Z</time>
      </trkpt>
      <trkpt lat="43.85172" lon="6.89501">
        <ele>696.6</ele>
        <time>2022-06-25T18:48:28.000Z</time>
      </trkpt>
      <trkpt lat="43.85184" lon="6.89479">
        <ele>698.65</ele>
        <time>2022-06-25T18:48:38.000Z</time>
      </trkpt>
      <trkpt lat="43.85187" lon="6.89454">
        <ele>699.38</ele>
        <time>2022-06-25T18:48:46.000Z</time>
      </trkpt>
      <trkpt lat="43.85186" lon="6.89429">
        <ele>700.7</ele>
        <time>2022-06-25T18:48:54.000Z</time>
      </trkpt>
      <trkpt lat="43.85181" lon="6.89402">
        <ele>702.31</ele>
        <time>2022-06-25T18:49:03.000Z</time>
      </trkpt>
      <trkpt lat="43.85172" lon="6.89379">
        <ele>703.57</ele>
        <time>2022-06-25T18:49:11.000Z</time>
      </trkpt>
      <trkpt lat="43.85158" lon="6.89359">
        <ele>704.9</ele>
        <time>2022-06-25T18:49:19.000Z</time>
      </trkpt>
      <trkpt lat="43.85141" lon="6.89346">
        <ele>705.62</ele>
        <time>2022-06-25T18:49:27.000Z</time>
      </trkpt>
      <trkpt lat="43.85124" lon="6.89333">
        <ele>707.48</ele>
        <time>2022-06-25T18:49:35.000Z</time>
      </trkpt>
      <trkpt lat="43.85107" lon="6.89319">
        <ele>709.91</ele>
        <time>2022-06-25T18:49:43.000Z</time>
      </trkpt>
      <trkpt lat="43.85093" lon="6.89301">
        <ele>712.86</ele>
        <time>2022-06-25T18:49:52.000Z</time>
      </trkpt>
      <trkpt lat="43.85084" lon="6.89277">
        <ele>712.65</ele>
        <time>2022-06-25T18:50:00.000Z</time>
      </trkpt>
      <trkpt lat="43.85085" lon="6.89251">
        <ele>712.75</ele>
        <time>2022-06-25T18:50:07.000Z</time>
      </trkpt>
      <trkpt lat="43.85084" lon="6.89225">
        <ele>714.37</ele>
        <time>2022-06-25T18:50:14.000Z</time>
      </trkpt>
      <trkpt lat="43.85081" lon="6.89198">
        <ele>715.78</ele>
        <time>2022-06-25T18:50:20.000Z</time>
      </trkpt>
      <trkpt lat="43.85078" lon="6.89173">
        <ele>716.25</ele>
        <time>2022-06-25T18:50:27.000Z</time>
      </trkpt>
      <trkpt lat="43.85083" lon="6.89148">
        <ele>716.11</ele>
        <time>2022-06-25T18:50:33.000Z</time>
      </trkpt>
      <trkpt lat="43.85095" lon="6.8913">
        <ele>716.29</ele>
        <time>2022-06-25T18:50:40.000Z</time>
      </trkpt>
      <trkpt lat="43.85104" lon="6.89106">
        <ele>717.18</ele>
        <time>2022-06-25T18:50:47.000Z</time>
      </trkpt>
      <trkpt lat="43.8511" lon="6.89082">
        <ele>716.9</ele>
        <time>2022-06-25T18:50:53.000Z</time>
      </trkpt>
      <trkpt lat="43.85109" lon="6.89056">
        <ele>718.16</ele>
        <time>2022-06-25T18:50:59.000Z</time>
      </trkpt>
      <trkpt lat="43.85108" lon="6.8903">
        <ele>718.87</ele>
        <time>2022-06-25T18:51:05.000Z</time>
      </trkpt>
      <trkpt lat="43.85113" lon="6.89002">
        <ele>717.45</ele>
        <time>2022-06-25T18:51:11.000Z</time>
      </trkpt>
      <trkpt lat="43.8512" lon="6.88979">
        <ele>717.26</ele>
        <time>2022-06-25T18:51:17.000Z</time>
      </trkpt>
      <trkpt lat="43.85128" lon="6.88953">
        <ele>717.68</ele>
        <time>2022-06-25T18:51:23.000Z</time>
      </trkpt>
      <trkpt lat="43.85131" lon="6.88927">
        <ele>718.42</ele>
        <time>2022-06-25T18:51:29.000Z</time>
      </trkpt>
      <trkpt lat="43.85134" lon="6.88901">
        <ele>719.61</ele>
        <time>2022-06-25T18:51:35.000Z</time>
      </trkpt>
      <trkpt lat="43.85138" lon="6.88874">
        <ele>720.43</ele>
        <time>2022-06-25T18:51:41.000Z</time>
      </trkpt>
      <trkpt lat="43.85137" lon="6.88849">
        <ele>719.74</ele>
        <time>2022-06-25T18:51:46.000Z</time>
      </trkpt>
      <trkpt lat="43.85125" lon="6.88825">
        <ele>721.11</ele>
        <time>2022-06-25T18:51:52.000Z</time>
      </trkpt>
      <trkpt lat="43.85111" lon="6.88806">
        <ele>722.88</ele>
        <time>2022-06-25T18:51:58.000Z</time>
      </trkpt>
      <trkpt lat="43.85092" lon="6.88793">
        <ele>724.33</ele>
        <time>2022-06-25T18:52:04.000Z</time>
      </trkpt>
      <trkpt lat="43.85074" lon="6.88784">
        <ele>725.01</ele>
        <time>2022-06-25T18:52:10.000Z</time>
      </trkpt>
      <trkpt lat="43.85054" lon="6.88774">
        <ele>724.23</ele>
        <time>2022-06-25T18:52:16.000Z</time>
      </trkpt>
      <trkpt lat="43.85044" lon="6.88749">
        <ele>724.36</ele>
        <time>2022-06-25T18:52:22.000Z</time>
      </trkpt>
      <trkpt lat="43.85044" lon="6.88723">
        <ele>724.13</ele>
        <time>2022-06-25T18:52:27.000Z</time>
      </trkpt>
      <trkpt lat="43.85048" lon="6.88696">
        <ele>725.84</ele>
        <time>2022-06-25T18:52:33.000Z</time>
      </trkpt>
      <trkpt lat="43.8505" lon="6.88668">
        <ele>727.06</ele>
        <time>2022-06-25T18:52:39.000Z</time>
      </trkpt>
      <trkpt lat="43.8505" lon="6.88642">
        <ele>728</ele>
        <time>2022-06-25T18:52:44.000Z</time>
      </trkpt>
      <trkpt lat="43.85053" lon="6.88614">
        <ele>728.51</ele>
        <time>2022-06-25T18:52:50.000Z</time>
      </trkpt>
      <trkpt lat="43.85052" lon="6.88589">
        <ele>728.79</ele>
        <time>2022-06-25T18:52:55.000Z</time>
      </trkpt>
      <trkpt lat="43.85048" lon="6.88564">
        <ele>729.89</ele>
        <time>2022-06-25T18:53:00.000Z</time>
      </trkpt>
      <trkpt lat="43.85039" lon="6.88541">
        <ele>730.87</ele>
        <time>2022-06-25T18:53:05.000Z</time>
      </trkpt>
      <trkpt lat="43.85024" lon="6.88522">
        <ele>730.4</ele>
        <time>2022-06-25T18:53:10.000Z</time>
      </trkpt>
      <trkpt lat="43.85009" lon="6.88506">
        <ele>731.21</ele>
        <time>2022-06-25T18:53:15.000Z</time>
      </trkpt>
      <trkpt lat="43.84995" lon="6.88485">
        <ele>732.89</ele>
        <time>2022-06-25T18:53:21.000Z</time>
      </trkpt>
      <trkpt lat="43.84985" lon="6.88463">
        <ele>733.56</ele>
        <time>2022-06-25T18:53:26.000Z</time>
      </trkpt>
      <trkpt lat="43.84977" lon="6.88439">
        <ele>734.25</ele>
        <time>2022-06-25T18:53:31.000Z</time>
      </trkpt>
      <trkpt lat="43.8497" lon="6.88411">
        <ele>733.99</ele>
        <time>2022-06-25T18:53:37.000Z</time>
      </trkpt>
      <trkpt lat="43.84972" lon="6.88385">
        <ele>732.38</ele>
        <time>2022-06-25T18:53:42.000Z</time>
      </trkpt>
      <trkpt lat="43.84975" lon="6.88359">
        <ele>732.62</ele>
        <time>2022-06-25T18:53:47.000Z</time>
      </trkpt>
      <trkpt lat="43.84974" lon="6.88334">
        <ele>733.68</ele>
        <time>2022-06-25T18:53:52.000Z</time>
      </trkpt>
      <trkpt lat="43.84967" lon="6.88306">
        <ele>734.64</ele>
        <time>2022-06-25T18:53:58.000Z</time>
      </trkpt>
      <trkpt lat="43.84964" lon="6.88279">
        <ele>734.84</ele>
        <time>2022-06-25T18:54:03.000Z</time>
      </trkpt>
      <trkpt lat="43.84959" lon="6.88255">
        <ele>734.57</ele>
        <time>2022-06-25T18:54:08.000Z</time>
      </trkpt>
      <trkpt lat="43.84951" lon="6.88231">
        <ele>735.37</ele>
        <time>2022-06-25T18:54:13.000Z</time>
      </trkpt>
      <trkpt lat="43.84941" lon="6.88208">
        <ele>736.01</ele>
        <time>2022-06-25T18:54:18.000Z</time>
      </trkpt>
      <trkpt lat="43.84929" lon="6.88183">
        <ele>736.53</ele>
        <time>2022-06-25T18:54:24.000Z</time>
      </trkpt>
      <trkpt lat="43.84922" lon="6.88159">
        <ele>736.06</ele>
        <time>2022-06-25T18:54:29.000Z</time>
      </trkpt>
      <trkpt lat="43.84919" lon="6.88134">
        <ele>736.32</ele>
        <time>2022-06-25T18:54:34.000Z</time>
      </trkpt>
      <trkpt lat="43.84916" lon="6.88109">
        <ele>736.33</ele>
        <time>2022-06-25T18:54:39.000Z</time>
      </trkpt>
      <trkpt lat="43.84914" lon="6.88084">
        <ele>736.73</ele>
        <time>2022-06-25T18:54:44.000Z</time>
      </trkpt>
      <trkpt lat="43.84912" lon="6.88056">
        <ele>737.91</ele>
        <time>2022-06-25T18:54:50.000Z</time>
      </trkpt>
      <trkpt lat="43.84901" lon="6.88035">
        <ele>738.76</ele>
        <time>2022-06-25T18:54:55.000Z</time>
      </trkpt>
      <trkpt lat="43.84892" lon="6.88008">
        <ele>738.52</ele>
        <time>2022-06-25T18:55:01.000Z</time>
      </trkpt>
      <trkpt lat="43.84888" lon="6.87982">
        <ele>737.19</ele>
        <time>2022-06-25T18:55:07.000Z</time>
      </trkpt>
      <trkpt lat="43.84882" lon="6.87957">
        <ele>737.38</ele>
        <time>2022-06-25T18:55:13.000Z</time>
      </trkpt>
      <trkpt lat="43.84876" lon="6.87931">
        <ele>737.97</ele>
        <time>2022-06-25T18:55:19.000Z</time>
      </trkpt>
      <trkpt lat="43.8487" lon="6.87904">
        <ele>739</ele>
        <time>2022-06-25T18:55:25.000Z</time>
      </trkpt>
      <trkpt lat="43.84865" lon="6.87875">
        <ele>739.18</ele>
        <time>2022-06-25T18:55:31.000Z</time>
      </trkpt>
      <trkpt lat="43.84868" lon="6.87849">
        <ele>738.14</ele>
        <time>2022-06-25T18:55:36.000Z</time>
      </trkpt>
      <trkpt lat="43.84879" lon="6.87829">
        <ele>738.77</ele>
        <time>2022-06-25T18:55:41.000Z</time>
      </trkpt>
      <trkpt lat="43.84893" lon="6.8781">
        <ele>739.79</ele>
        <time>2022-06-25T18:55:47.000Z</time>
      </trkpt>
      <trkpt lat="43.84906" lon="6.87789">
        <ele>740.95</ele>
        <time>2022-06-25T18:55:53.000Z</time>
      </trkpt>
      <trkpt lat="43.84921" lon="6.87769">
        <ele>741.89</ele>
        <time>2022-06-25T18:55:59.000Z</time>
      </trkpt>
      <trkpt lat="43.84934" lon="6.87748">
        <ele>743.68</ele>
        <time>2022-06-25T18:56:06.000Z</time>
      </trkpt>
      <trkpt lat="43.84922" lon="6.87726">
        <ele>746.45</ele>
        <time>2022-06-25T18:56:12.000Z</time>
      </trkpt>
      <trkpt lat="43.84906" lon="6.87712">
        <ele>747.43</ele>
        <time>2022-06-25T18:56:18.000Z</time>
      </trkpt>
      <trkpt lat="43.84896" lon="6.87689">
        <ele>747.47</ele>
        <time>2022-06-25T18:56:24.000Z</time>
      </trkpt>
      <trkpt lat="43.84886" lon="6.87663">
        <ele>747.8</ele>
        <time>2022-06-25T18:56:31.000Z</time>
      </trkpt>
      <trkpt lat="43.84877" lon="6.87636">
        <ele>748.59</ele>
        <time>2022-06-25T18:56:38.000Z</time>
      </trkpt>
      <trkpt lat="43.84866" lon="6.87616">
        <ele>748.11</ele>
        <time>2022-06-25T18:56:44.000Z</time>
      </trkpt>
      <trkpt lat="43.84857" lon="6.87593">
        <ele>749.35</ele>
        <time>2022-06-25T18:56:50.000Z</time>
      </trkpt>
      <trkpt lat="43.84849" lon="6.8757">
        <ele>750.52</ele>
        <time>2022-06-25T18:56:56.000Z</time>
      </trkpt>
      <trkpt lat="43.84845" lon="6.87545">
        <ele>750.25</ele>
        <time>2022-06-25T18:57:02.000Z</time>
      </trkpt>
      <trkpt lat="43.84852" lon="6.87517">
        <ele>751.11</ele>
        <time>2022-06-25T18:57:09.000Z</time>
      </trkpt>
      <trkpt lat="43.84858" lon="6.87492">
        <ele>752.02</ele>
        <time>2022-06-25T18:57:15.000Z</time>
      </trkpt>
      <trkpt lat="43.84865" lon="6.87465">
        <ele>754.21</ele>
        <time>2022-06-25T18:57:22.000Z</time>
      </trkpt>
      <trkpt lat="43.84852" lon="6.87444">
        <ele>758.61</ele>
        <time>2022-06-25T18:57:28.000Z</time>
      </trkpt>
      <trkpt lat="43.84834" lon="6.87438">
        <ele>761.73</ele>
        <time>2022-06-25T18:57:34.000Z</time>
      </trkpt>
      <trkpt lat="43.84815" lon="6.87432">
        <ele>762.98</ele>
        <time>2022-06-25T18:57:41.000Z</time>
      </trkpt>
      <trkpt lat="43.84798" lon="6.8742">
        <ele>761.46</ele>
        <time>2022-06-25T18:57:49.000Z</time>
      </trkpt>
      <trkpt lat="43.84781" lon="6.87406">
        <ele>761.79</ele>
        <time>2022-06-25T18:57:57.000Z</time>
      </trkpt>
      <trkpt lat="43.84774" lon="6.87381">
        <ele>763.19</ele>
        <time>2022-06-25T18:58:04.000Z</time>
      </trkpt>
      <trkpt lat="43.84773" lon="6.87355">
        <ele>764.56</ele>
        <time>2022-06-25T18:58:13.000Z</time>
      </trkpt>
      <trkpt lat="43.84772" lon="6.87328">
        <ele>765.69</ele>
        <time>2022-06-25T18:58:22.000Z</time>
      </trkpt>
      <trkpt lat="43.84766" lon="6.87304">
        <ele>766.44</ele>
        <time>2022-06-25T18:58:30.000Z</time>
      </trkpt>
      <trkpt lat="43.84757" lon="6.87279">
        <ele>768.58</ele>
        <time>2022-06-25T18:58:39.000Z</time>
      </trkpt>
      <trkpt lat="43.8475" lon="6.87255">
        <ele>766.87</ele>
        <time>2022-06-25T18:58:47.000Z</time>
      </trkpt>
      <trkpt lat="43.84741" lon="6.87232">
        <ele>770.61</ele>
        <time>2022-06-25T18:58:55.000Z</time>
      </trkpt>
      <trkpt lat="43.84736" lon="6.87206">
        <ele>772.49</ele>
        <time>2022-06-25T18:59:03.000Z</time>
      </trkpt>
      <trkpt lat="43.84728" lon="6.87183">
        <ele>775.42</ele>
        <time>2022-06-25T18:59:11.000Z</time>
      </trkpt>
      <trkpt lat="43.84712" lon="6.87166">
        <ele>777.93</ele>
        <time>2022-06-25T18:59:19.000Z</time>
      </trkpt>
      <trkpt lat="43.84697" lon="6.87151">
        <ele>780.68</ele>
        <time>2022-06-25T18:59:27.000Z</time>
      </trkpt>
      <trkpt lat="43.84683" lon="6.87134">
        <ele>783.77</ele>
        <time>2022-06-25T18:59:35.000Z</time>
      </trkpt>
      <trkpt lat="43.84672" lon="6.87109">
        <ele>784.15</ele>
        <time>2022-06-25T18:59:43.000Z</time>
      </trkpt>
      <trkpt lat="43.84659" lon="6.87091">
        <ele>784.14</ele>
        <time>2022-06-25T18:59:51.000Z</time>
      </trkpt>
      <trkpt lat="43.84647" lon="6.87068">
        <ele>784.52</ele>
        <time>2022-06-25T18:59:59.000Z</time>
      </trkpt>
      <trkpt lat="43.84642" lon="6.87043">
        <ele>784.65</ele>
        <time>2022-06-25T19:00:07.000Z</time>
      </trkpt>
      <trkpt lat="43.8464" lon="6.87016">
        <ele>787.32</ele>
        <time>2022-06-25T19:00:16.000Z</time>
      </trkpt>
      <trkpt lat="43.84632" lon="6.86993">
        <ele>792.88</ele>
        <time>2022-06-25T19:00:25.000Z</time>
      </trkpt>
      <trkpt lat="43.84626" lon="6.86969">
        <ele>793.73</ele>
        <time>2022-06-25T19:00:34.000Z</time>
      </trkpt>
      <trkpt lat="43.84621" lon="6.86942">
        <ele>793.07</ele>
        <time>2022-06-25T19:00:43.000Z</time>
      </trkpt>
      <trkpt lat="43.8462" lon="6.86917">
        <ele>793.08</ele>
        <time>2022-06-25T19:00:52.000Z</time>
      </trkpt>
      <trkpt lat="43.84616" lon="6.8689">
        <ele>795.02</ele>
        <time>2022-06-25T19:01:02.000Z</time>
      </trkpt>
      <trkpt lat="43.84606" lon="6.86869">
        <ele>796.21</ele>
        <time>2022-06-25T19:01:10.000Z</time>
      </trkpt>
      <trkpt lat="43.84595" lon="6.86848">
        <ele>796.93</ele>
        <time>2022-06-25T19:01:18.000Z</time>
      </trkpt>
      <trkpt lat="43.84579" lon="6.86831">
        <ele>798.96</ele>
        <time>2022-06-25T19:01:27.000Z</time>
      </trkpt>
      <trkpt lat="43.84564" lon="6.86815">
        <ele>797.21</ele>
        <time>2022-06-25T19:01:35.000Z</time>
      </trkpt>
      <trkpt lat="43.84546" lon="6.86805">
        <ele>799.04</ele>
        <time>2022-06-25T19:01:43.000Z</time>
      </trkpt>
      <trkpt lat="43.84527" lon="6.86798">
        <ele>802.62</ele>
        <time>2022-06-25T19:01:52.000Z</time>
      </trkpt>
      <trkpt lat="43.84514" lon="6.8682">
        <ele>803.11</ele>
        <time>2022-06-25T19:02:01.000Z</time>
      </trkpt>
      <trkpt lat="43.84515" lon="6.86851">
        <ele>800.92</ele>
        <time>2022-06-25T19:02:06.000Z</time>
      </trkpt>
      <trkpt lat="43.84498" lon="6.86859">
        <ele>798.92</ele>
        <time>2022-06-25T19:02:14.000Z</time>
      </trkpt>
      <trkpt lat="43.84496" lon="6.86833">
        <ele>796.99</ele>
        <time>2022-06-25T19:02:21.000Z</time>
      </trkpt>
      <trkpt lat="43.84498" lon="6.86807">
        <ele>796.45</ele>
        <time>2022-06-25T19:02:26.000Z</time>
      </trkpt>
      <trkpt lat="43.84501" lon="6.86779">
        <ele>795.91</ele>
        <time>2022-06-25T19:02:30.000Z</time>
      </trkpt>
      <trkpt lat="43.84501" lon="6.86753">
        <ele>795.34</ele>
        <time>2022-06-25T19:02:33.000Z</time>
      </trkpt>
      <trkpt lat="43.84499" lon="6.86726">
        <ele>794.45</ele>
        <time>2022-06-25T19:02:36.000Z</time>
      </trkpt>
      <trkpt lat="43.84492" lon="6.86697">
        <ele>794.64</ele>
        <time>2022-06-25T19:02:40.000Z</time>
      </trkpt>
      <trkpt lat="43.84478" lon="6.86675">
        <ele>794.46</ele>
        <time>2022-06-25T19:02:44.000Z</time>
      </trkpt>
      <trkpt lat="43.84462" lon="6.86664">
        <ele>795.08</ele>
        <time>2022-06-25T19:02:48.000Z</time>
      </trkpt>
      <trkpt lat="43.84447" lon="6.86649">
        <ele>795.5</ele>
        <time>2022-06-25T19:02:52.000Z</time>
      </trkpt>
      <trkpt lat="43.84438" lon="6.86628">
        <ele>795.14</ele>
        <time>2022-06-25T19:02:56.000Z</time>
      </trkpt>
      <trkpt lat="43.84422" lon="6.86608">
        <ele>794.3</ele>
        <time>2022-06-25T19:03:01.000Z</time>
      </trkpt>
      <trkpt lat="43.84407" lon="6.86585">
        <ele>792.57</ele>
        <time>2022-06-25T19:03:06.000Z</time>
      </trkpt>
      <trkpt lat="43.84403" lon="6.86556">
        <ele>789.2</ele>
        <time>2022-06-25T19:03:10.000Z</time>
      </trkpt>
      <trkpt lat="43.844" lon="6.8653">
        <ele>787.44</ele>
        <time>2022-06-25T19:03:13.000Z</time>
      </trkpt>
      <trkpt lat="43.84387" lon="6.86508">
        <ele>785.52</ele>
        <time>2022-06-25T19:03:16.000Z</time>
      </trkpt>
      <trkpt lat="43.84366" lon="6.86486">
        <ele>783.92</ele>
        <time>2022-06-25T19:03:19.000Z</time>
      </trkpt>
      <trkpt lat="43.8436" lon="6.86463">
        <ele>782.81</ele>
        <time>2022-06-25T19:03:21.000Z</time>
      </trkpt>
      <trkpt lat="43.84338" lon="6.86444">
        <ele>780.21</ele>
        <time>2022-06-25T19:03:24.000Z</time>
      </trkpt>
      <trkpt lat="43.8432" lon="6.86441">
        <ele>777.06</ele>
        <time>2022-06-25T19:03:26.000Z</time>
      </trkpt>
      <trkpt lat="43.84296" lon="6.86429">
        <ele>774.06</ele>
        <time>2022-06-25T19:03:29.000Z</time>
      </trkpt>
      <trkpt lat="43.84285" lon="6.86404">
        <ele>770.55</ele>
        <time>2022-06-25T19:03:31.000Z</time>
      </trkpt>
      <trkpt lat="43.8428" lon="6.86376">
        <ele>768.09</ele>
        <time>2022-06-25T19:03:33.000Z</time>
      </trkpt>
      <trkpt lat="43.84277" lon="6.86349">
        <ele>765.67</ele>
        <time>2022-06-25T19:03:35.000Z</time>
      </trkpt>
      <trkpt lat="43.8428" lon="6.86322">
        <ele>762.92</ele>
        <time>2022-06-25T19:03:37.000Z</time>
      </trkpt>
      <trkpt lat="43.84276" lon="6.86295">
        <ele>760.66</ele>
        <time>2022-06-25T19:03:40.000Z</time>
      </trkpt>
      <trkpt lat="43.84249" lon="6.86288">
        <ele>758.53</ele>
        <time>2022-06-25T19:03:43.000Z</time>
      </trkpt>
      <trkpt lat="43.84228" lon="6.86298">
        <ele>756.95</ele>
        <time>2022-06-25T19:03:45.000Z</time>
      </trkpt>
      <trkpt lat="43.84202" lon="6.86301">
        <ele>752.92</ele>
        <time>2022-06-25T19:03:48.000Z</time>
      </trkpt>
      <trkpt lat="43.84186" lon="6.86285">
        <ele>749.73</ele>
        <time>2022-06-25T19:03:50.000Z</time>
      </trkpt>
      <trkpt lat="43.84169" lon="6.86266">
        <ele>747.96</ele>
        <time>2022-06-25T19:03:52.000Z</time>
      </trkpt>
      <trkpt lat="43.84154" lon="6.86247">
        <ele>746.09</ele>
        <time>2022-06-25T19:03:54.000Z</time>
      </trkpt>
      <trkpt lat="43.84133" lon="6.86237">
        <ele>740.98</ele>
        <time>2022-06-25T19:03:57.000Z</time>
      </trkpt>
      <trkpt lat="43.84112" lon="6.86243">
        <ele>736.77</ele>
        <time>2022-06-25T19:04:00.000Z</time>
      </trkpt>
      <trkpt lat="43.84091" lon="6.86225">
        <ele>734.59</ele>
        <time>2022-06-25T19:04:03.000Z</time>
      </trkpt>
      <trkpt lat="43.84076" lon="6.86209">
        <ele>732.72</ele>
        <time>2022-06-25T19:04:05.000Z</time>
      </trkpt>
      <trkpt lat="43.84057" lon="6.86194">
        <ele>731.05</ele>
        <time>2022-06-25T19:04:07.000Z</time>
      </trkpt>
      <trkpt lat="43.84037" lon="6.8618">
        <ele>730.19</ele>
        <time>2022-06-25T19:04:09.000Z</time>
      </trkpt>
      <trkpt lat="43.84018" lon="6.86165">
        <ele>728.64</ele>
        <time>2022-06-25T19:04:11.000Z</time>
      </trkpt>
      <trkpt lat="43.83999" lon="6.8615">
        <ele>728.08</ele>
        <time>2022-06-25T19:04:13.000Z</time>
      </trkpt>
      <trkpt lat="43.83982" lon="6.86135">
        <ele>728.39</ele>
        <time>2022-06-25T19:04:15.000Z</time>
      </trkpt>
      <trkpt lat="43.83961" lon="6.86114">
        <ele>728.74</ele>
        <time>2022-06-25T19:04:18.000Z</time>
      </trkpt>
      <trkpt lat="43.83942" lon="6.86095">
        <ele>729.38</ele>
        <time>2022-06-25T19:04:21.000Z</time>
      </trkpt>
      <trkpt lat="43.83925" lon="6.86078">
        <ele>727.94</ele>
        <time>2022-06-25T19:04:24.000Z</time>
      </trkpt>
      <trkpt lat="43.8391" lon="6.86065">
        <ele>726.12</ele>
        <time>2022-06-25T19:04:27.000Z</time>
      </trkpt>
      <trkpt lat="43.83894" lon="6.8605">
        <ele>721.46</ele>
        <time>2022-06-25T19:04:31.000Z</time>
      </trkpt>
      <trkpt lat="43.83876" lon="6.86038">
        <ele>722.43</ele>
        <time>2022-06-25T19:04:36.000Z</time>
      </trkpt>
      <trkpt lat="43.8386" lon="6.86026">
        <ele>726.68</ele>
        <time>2022-06-25T19:04:45.000Z</time>
      </trkpt>
      <trkpt lat="43.83841" lon="6.86032">
        <ele>725.47</ele>
        <time>2022-06-25T19:05:02.000Z</time>
      </trkpt>
      <trkpt lat="43.83823" lon="6.86036">
        <ele>725.93</ele>
        <time>2022-06-25T19:05:25.000Z</time>
      </trkpt>
      <trkpt lat="43.83829" lon="6.86031">
        <ele>711.95</ele>
        <time>2022-06-26T05:05:53.665Z</time>
      </trkpt>
      <trkpt lat="43.83847" lon="6.86025">
        <ele>724.05</ele>
        <time>2022-06-26T05:06:09.000Z</time>
      </trkpt>
      <trkpt lat="43.83848" lon="6.85999">
        <ele>726.81</ele>
        <time>2022-06-26T05:06:22.000Z</time>
      </trkpt>
      <trkpt lat="43.83834" lon="6.85982">
        <ele>729.02</ele>
        <time>2022-06-26T05:06:38.000Z</time>
      </trkpt>
      <trkpt lat="43.8383" lon="6.85957">
        <ele>730.23</ele>
        <time>2022-06-26T05:06:49.000Z</time>
      </trkpt>
      <trkpt lat="43.83841" lon="6.85938">
        <ele>732.36</ele>
        <time>2022-06-26T05:07:00.000Z</time>
      </trkpt>
      <trkpt lat="43.83855" lon="6.85919">
        <ele>734.43</ele>
        <time>2022-06-26T05:07:11.000Z</time>
      </trkpt>
      <trkpt lat="43.8387" lon="6.85903">
        <ele>735.74</ele>
        <time>2022-06-26T05:07:21.000Z</time>
      </trkpt>
      <trkpt lat="43.83878" lon="6.8588">
        <ele>737.32</ele>
        <time>2022-06-26T05:07:31.000Z</time>
      </trkpt>
      <trkpt lat="43.83885" lon="6.85855">
        <ele>738.44</ele>
        <time>2022-06-26T05:07:42.000Z</time>
      </trkpt>
      <trkpt lat="43.83895" lon="6.85834">
        <ele>740.32</ele>
        <time>2022-06-26T05:07:52.000Z</time>
      </trkpt>
      <trkpt lat="43.83897" lon="6.85808">
        <ele>742.48</ele>
        <time>2022-06-26T05:08:04.000Z</time>
      </trkpt>
      <trkpt lat="43.83878" lon="6.85817">
        <ele>743.71</ele>
        <time>2022-06-26T05:08:19.000Z</time>
      </trkpt>
      <trkpt lat="43.8386" lon="6.85819">
        <ele>745.78</ele>
        <time>2022-06-26T05:08:33.000Z</time>
      </trkpt>
      <trkpt lat="43.8384" lon="6.85814">
        <ele>748.08</ele>
        <time>2022-06-26T05:12:00.999Z</time>
      </trkpt>
      <trkpt lat="43.83821" lon="6.85812">
        <ele>748.73</ele>
        <time>2022-06-26T05:12:10.999Z</time>
      </trkpt>
      <trkpt lat="43.83806" lon="6.85799">
        <ele>748.42</ele>
        <time>2022-06-26T05:12:19.999Z</time>
      </trkpt>
      <trkpt lat="43.83794" lon="6.85778">
        <ele>750.06</ele>
        <time>2022-06-26T05:12:28.999Z</time>
      </trkpt>
      <trkpt lat="43.83785" lon="6.85756">
        <ele>750.94</ele>
        <time>2022-06-26T05:12:36.999Z</time>
      </trkpt>
      <trkpt lat="43.83777" lon="6.85733">
        <ele>752.67</ele>
        <time>2022-06-26T05:12:44.999Z</time>
      </trkpt>
      <trkpt lat="43.83768" lon="6.85709">
        <ele>753.92</ele>
        <time>2022-06-26T05:12:53.999Z</time>
      </trkpt>
      <trkpt lat="43.83759" lon="6.85687">
        <ele>755.13</ele>
        <time>2022-06-26T05:13:01.999Z</time>
      </trkpt>
      <trkpt lat="43.83751" lon="6.85662">
        <ele>755.69</ele>
        <time>2022-06-26T05:13:10.999Z</time>
      </trkpt>
      <trkpt lat="43.83741" lon="6.85639">
        <ele>756.56</ele>
        <time>2022-06-26T05:13:17.999Z</time>
      </trkpt>
      <trkpt lat="43.83731" lon="6.85615">
        <ele>757.66</ele>
        <time>2022-06-26T05:13:24.999Z</time>
      </trkpt>
      <trkpt lat="43.83723" lon="6.8559">
        <ele>756.96</ele>
        <time>2022-06-26T05:13:31.999Z</time>
      </trkpt>
      <trkpt lat="43.83715" lon="6.85566">
        <ele>758.13</ele>
        <time>2022-06-26T05:13:37.999Z</time>
      </trkpt>
      <trkpt lat="43.83705" lon="6.85544">
        <ele>759.41</ele>
        <time>2022-06-26T05:13:43.999Z</time>
      </trkpt>
      <trkpt lat="43.83694" lon="6.8552">
        <ele>760.32</ele>
        <time>2022-06-26T05:13:50.999Z</time>
      </trkpt>
      <trkpt lat="43.83684" lon="6.85497">
        <ele>759.9</ele>
        <time>2022-06-26T05:13:57.999Z</time>
      </trkpt>
      <trkpt lat="43.83675" lon="6.85472">
        <ele>759.67</ele>
        <time>2022-06-26T05:14:03.999Z</time>
      </trkpt>
      <trkpt lat="43.83665" lon="6.85447">
        <ele>760.88</ele>
        <time>2022-06-26T05:14:10.999Z</time>
      </trkpt>
      <trkpt lat="43.83654" lon="6.85425">
        <ele>760.98</ele>
        <time>2022-06-26T05:14:16.999Z</time>
      </trkpt>
      <trkpt lat="43.83644" lon="6.85403">
        <ele>761.23</ele>
        <time>2022-06-26T05:14:22.999Z</time>
      </trkpt>
      <trkpt lat="43.83633" lon="6.85379">
        <ele>761.53</ele>
        <time>2022-06-26T05:14:27.999Z</time>
      </trkpt>
      <trkpt lat="43.83624" lon="6.85355">
        <ele>761.52</ele>
        <time>2022-06-26T05:14:32.999Z</time>
      </trkpt>
      <trkpt lat="43.8362" lon="6.85329">
        <ele>762.33</ele>
        <time>2022-06-26T05:14:37.999Z</time>
      </trkpt>
      <trkpt lat="43.83619" lon="6.853">
        <ele>761.31</ele>
        <time>2022-06-26T05:14:42.999Z</time>
      </trkpt>
      <trkpt lat="43.83617" lon="6.85275">
        <ele>760.11</ele>
        <time>2022-06-26T05:14:47.999Z</time>
      </trkpt>
      <trkpt lat="43.83616" lon="6.85249">
        <ele>759.19</ele>
        <time>2022-06-26T05:14:52.999Z</time>
      </trkpt>
      <trkpt lat="43.83614" lon="6.85219">
        <ele>759.63</ele>
        <time>2022-06-26T05:14:57.999Z</time>
      </trkpt>
      <trkpt lat="43.83613" lon="6.85191">
        <ele>760.04</ele>
        <time>2022-06-26T05:15:02.999Z</time>
      </trkpt>
      <trkpt lat="43.83611" lon="6.85164">
        <ele>760.03</ele>
        <time>2022-06-26T05:15:07.999Z</time>
      </trkpt>
      <trkpt lat="43.8361" lon="6.85136">
        <ele>760.32</ele>
        <time>2022-06-26T05:15:12.999Z</time>
      </trkpt>
      <trkpt lat="43.83612" lon="6.85107">
        <ele>760.71</ele>
        <time>2022-06-26T05:15:17.999Z</time>
      </trkpt>
      <trkpt lat="43.83612" lon="6.8508">
        <ele>761.32</ele>
        <time>2022-06-26T05:15:22.999Z</time>
      </trkpt>
      <trkpt lat="43.83612" lon="6.85049">
        <ele>762.88</ele>
        <time>2022-06-26T05:15:28.999Z</time>
      </trkpt>
      <trkpt lat="43.83616" lon="6.85022">
        <ele>764.27</ele>
        <time>2022-06-26T05:15:35.999Z</time>
      </trkpt>
      <trkpt lat="43.83612" lon="6.84996">
        <ele>765.76</ele>
        <time>2022-06-26T05:15:43.999Z</time>
      </trkpt>
      <trkpt lat="43.83604" lon="6.84971">
        <ele>767.51</ele>
        <time>2022-06-26T05:15:53.999Z</time>
      </trkpt>
      <trkpt lat="43.83598" lon="6.84948">
        <ele>772.07</ele>
        <time>2022-06-26T05:16:02.999Z</time>
      </trkpt>
      <trkpt lat="43.83591" lon="6.84921">
        <ele>772.53</ele>
        <time>2022-06-26T05:16:12.999Z</time>
      </trkpt>
      <trkpt lat="43.83581" lon="6.84898">
        <ele>774.79</ele>
        <time>2022-06-26T05:16:21.999Z</time>
      </trkpt>
      <trkpt lat="43.83571" lon="6.84875">
        <ele>774.92</ele>
        <time>2022-06-26T05:16:30.999Z</time>
      </trkpt>
      <trkpt lat="43.83563" lon="6.84851">
        <ele>776.07</ele>
        <time>2022-06-26T05:16:39.999Z</time>
      </trkpt>
      <trkpt lat="43.83558" lon="6.84825">
        <ele>777.98</ele>
        <time>2022-06-26T05:16:48.999Z</time>
      </trkpt>
      <trkpt lat="43.83551" lon="6.848">
        <ele>779.88</ele>
        <time>2022-06-26T05:16:57.999Z</time>
      </trkpt>
      <trkpt lat="43.83545" lon="6.84776">
        <ele>783.42</ele>
        <time>2022-06-26T05:17:07.999Z</time>
      </trkpt>
      <trkpt lat="43.83537" lon="6.84753">
        <ele>784.45</ele>
        <time>2022-06-26T05:17:16.999Z</time>
      </trkpt>
      <trkpt lat="43.83529" lon="6.84727">
        <ele>785.66</ele>
        <time>2022-06-26T05:17:27.999Z</time>
      </trkpt>
      <trkpt lat="43.8353" lon="6.84702">
        <ele>786.71</ele>
        <time>2022-06-26T05:17:36.999Z</time>
      </trkpt>
      <trkpt lat="43.83536" lon="6.84679">
        <ele>787.07</ele>
        <time>2022-06-26T05:17:44.999Z</time>
      </trkpt>
      <trkpt lat="43.83526" lon="6.84656">
        <ele>787.48</ele>
        <time>2022-06-26T05:17:53.999Z</time>
      </trkpt>
      <trkpt lat="43.83517" lon="6.84634">
        <ele>787.41</ele>
        <time>2022-06-26T05:18:03.999Z</time>
      </trkpt>
      <trkpt lat="43.83513" lon="6.84609">
        <ele>791.57</ele>
        <time>2022-06-26T05:18:12.999Z</time>
      </trkpt>
      <trkpt lat="43.83513" lon="6.84584">
        <ele>793.02</ele>
        <time>2022-06-26T05:18:22.999Z</time>
      </trkpt>
      <trkpt lat="43.83512" lon="6.84559">
        <ele>794.32</ele>
        <time>2022-06-26T05:18:32.999Z</time>
      </trkpt>
      <trkpt lat="43.83509" lon="6.84534">
        <ele>796.23</ele>
        <time>2022-06-26T05:18:42.999Z</time>
      </trkpt>
      <trkpt lat="43.83506" lon="6.84508">
        <ele>798.61</ele>
        <time>2022-06-26T05:18:53.999Z</time>
      </trkpt>
      <trkpt lat="43.83504" lon="6.84481">
        <ele>800.5</ele>
        <time>2022-06-26T05:19:03.999Z</time>
      </trkpt>
      <trkpt lat="43.83512" lon="6.84457">
        <ele>801.69</ele>
        <time>2022-06-26T05:19:13.999Z</time>
      </trkpt>
      <trkpt lat="43.83517" lon="6.84432">
        <ele>803.45</ele>
        <time>2022-06-26T05:19:25.999Z</time>
      </trkpt>
      <trkpt lat="43.83505" lon="6.84413">
        <ele>805.97</ele>
        <time>2022-06-26T05:19:36.999Z</time>
      </trkpt>
      <trkpt lat="43.83495" lon="6.84391">
        <ele>807.32</ele>
        <time>2022-06-26T05:19:47.999Z</time>
      </trkpt>
      <trkpt lat="43.83489" lon="6.84366">
        <ele>807.78</ele>
        <time>2022-06-26T05:19:57.999Z</time>
      </trkpt>
      <trkpt lat="43.83483" lon="6.84342">
        <ele>809.04</ele>
        <time>2022-06-26T05:20:07.999Z</time>
      </trkpt>
      <trkpt lat="43.83468" lon="6.84325">
        <ele>806.08</ele>
        <time>2022-06-26T05:22:05.999Z</time>
      </trkpt>
      <trkpt lat="43.83454" lon="6.84306">
        <ele>806.89</ele>
        <time>2022-06-26T05:22:13.999Z</time>
      </trkpt>
      <trkpt lat="43.83441" lon="6.84285">
        <ele>807.87</ele>
        <time>2022-06-26T05:22:21.999Z</time>
      </trkpt>
      <trkpt lat="43.83429" lon="6.84265">
        <ele>809.21</ele>
        <time>2022-06-26T05:22:28.999Z</time>
      </trkpt>
      <trkpt lat="43.8342" lon="6.84243">
        <ele>810.31</ele>
        <time>2022-06-26T05:22:35.999Z</time>
      </trkpt>
      <trkpt lat="43.8341" lon="6.84221">
        <ele>810.45</ele>
        <time>2022-06-26T05:22:43.999Z</time>
      </trkpt>
      <trkpt lat="43.834" lon="6.84198">
        <ele>812.16</ele>
        <time>2022-06-26T05:22:50.999Z</time>
      </trkpt>
      <trkpt lat="43.83392" lon="6.84174">
        <ele>813</ele>
        <time>2022-06-26T05:22:59.999Z</time>
      </trkpt>
      <trkpt lat="43.8338" lon="6.84153">
        <ele>815.05</ele>
        <time>2022-06-26T05:23:06.999Z</time>
      </trkpt>
      <trkpt lat="43.83367" lon="6.84134">
        <ele>815.7</ele>
        <time>2022-06-26T05:23:13.999Z</time>
      </trkpt>
      <trkpt lat="43.83359" lon="6.84107">
        <ele>815.18</ele>
        <time>2022-06-26T05:23:19.999Z</time>
      </trkpt>
      <trkpt lat="43.83349" lon="6.84081">
        <ele>814.63</ele>
        <time>2022-06-26T05:23:25.999Z</time>
      </trkpt>
      <trkpt lat="43.83337" lon="6.84061">
        <ele>813.76</ele>
        <time>2022-06-26T05:23:30.999Z</time>
      </trkpt>
      <trkpt lat="43.83325" lon="6.84036">
        <ele>813.9</ele>
        <time>2022-06-26T05:23:36.999Z</time>
      </trkpt>
      <trkpt lat="43.83319" lon="6.8401">
        <ele>814.14</ele>
        <time>2022-06-26T05:23:41.999Z</time>
      </trkpt>
      <trkpt lat="43.83311" lon="6.83985">
        <ele>813.58</ele>
        <time>2022-06-26T05:23:46.999Z</time>
      </trkpt>
      <trkpt lat="43.83299" lon="6.83965">
        <ele>813.21</ele>
        <time>2022-06-26T05:23:50.999Z</time>
      </trkpt>
      <trkpt lat="43.83285" lon="6.83941">
        <ele>811.96</ele>
        <time>2022-06-26T05:23:54.999Z</time>
      </trkpt>
      <trkpt lat="43.83271" lon="6.83924">
        <ele>810.99</ele>
        <time>2022-06-26T05:23:57.999Z</time>
      </trkpt>
      <trkpt lat="43.83251" lon="6.8391">
        <ele>809.21</ele>
        <time>2022-06-26T05:24:00.999Z</time>
      </trkpt>
      <trkpt lat="43.83242" lon="6.8388">
        <ele>808.65</ele>
        <time>2022-06-26T05:24:03.999Z</time>
      </trkpt>
      <trkpt lat="43.83239" lon="6.83849">
        <ele>807.94</ele>
        <time>2022-06-26T05:24:06.999Z</time>
      </trkpt>
      <trkpt lat="43.83239" lon="6.83819">
        <ele>807.23</ele>
        <time>2022-06-26T05:24:09.999Z</time>
      </trkpt>
      <trkpt lat="43.83237" lon="6.83794">
        <ele>806.73</ele>
        <time>2022-06-26T05:24:12.999Z</time>
      </trkpt>
      <trkpt lat="43.83229" lon="6.83768">
        <ele>806.28</ele>
        <time>2022-06-26T05:24:16.999Z</time>
      </trkpt>
      <trkpt lat="43.8322" lon="6.83745">
        <ele>807.8</ele>
        <time>2022-06-26T05:24:22.999Z</time>
      </trkpt>
      <trkpt lat="43.83209" lon="6.83723">
        <ele>810.33</ele>
        <time>2022-06-26T05:24:29.999Z</time>
      </trkpt>
      <trkpt lat="43.83203" lon="6.83699">
        <ele>811.29</ele>
        <time>2022-06-26T05:24:36.999Z</time>
      </trkpt>
      <trkpt lat="43.83199" lon="6.83671">
        <ele>813.8</ele>
        <time>2022-06-26T05:24:44.999Z</time>
      </trkpt>
      <trkpt lat="43.83195" lon="6.83644">
        <ele>816.12</ele>
        <time>2022-06-26T05:24:52.999Z</time>
      </trkpt>
      <trkpt lat="43.83198" lon="6.83617">
        <ele>817.08</ele>
        <time>2022-06-26T05:24:59.999Z</time>
      </trkpt>
      <trkpt lat="43.83205" lon="6.83594">
        <ele>818.93</ele>
        <time>2022-06-26T05:25:06.999Z</time>
      </trkpt>
      <trkpt lat="43.83212" lon="6.83569">
        <ele>830.28</ele>
        <time>2022-06-26T05:25:14.999Z</time>
      </trkpt>
      <trkpt lat="43.83217" lon="6.83542">
        <ele>827.54</ele>
        <time>2022-06-26T05:25:22.999Z</time>
      </trkpt>
      <trkpt lat="43.83208" lon="6.83517">
        <ele>826.38</ele>
        <time>2022-06-26T05:25:30.999Z</time>
      </trkpt>
      <trkpt lat="43.83195" lon="6.83498">
        <ele>826.23</ele>
        <time>2022-06-26T05:25:39.999Z</time>
      </trkpt>
      <trkpt lat="43.83183" lon="6.83479">
        <ele>827.85</ele>
        <time>2022-06-26T05:25:48.999Z</time>
      </trkpt>
      <trkpt lat="43.83171" lon="6.83461">
        <ele>827.71</ele>
        <time>2022-06-26T05:25:56.999Z</time>
      </trkpt>
      <trkpt lat="43.8316" lon="6.83441">
        <ele>829.43</ele>
        <time>2022-06-26T05:26:05.999Z</time>
      </trkpt>
      <trkpt lat="43.8316" lon="6.83415">
        <ele>830.77</ele>
        <time>2022-06-26T05:26:14.999Z</time>
      </trkpt>
      <trkpt lat="43.83158" lon="6.83389">
        <ele>832.87</ele>
        <time>2022-06-26T05:26:23.999Z</time>
      </trkpt>
      <trkpt lat="43.83153" lon="6.83364">
        <ele>834.07</ele>
        <time>2022-06-26T05:26:32.999Z</time>
      </trkpt>
      <trkpt lat="43.83152" lon="6.83337">
        <ele>835.47</ele>
        <time>2022-06-26T05:26:41.999Z</time>
      </trkpt>
      <trkpt lat="43.83154" lon="6.8331">
        <ele>835.8</ele>
        <time>2022-06-26T05:26:50.999Z</time>
      </trkpt>
      <trkpt lat="43.83159" lon="6.83286">
        <ele>838.85</ele>
        <time>2022-06-26T05:26:58.999Z</time>
      </trkpt>
      <trkpt lat="43.83161" lon="6.8326">
        <ele>840.25</ele>
        <time>2022-06-26T05:27:07.999Z</time>
      </trkpt>
      <trkpt lat="43.83159" lon="6.83233">
        <ele>841.48</ele>
        <time>2022-06-26T05:27:15.999Z</time>
      </trkpt>
      <trkpt lat="43.83158" lon="6.83206">
        <ele>843.16</ele>
        <time>2022-06-26T05:27:24.999Z</time>
      </trkpt>
      <trkpt lat="43.83152" lon="6.83231">
        <ele>841.94</ele>
        <time>2022-06-26T05:27:34.999Z</time>
      </trkpt>
      <trkpt lat="43.83146" lon="6.83257">
        <ele>844.42</ele>
        <time>2022-06-26T05:27:43.999Z</time>
      </trkpt>
      <trkpt lat="43.83137" lon="6.83279">
        <ele>846.12</ele>
        <time>2022-06-26T05:27:52.999Z</time>
      </trkpt>
      <trkpt lat="43.83128" lon="6.83302">
        <ele>849.04</ele>
        <time>2022-06-26T05:28:00.999Z</time>
      </trkpt>
      <trkpt lat="43.83121" lon="6.83328">
        <ele>849.95</ele>
        <time>2022-06-26T05:28:10.999Z</time>
      </trkpt>
      <trkpt lat="43.83116" lon="6.83353">
        <ele>852.22</ele>
        <time>2022-06-26T05:28:19.999Z</time>
      </trkpt>
      <trkpt lat="43.83114" lon="6.8338">
        <ele>852.93</ele>
        <time>2022-06-26T05:28:28.999Z</time>
      </trkpt>
      <trkpt lat="43.83113" lon="6.83405">
        <ele>854.69</ele>
        <time>2022-06-26T05:28:37.999Z</time>
      </trkpt>
      <trkpt lat="43.83111" lon="6.83432">
        <ele>857.02</ele>
        <time>2022-06-26T05:28:47.999Z</time>
      </trkpt>
      <trkpt lat="43.83107" lon="6.83459">
        <ele>857.75</ele>
        <time>2022-06-26T05:28:56.999Z</time>
      </trkpt>
      <trkpt lat="43.831" lon="6.83484">
        <ele>858.86</ele>
        <time>2022-06-26T05:29:05.999Z</time>
      </trkpt>
      <trkpt lat="43.83088" lon="6.83506">
        <ele>859.23</ele>
        <time>2022-06-26T05:29:14.999Z</time>
      </trkpt>
      <trkpt lat="43.83073" lon="6.83524">
        <ele>861.06</ele>
        <time>2022-06-26T05:29:23.999Z</time>
      </trkpt>
      <trkpt lat="43.8306" lon="6.83546">
        <ele>863.17</ele>
        <time>2022-06-26T05:29:32.999Z</time>
      </trkpt>
      <trkpt lat="43.83055" lon="6.83571">
        <ele>864.02</ele>
        <time>2022-06-26T05:29:41.999Z</time>
      </trkpt>
      <trkpt lat="43.83047" lon="6.83594">
        <ele>865.94</ele>
        <time>2022-06-26T05:29:51.999Z</time>
      </trkpt>
      <trkpt lat="43.83039" lon="6.83569">
        <ele>867.32</ele>
        <time>2022-06-26T05:29:59.999Z</time>
      </trkpt>
      <trkpt lat="43.83038" lon="6.83543">
        <ele>868.5</ele>
        <time>2022-06-26T05:30:07.999Z</time>
      </trkpt>
      <trkpt lat="43.83036" lon="6.83516">
        <ele>869.71</ele>
        <time>2022-06-26T05:30:16.999Z</time>
      </trkpt>
      <trkpt lat="43.83031" lon="6.83491">
        <ele>872.23</ele>
        <time>2022-06-26T05:30:24.999Z</time>
      </trkpt>
      <trkpt lat="43.83025" lon="6.83467">
        <ele>873.37</ele>
        <time>2022-06-26T05:30:32.999Z</time>
      </trkpt>
      <trkpt lat="43.83019" lon="6.83443">
        <ele>873.76</ele>
        <time>2022-06-26T05:30:40.999Z</time>
      </trkpt>
      <trkpt lat="43.83012" lon="6.83421">
        <ele>875.54</ele>
        <time>2022-06-26T05:30:48.999Z</time>
      </trkpt>
      <trkpt lat="43.83006" lon="6.83397">
        <ele>876.84</ele>
        <time>2022-06-26T05:30:55.999Z</time>
      </trkpt>
      <trkpt lat="43.83002" lon="6.8337">
        <ele>877.92</ele>
        <time>2022-06-26T05:31:03.999Z</time>
      </trkpt>
      <trkpt lat="43.83002" lon="6.83345">
        <ele>878.92</ele>
        <time>2022-06-26T05:31:11.999Z</time>
      </trkpt>
      <trkpt lat="43.82999" lon="6.83317">
        <ele>880.51</ele>
        <time>2022-06-26T05:31:20.999Z</time>
      </trkpt>
      <trkpt lat="43.82993" lon="6.83291">
        <ele>880.22</ele>
        <time>2022-06-26T05:31:28.999Z</time>
      </trkpt>
      <trkpt lat="43.82985" lon="6.83266">
        <ele>883.71</ele>
        <time>2022-06-26T05:31:37.999Z</time>
      </trkpt>
      <trkpt lat="43.8298" lon="6.83241">
        <ele>885.24</ele>
        <time>2022-06-26T05:31:45.999Z</time>
      </trkpt>
      <trkpt lat="43.82983" lon="6.83214">
        <ele>886.62</ele>
        <time>2022-06-26T05:31:53.999Z</time>
      </trkpt>
      <trkpt lat="43.82986" lon="6.83187">
        <ele>888.18</ele>
        <time>2022-06-26T05:32:01.999Z</time>
      </trkpt>
      <trkpt lat="43.82982" lon="6.83162">
        <ele>888.58</ele>
        <time>2022-06-26T05:32:09.999Z</time>
      </trkpt>
      <trkpt lat="43.82977" lon="6.83138">
        <ele>889.34</ele>
        <time>2022-06-26T05:32:17.999Z</time>
      </trkpt>
      <trkpt lat="43.8297" lon="6.83114">
        <ele>890.82</ele>
        <time>2022-06-26T05:32:25.999Z</time>
      </trkpt>
      <trkpt lat="43.8296" lon="6.8309">
        <ele>892.16</ele>
        <time>2022-06-26T05:32:34.999Z</time>
      </trkpt>
      <trkpt lat="43.82951" lon="6.83068">
        <ele>893.23</ele>
        <time>2022-06-26T05:32:42.999Z</time>
      </trkpt>
      <trkpt lat="43.8294" lon="6.83048">
        <ele>894.74</ele>
        <time>2022-06-26T05:32:50.999Z</time>
      </trkpt>
      <trkpt lat="43.82927" lon="6.8303">
        <ele>897</ele>
        <time>2022-06-26T05:32:58.999Z</time>
      </trkpt>
      <trkpt lat="43.82913" lon="6.8301">
        <ele>898.85</ele>
        <time>2022-06-26T05:33:07.999Z</time>
      </trkpt>
      <trkpt lat="43.82902" lon="6.8299">
        <ele>900.48</ele>
        <time>2022-06-26T05:33:15.999Z</time>
      </trkpt>
      <trkpt lat="43.82903" lon="6.82965">
        <ele>900.13</ele>
        <time>2022-06-26T05:33:23.999Z</time>
      </trkpt>
      <trkpt lat="43.82913" lon="6.82941">
        <ele>901.27</ele>
        <time>2022-06-26T05:33:32.999Z</time>
      </trkpt>
      <trkpt lat="43.82914" lon="6.82913">
        <ele>902.64</ele>
        <time>2022-06-26T05:33:41.999Z</time>
      </trkpt>
      <trkpt lat="43.82918" lon="6.82888">
        <ele>905.26</ele>
        <time>2022-06-26T05:33:49.999Z</time>
      </trkpt>
      <trkpt lat="43.82923" lon="6.82863">
        <ele>906.16</ele>
        <time>2022-06-26T05:33:57.999Z</time>
      </trkpt>
      <trkpt lat="43.82919" lon="6.82838">
        <ele>908.03</ele>
        <time>2022-06-26T05:34:05.999Z</time>
      </trkpt>
      <trkpt lat="43.82912" lon="6.82813">
        <ele>908.4</ele>
        <time>2022-06-26T05:34:13.999Z</time>
      </trkpt>
      <trkpt lat="43.82907" lon="6.82789">
        <ele>909.15</ele>
        <time>2022-06-26T05:34:21.999Z</time>
      </trkpt>
      <trkpt lat="43.829" lon="6.82764">
        <ele>911.07</ele>
        <time>2022-06-26T05:34:30.999Z</time>
      </trkpt>
      <trkpt lat="43.82892" lon="6.8274">
        <ele>912.17</ele>
        <time>2022-06-26T05:34:38.999Z</time>
      </trkpt>
      <trkpt lat="43.82882" lon="6.82717">
        <ele>913.33</ele>
        <time>2022-06-26T05:34:46.999Z</time>
      </trkpt>
      <trkpt lat="43.82875" lon="6.82694">
        <ele>914.87</ele>
        <time>2022-06-26T05:34:54.999Z</time>
      </trkpt>
      <trkpt lat="43.82871" lon="6.82667">
        <ele>916.65</ele>
        <time>2022-06-26T05:35:02.999Z</time>
      </trkpt>
      <trkpt lat="43.8288" lon="6.82642">
        <ele>917.67</ele>
        <time>2022-06-26T05:35:10.999Z</time>
      </trkpt>
      <trkpt lat="43.82888" lon="6.82617">
        <ele>917.72</ele>
        <time>2022-06-26T05:35:18.999Z</time>
      </trkpt>
      <trkpt lat="43.82894" lon="6.82592">
        <ele>918.41</ele>
        <time>2022-06-26T05:35:26.999Z</time>
      </trkpt>
      <trkpt lat="43.82904" lon="6.82569">
        <ele>919.02</ele>
        <time>2022-06-26T05:35:34.999Z</time>
      </trkpt>
      <trkpt lat="43.82893" lon="6.82546">
        <ele>920.5</ele>
        <time>2022-06-26T05:35:45.999Z</time>
      </trkpt>
      <trkpt lat="43.82876" lon="6.82535">
        <ele>922.45</ele>
        <time>2022-06-26T05:35:54.999Z</time>
      </trkpt>
      <trkpt lat="43.82858" lon="6.8253">
        <ele>923.44</ele>
        <time>2022-06-26T05:36:04.999Z</time>
      </trkpt>
      <trkpt lat="43.8284" lon="6.82528">
        <ele>924.36</ele>
        <time>2022-06-26T05:36:12.999Z</time>
      </trkpt>
      <trkpt lat="43.82821" lon="6.82525">
        <ele>925.41</ele>
        <time>2022-06-26T05:36:20.999Z</time>
      </trkpt>
      <trkpt lat="43.82804" lon="6.82509">
        <ele>926.86</ele>
        <time>2022-06-26T05:36:28.999Z</time>
      </trkpt>
      <trkpt lat="43.82791" lon="6.82491">
        <ele>928.94</ele>
        <time>2022-06-26T05:36:36.999Z</time>
      </trkpt>
      <trkpt lat="43.8278" lon="6.82469">
        <ele>931.28</ele>
        <time>2022-06-26T05:36:45.999Z</time>
      </trkpt>
      <trkpt lat="43.82775" lon="6.82442">
        <ele>933.06</ele>
        <time>2022-06-26T05:36:54.999Z</time>
      </trkpt>
      <trkpt lat="43.82771" lon="6.82417">
        <ele>933.85</ele>
        <time>2022-06-26T05:37:02.999Z</time>
      </trkpt>
      <trkpt lat="43.82769" lon="6.82391">
        <ele>935.55</ele>
        <time>2022-06-26T05:37:10.999Z</time>
      </trkpt>
      <trkpt lat="43.82765" lon="6.82365">
        <ele>937.09</ele>
        <time>2022-06-26T05:37:19.999Z</time>
      </trkpt>
      <trkpt lat="43.82757" lon="6.82342">
        <ele>937.87</ele>
        <time>2022-06-26T05:37:27.999Z</time>
      </trkpt>
      <trkpt lat="43.82748" lon="6.82318">
        <ele>939.69</ele>
        <time>2022-06-26T05:37:36.999Z</time>
      </trkpt>
      <trkpt lat="43.82741" lon="6.82292">
        <ele>941.58</ele>
        <time>2022-06-26T05:37:45.999Z</time>
      </trkpt>
      <trkpt lat="43.8273" lon="6.82271">
        <ele>943.44</ele>
        <time>2022-06-26T05:37:54.999Z</time>
      </trkpt>
      <trkpt lat="43.82719" lon="6.82249">
        <ele>943.83</ele>
        <time>2022-06-26T05:38:03.999Z</time>
      </trkpt>
      <trkpt lat="43.82708" lon="6.82228">
        <ele>944.12</ele>
        <time>2022-06-26T05:38:13.999Z</time>
      </trkpt>
      <trkpt lat="43.82693" lon="6.82211">
        <ele>944.51</ele>
        <time>2022-06-26T05:38:23.999Z</time>
      </trkpt>
      <trkpt lat="43.8268" lon="6.82192">
        <ele>945.19</ele>
        <time>2022-06-26T05:38:31.999Z</time>
      </trkpt>
      <trkpt lat="43.82676" lon="6.82167">
        <ele>945.26</ele>
        <time>2022-06-26T05:38:37.999Z</time>
      </trkpt>
      <trkpt lat="43.82684" lon="6.82144">
        <ele>946.56</ele>
        <time>2022-06-26T05:38:45.999Z</time>
      </trkpt>
      <trkpt lat="43.82702" lon="6.8214">
        <ele>947.54</ele>
        <time>2022-06-26T05:38:52.999Z</time>
      </trkpt>
      <trkpt lat="43.8272" lon="6.82153">
        <ele>947.31</ele>
        <time>2022-06-26T05:38:59.999Z</time>
      </trkpt>
      <trkpt lat="43.82738" lon="6.82154">
        <ele>947.75</ele>
        <time>2022-06-26T05:39:07.999Z</time>
      </trkpt>
      <trkpt lat="43.82755" lon="6.82142">
        <ele>951.03</ele>
        <time>2022-06-26T05:39:16.999Z</time>
      </trkpt>
      <trkpt lat="43.82771" lon="6.82157">
        <ele>952.75</ele>
        <time>2022-06-26T05:39:24.999Z</time>
      </trkpt>
      <trkpt lat="43.8278" lon="6.8218">
        <ele>953.84</ele>
        <time>2022-06-26T05:39:33.999Z</time>
      </trkpt>
      <trkpt lat="43.82791" lon="6.82159">
        <ele>955.86</ele>
        <time>2022-06-26T05:39:43.999Z</time>
      </trkpt>
      <trkpt lat="43.82797" lon="6.82134">
        <ele>958.18</ele>
        <time>2022-06-26T05:39:53.999Z</time>
      </trkpt>
      <trkpt lat="43.82812" lon="6.82117">
        <ele>960.25</ele>
        <time>2022-06-26T05:40:03.999Z</time>
      </trkpt>
      <trkpt lat="43.8283" lon="6.82113">
        <ele>960.83</ele>
        <time>2022-06-26T05:40:12.999Z</time>
      </trkpt>
      <trkpt lat="43.82851" lon="6.82112">
        <ele>962.43</ele>
        <time>2022-06-26T05:40:22.999Z</time>
      </trkpt>
      <trkpt lat="43.82869" lon="6.82108">
        <ele>962.98</ele>
        <time>2022-06-26T05:40:31.999Z</time>
      </trkpt>
      <trkpt lat="43.82875" lon="6.82083">
        <ele>965.28</ele>
        <time>2022-06-26T05:40:41.999Z</time>
      </trkpt>
      <trkpt lat="43.82873" lon="6.82056">
        <ele>967.09</ele>
        <time>2022-06-26T05:40:52.000Z</time>
      </trkpt>
      <trkpt lat="43.8288" lon="6.8203">
        <ele>968.75</ele>
        <time>2022-06-26T05:41:02.000Z</time>
      </trkpt>
      <trkpt lat="43.8289" lon="6.82007">
        <ele>970.96</ele>
        <time>2022-06-26T05:41:12.000Z</time>
      </trkpt>
      <trkpt lat="43.82896" lon="6.81981">
        <ele>972.32</ele>
        <time>2022-06-26T05:41:22.000Z</time>
      </trkpt>
      <trkpt lat="43.829" lon="6.81955">
        <ele>974.44</ele>
        <time>2022-06-26T05:41:32.000Z</time>
      </trkpt>
      <trkpt lat="43.82906" lon="6.8193">
        <ele>976.68</ele>
        <time>2022-06-26T05:41:41.000Z</time>
      </trkpt>
      <trkpt lat="43.82917" lon="6.81907">
        <ele>978.85</ele>
        <time>2022-06-26T05:41:50.000Z</time>
      </trkpt>
      <trkpt lat="43.82928" lon="6.81887">
        <ele>979.97</ele>
        <time>2022-06-26T05:41:59.000Z</time>
      </trkpt>
      <trkpt lat="43.8294" lon="6.81867">
        <ele>982.77</ele>
        <time>2022-06-26T05:42:08.000Z</time>
      </trkpt>
      <trkpt lat="43.82957" lon="6.81854">
        <ele>986.39</ele>
        <time>2022-06-26T05:42:17.000Z</time>
      </trkpt>
      <trkpt lat="43.82974" lon="6.81844">
        <ele>986.92</ele>
        <time>2022-06-26T05:42:25.000Z</time>
      </trkpt>
      <trkpt lat="43.82958" lon="6.81834">
        <ele>986.02</ele>
        <time>2022-06-26T05:42:42.000Z</time>
      </trkpt>
      <trkpt lat="43.82941" lon="6.81843">
        <ele>990.5</ele>
        <time>2022-06-26T05:42:51.000Z</time>
      </trkpt>
      <trkpt lat="43.82923" lon="6.8184">
        <ele>992.59</ele>
        <time>2022-06-26T05:42:59.000Z</time>
      </trkpt>
      <trkpt lat="43.82907" lon="6.81854">
        <ele>991.84</ele>
        <time>2022-06-26T05:43:10.000Z</time>
      </trkpt>
      <trkpt lat="43.82889" lon="6.81866">
        <ele>992.69</ele>
        <time>2022-06-26T05:43:20.000Z</time>
      </trkpt>
      <trkpt lat="43.82874" lon="6.81881">
        <ele>994.04</ele>
        <time>2022-06-26T05:43:30.000Z</time>
      </trkpt>
      <trkpt lat="43.82859" lon="6.81898">
        <ele>995.97</ele>
        <time>2022-06-26T05:43:40.000Z</time>
      </trkpt>
      <trkpt lat="43.82848" lon="6.81917">
        <ele>999.06</ele>
        <time>2022-06-26T05:43:49.000Z</time>
      </trkpt>
      <trkpt lat="43.8284" lon="6.8194">
        <ele>999.75</ele>
        <time>2022-06-26T05:43:58.000Z</time>
      </trkpt>
      <trkpt lat="43.8283" lon="6.81963">
        <ele>1001.13</ele>
        <time>2022-06-26T05:44:07.000Z</time>
      </trkpt>
      <trkpt lat="43.82824" lon="6.81987">
        <ele>1002.65</ele>
        <time>2022-06-26T05:44:16.000Z</time>
      </trkpt>
      <trkpt lat="43.82818" lon="6.81962">
        <ele>1002.36</ele>
        <time>2022-06-26T05:44:33.000Z</time>
      </trkpt>
      <trkpt lat="43.82823" lon="6.81936">
        <ele>1003.96</ele>
        <time>2022-06-26T05:44:43.000Z</time>
      </trkpt>
      <trkpt lat="43.82825" lon="6.81909">
        <ele>1006.85</ele>
        <time>2022-06-26T05:44:54.000Z</time>
      </trkpt>
      <trkpt lat="43.82831" lon="6.81885">
        <ele>1009.81</ele>
        <time>2022-06-26T05:45:03.000Z</time>
      </trkpt>
      <trkpt lat="43.8284" lon="6.81863">
        <ele>1010.95</ele>
        <time>2022-06-26T05:45:12.000Z</time>
      </trkpt>
      <trkpt lat="43.82848" lon="6.81839">
        <ele>1012.27</ele>
        <time>2022-06-26T05:45:22.000Z</time>
      </trkpt>
      <trkpt lat="43.82855" lon="6.81814">
        <ele>1013.63</ele>
        <time>2022-06-26T05:45:32.000Z</time>
      </trkpt>
      <trkpt lat="43.82862" lon="6.8179">
        <ele>1015</ele>
        <time>2022-06-26T05:45:41.000Z</time>
      </trkpt>
      <trkpt lat="43.82874" lon="6.81771">
        <ele>1016.51</ele>
        <time>2022-06-26T05:45:50.000Z</time>
      </trkpt>
      <trkpt lat="43.82887" lon="6.81751">
        <ele>1016.97</ele>
        <time>2022-06-26T05:46:00.000Z</time>
      </trkpt>
      <trkpt lat="43.82896" lon="6.81728">
        <ele>1017.54</ele>
        <time>2022-06-26T05:46:10.000Z</time>
      </trkpt>
      <trkpt lat="43.82905" lon="6.81705">
        <ele>1019.54</ele>
        <time>2022-06-26T05:46:20.000Z</time>
      </trkpt>
      <trkpt lat="43.82915" lon="6.81682">
        <ele>1021.75</ele>
        <time>2022-06-26T05:46:30.000Z</time>
      </trkpt>
      <trkpt lat="43.82929" lon="6.81662">
        <ele>1024.08</ele>
        <time>2022-06-26T05:46:40.000Z</time>
      </trkpt>
      <trkpt lat="43.82944" lon="6.81647">
        <ele>1025.74</ele>
        <time>2022-06-26T05:46:50.000Z</time>
      </trkpt>
      <trkpt lat="43.8296" lon="6.81635">
        <ele>1028.88</ele>
        <time>2022-06-26T05:46:59.000Z</time>
      </trkpt>
      <trkpt lat="43.82977" lon="6.81622">
        <ele>1029.35</ele>
        <time>2022-06-26T05:47:09.000Z</time>
      </trkpt>
      <trkpt lat="43.82994" lon="6.81612">
        <ele>1029.91</ele>
        <time>2022-06-26T05:47:18.000Z</time>
      </trkpt>
      <trkpt lat="43.83011" lon="6.81605">
        <ele>1032.08</ele>
        <time>2022-06-26T05:47:28.000Z</time>
      </trkpt>
      <trkpt lat="43.83031" lon="6.81598">
        <ele>1033.36</ele>
        <time>2022-06-26T05:47:37.000Z</time>
      </trkpt>
      <trkpt lat="43.8305" lon="6.81602">
        <ele>1035.29</ele>
        <time>2022-06-26T05:47:46.000Z</time>
      </trkpt>
      <trkpt lat="43.83032" lon="6.81592">
        <ele>1034.38</ele>
        <time>2022-06-26T05:48:03.000Z</time>
      </trkpt>
      <trkpt lat="43.83014" lon="6.81591">
        <ele>1035.29</ele>
        <time>2022-06-26T05:48:12.000Z</time>
      </trkpt>
      <trkpt lat="43.82996" lon="6.81589">
        <ele>1036.01</ele>
        <time>2022-06-26T05:48:21.000Z</time>
      </trkpt>
      <trkpt lat="43.82977" lon="6.81584">
        <ele>1038.07</ele>
        <time>2022-06-26T05:48:30.000Z</time>
      </trkpt>
      <trkpt lat="43.82959" lon="6.81581">
        <ele>1039.51</ele>
        <time>2022-06-26T05:48:39.000Z</time>
      </trkpt>
      <trkpt lat="43.82939" lon="6.81583">
        <ele>1040.3</ele>
        <time>2022-06-26T05:48:49.000Z</time>
      </trkpt>
      <trkpt lat="43.82922" lon="6.81587">
        <ele>1042.38</ele>
        <time>2022-06-26T05:48:58.000Z</time>
      </trkpt>
      <trkpt lat="43.82904" lon="6.81592">
        <ele>1044.3</ele>
        <time>2022-06-26T05:49:07.000Z</time>
      </trkpt>
      <trkpt lat="43.82885" lon="6.81601">
        <ele>1046.56</ele>
        <time>2022-06-26T05:49:17.000Z</time>
      </trkpt>
      <trkpt lat="43.82869" lon="6.81614">
        <ele>1048.92</ele>
        <time>2022-06-26T05:49:26.000Z</time>
      </trkpt>
      <trkpt lat="43.82856" lon="6.81634">
        <ele>1051.09</ele>
        <time>2022-06-26T05:49:36.000Z</time>
      </trkpt>
      <trkpt lat="43.82844" lon="6.81655">
        <ele>1052.59</ele>
        <time>2022-06-26T05:49:46.000Z</time>
      </trkpt>
      <trkpt lat="43.82832" lon="6.81677">
        <ele>1054.33</ele>
        <time>2022-06-26T05:49:56.000Z</time>
      </trkpt>
      <trkpt lat="43.82817" lon="6.8166">
        <ele>1054.97</ele>
        <time>2022-06-26T05:50:07.000Z</time>
      </trkpt>
      <trkpt lat="43.82819" lon="6.81634">
        <ele>1056.52</ele>
        <time>2022-06-26T05:50:18.000Z</time>
      </trkpt>
      <trkpt lat="43.82822" lon="6.81608">
        <ele>1057.48</ele>
        <time>2022-06-26T05:50:30.000Z</time>
      </trkpt>
      <trkpt lat="43.82824" lon="6.81583">
        <ele>1056.95</ele>
        <time>2022-06-26T05:50:40.000Z</time>
      </trkpt>
      <trkpt lat="43.82821" lon="6.81557">
        <ele>1058.46</ele>
        <time>2022-06-26T05:50:50.000Z</time>
      </trkpt>
      <trkpt lat="43.82813" lon="6.81533">
        <ele>1060.94</ele>
        <time>2022-06-26T05:51:00.000Z</time>
      </trkpt>
      <trkpt lat="43.82821" lon="6.81509">
        <ele>1063.16</ele>
        <time>2022-06-26T05:51:10.000Z</time>
      </trkpt>
      <trkpt lat="43.82835" lon="6.8149">
        <ele>1066.46</ele>
        <time>2022-06-26T05:51:20.000Z</time>
      </trkpt>
      <trkpt lat="43.82849" lon="6.81476">
        <ele>1068.87</ele>
        <time>2022-06-26T05:51:30.000Z</time>
      </trkpt>
      <trkpt lat="43.82864" lon="6.81459">
        <ele>1069.64</ele>
        <time>2022-06-26T05:51:39.000Z</time>
      </trkpt>
      <trkpt lat="43.82878" lon="6.81441">
        <ele>1071.94</ele>
        <time>2022-06-26T05:51:49.000Z</time>
      </trkpt>
      <trkpt lat="43.82893" lon="6.81423">
        <ele>1073.84</ele>
        <time>2022-06-26T05:51:59.000Z</time>
      </trkpt>
      <trkpt lat="43.82906" lon="6.81403">
        <ele>1074.17</ele>
        <time>2022-06-26T05:52:09.000Z</time>
      </trkpt>
      <trkpt lat="43.82918" lon="6.8138">
        <ele>1075.68</ele>
        <time>2022-06-26T05:52:19.000Z</time>
      </trkpt>
      <trkpt lat="43.8293" lon="6.81359">
        <ele>1078.09</ele>
        <time>2022-06-26T05:52:29.000Z</time>
      </trkpt>
      <trkpt lat="43.82939" lon="6.81335">
        <ele>1079.64</ele>
        <time>2022-06-26T05:52:39.000Z</time>
      </trkpt>
      <trkpt lat="43.82944" lon="6.8131">
        <ele>1079.96</ele>
        <time>2022-06-26T05:52:49.000Z</time>
      </trkpt>
      <trkpt lat="43.82948" lon="6.81285">
        <ele>1079.85</ele>
        <time>2022-06-26T05:52:59.000Z</time>
      </trkpt>
      <trkpt lat="43.82953" lon="6.8126">
        <ele>1080.4</ele>
        <time>2022-06-26T05:53:08.000Z</time>
      </trkpt>
      <trkpt lat="43.82956" lon="6.81234">
        <ele>1082.31</ele>
        <time>2022-06-26T05:53:17.000Z</time>
      </trkpt>
      <trkpt lat="43.82959" lon="6.81209">
        <ele>1083.57</ele>
        <time>2022-06-26T05:53:26.000Z</time>
      </trkpt>
      <trkpt lat="43.82962" lon="6.81182">
        <ele>1084.67</ele>
        <time>2022-06-26T05:53:35.000Z</time>
      </trkpt>
      <trkpt lat="43.82966" lon="6.81157">
        <ele>1086.89</ele>
        <time>2022-06-26T05:53:43.000Z</time>
      </trkpt>
      <trkpt lat="43.82967" lon="6.81132">
        <ele>1089.91</ele>
        <time>2022-06-26T05:53:52.000Z</time>
      </trkpt>
      <trkpt lat="43.82973" lon="6.81108">
        <ele>1092.6</ele>
        <time>2022-06-26T05:54:01.000Z</time>
      </trkpt>
      <trkpt lat="43.82964" lon="6.81087">
        <ele>1091.76</ele>
        <time>2022-06-26T05:54:13.000Z</time>
      </trkpt>
      <trkpt lat="43.82947" lon="6.81097">
        <ele>1091.57</ele>
        <time>2022-06-26T05:54:20.000Z</time>
      </trkpt>
      <trkpt lat="43.8293" lon="6.81106">
        <ele>1092.33</ele>
        <time>2022-06-26T05:54:28.000Z</time>
      </trkpt>
      <trkpt lat="43.82913" lon="6.81122">
        <ele>1093.82</ele>
        <time>2022-06-26T05:54:37.000Z</time>
      </trkpt>
      <trkpt lat="43.82895" lon="6.81132">
        <ele>1094.3</ele>
        <time>2022-06-26T05:54:46.000Z</time>
      </trkpt>
      <trkpt lat="43.82878" lon="6.81146">
        <ele>1095.81</ele>
        <time>2022-06-26T05:54:55.000Z</time>
      </trkpt>
      <trkpt lat="43.82861" lon="6.8116">
        <ele>1097.76</ele>
        <time>2022-06-26T05:55:04.000Z</time>
      </trkpt>
      <trkpt lat="43.82843" lon="6.81169">
        <ele>1099.88</ele>
        <time>2022-06-26T05:55:12.000Z</time>
      </trkpt>
      <trkpt lat="43.82826" lon="6.81155">
        <ele>1102</ele>
        <time>2022-06-26T05:55:21.000Z</time>
      </trkpt>
      <trkpt lat="43.82822" lon="6.8113">
        <ele>1102.96</ele>
        <time>2022-06-26T05:55:30.000Z</time>
      </trkpt>
      <trkpt lat="43.82819" lon="6.81104">
        <ele>1105.63</ele>
        <time>2022-06-26T05:55:41.000Z</time>
      </trkpt>
      <trkpt lat="43.82812" lon="6.81081">
        <ele>1106.9</ele>
        <time>2022-06-26T05:55:50.000Z</time>
      </trkpt>
      <trkpt lat="43.82802" lon="6.81058">
        <ele>1109.41</ele>
        <time>2022-06-26T05:56:00.000Z</time>
      </trkpt>
      <trkpt lat="43.82799" lon="6.81033">
        <ele>1109.42</ele>
        <time>2022-06-26T05:56:08.000Z</time>
      </trkpt>
      <trkpt lat="43.82796" lon="6.81007">
        <ele>1110.11</ele>
        <time>2022-06-26T05:56:18.000Z</time>
      </trkpt>
      <trkpt lat="43.82796" lon="6.8098">
        <ele>1112.83</ele>
        <time>2022-06-26T05:56:27.000Z</time>
      </trkpt>
      <trkpt lat="43.82796" lon="6.80955">
        <ele>1114.65</ele>
        <time>2022-06-26T05:56:36.000Z</time>
      </trkpt>
      <trkpt lat="43.82798" lon="6.80929">
        <ele>1116.61</ele>
        <time>2022-06-26T05:56:45.000Z</time>
      </trkpt>
      <trkpt lat="43.8281" lon="6.80908">
        <ele>1118.59</ele>
        <time>2022-06-26T05:56:55.000Z</time>
      </trkpt>
      <trkpt lat="43.82824" lon="6.80892">
        <ele>1120.39</ele>
        <time>2022-06-26T05:57:04.000Z</time>
      </trkpt>
      <trkpt lat="43.82831" lon="6.80867">
        <ele>1120.59</ele>
        <time>2022-06-26T05:57:13.000Z</time>
      </trkpt>
      <trkpt lat="43.82819" lon="6.80847">
        <ele>1121.91</ele>
        <time>2022-06-26T05:57:21.000Z</time>
      </trkpt>
      <trkpt lat="43.82804" lon="6.80831">
        <ele>1122.09</ele>
        <time>2022-06-26T05:57:30.000Z</time>
      </trkpt>
      <trkpt lat="43.82792" lon="6.80808">
        <ele>1122.42</ele>
        <time>2022-06-26T05:57:39.000Z</time>
      </trkpt>
      <trkpt lat="43.82784" lon="6.80782">
        <ele>1125.12</ele>
        <time>2022-06-26T05:57:48.000Z</time>
      </trkpt>
      <trkpt lat="43.82783" lon="6.80756">
        <ele>1126.02</ele>
        <time>2022-06-26T05:57:57.000Z</time>
      </trkpt>
      <trkpt lat="43.82784" lon="6.8073">
        <ele>1127.99</ele>
        <time>2022-06-26T05:58:06.000Z</time>
      </trkpt>
      <trkpt lat="43.82785" lon="6.80705">
        <ele>1135.77</ele>
        <time>2022-06-26T05:58:57.000Z</time>
      </trkpt>
      <trkpt lat="43.82793" lon="6.80681">
        <ele>1138.91</ele>
        <time>2022-06-26T05:59:46.000Z</time>
      </trkpt>
      <trkpt lat="43.82797" lon="6.80655">
        <ele>1137.09</ele>
        <time>2022-06-26T05:59:56.000Z</time>
      </trkpt>
      <trkpt lat="43.82803" lon="6.8063">
        <ele>1137.39</ele>
        <time>2022-06-26T06:00:06.000Z</time>
      </trkpt>
      <trkpt lat="43.82813" lon="6.80605">
        <ele>1137.95</ele>
        <time>2022-06-26T06:00:16.000Z</time>
      </trkpt>
      <trkpt lat="43.82802" lon="6.80581">
        <ele>1136.65</ele>
        <time>2022-06-26T06:00:25.000Z</time>
      </trkpt>
      <trkpt lat="43.82788" lon="6.80566">
        <ele>1136.39</ele>
        <time>2022-06-26T06:00:33.000Z</time>
      </trkpt>
      <trkpt lat="43.82769" lon="6.80557">
        <ele>1136.03</ele>
        <time>2022-06-26T06:00:42.000Z</time>
      </trkpt>
      <trkpt lat="43.82751" lon="6.80552">
        <ele>1137.33</ele>
        <time>2022-06-26T06:00:53.000Z</time>
      </trkpt>
      <trkpt lat="43.8274" lon="6.80532">
        <ele>1138.47</ele>
        <time>2022-06-26T06:01:03.000Z</time>
      </trkpt>
      <trkpt lat="43.82738" lon="6.80507">
        <ele>1139.3</ele>
        <time>2022-06-26T06:01:11.000Z</time>
      </trkpt>
      <trkpt lat="43.82734" lon="6.80481">
        <ele>1142.41</ele>
        <time>2022-06-26T06:01:21.000Z</time>
      </trkpt>
      <trkpt lat="43.8275" lon="6.80494">
        <ele>1141.71</ele>
        <time>2022-06-26T06:01:38.000Z</time>
      </trkpt>
      <trkpt lat="43.82765" lon="6.80512">
        <ele>1142.61</ele>
        <time>2022-06-26T06:01:48.000Z</time>
      </trkpt>
      <trkpt lat="43.82783" lon="6.80523">
        <ele>1143.09</ele>
        <time>2022-06-26T06:01:59.000Z</time>
      </trkpt>
      <trkpt lat="43.82801" lon="6.80533">
        <ele>1147.31</ele>
        <time>2022-06-26T06:02:34.000Z</time>
      </trkpt>
      <trkpt lat="43.82818" lon="6.8054">
        <ele>1148.15</ele>
        <time>2022-06-26T06:02:44.000Z</time>
      </trkpt>
      <trkpt lat="43.82836" lon="6.80547">
        <ele>1148.24</ele>
        <time>2022-06-26T06:02:54.000Z</time>
      </trkpt>
      <trkpt lat="43.82854" lon="6.80556">
        <ele>1150.22</ele>
        <time>2022-06-26T06:04:05.000Z</time>
      </trkpt>
      <trkpt lat="43.82868" lon="6.80575">
        <ele>1151.41</ele>
        <time>2022-06-26T06:04:16.000Z</time>
      </trkpt>
      <trkpt lat="43.82879" lon="6.80596">
        <ele>1152.34</ele>
        <time>2022-06-26T06:04:26.000Z</time>
      </trkpt>
      <trkpt lat="43.82887" lon="6.80619">
        <ele>1152.72</ele>
        <time>2022-06-26T06:04:36.000Z</time>
      </trkpt>
      <trkpt lat="43.82897" lon="6.8064">
        <ele>1154.23</ele>
        <time>2022-06-26T06:04:47.000Z</time>
      </trkpt>
      <trkpt lat="43.82916" lon="6.80644">
        <ele>1158.19</ele>
        <time>2022-06-26T06:04:59.000Z</time>
      </trkpt>
      <trkpt lat="43.82934" lon="6.80652">
        <ele>1158.24</ele>
        <time>2022-06-26T06:05:10.000Z</time>
      </trkpt>
      <trkpt lat="43.82944" lon="6.80673">
        <ele>1158.86</ele>
        <time>2022-06-26T06:05:20.000Z</time>
      </trkpt>
      <trkpt lat="43.82958" lon="6.80692">
        <ele>1159.77</ele>
        <time>2022-06-26T06:05:31.000Z</time>
      </trkpt>
      <trkpt lat="43.82976" lon="6.80698">
        <ele>1159.57</ele>
        <time>2022-06-26T06:05:43.000Z</time>
      </trkpt>
      <trkpt lat="43.82995" lon="6.80693">
        <ele>1161.17</ele>
        <time>2022-06-26T06:05:53.000Z</time>
      </trkpt>
      <trkpt lat="43.83013" lon="6.80698">
        <ele>1164.66</ele>
        <time>2022-06-26T06:06:02.000Z</time>
      </trkpt>
      <trkpt lat="43.83032" lon="6.80696">
        <ele>1165.45</ele>
        <time>2022-06-26T06:06:12.000Z</time>
      </trkpt>
      <trkpt lat="43.83049" lon="6.80704">
        <ele>1165.27</ele>
        <time>2022-06-26T06:06:21.000Z</time>
      </trkpt>
      <trkpt lat="43.83067" lon="6.80714">
        <ele>1164.99</ele>
        <time>2022-06-26T06:06:29.000Z</time>
      </trkpt>
      <trkpt lat="43.83083" lon="6.80723">
        <ele>1165.2</ele>
        <time>2022-06-26T06:06:37.000Z</time>
      </trkpt>
      <trkpt lat="43.831" lon="6.80738">
        <ele>1166.26</ele>
        <time>2022-06-26T06:06:45.000Z</time>
      </trkpt>
      <trkpt lat="43.83116" lon="6.80751">
        <ele>1165.22</ele>
        <time>2022-06-26T06:06:52.000Z</time>
      </trkpt>
      <trkpt lat="43.83135" lon="6.80758">
        <ele>1167.55</ele>
        <time>2022-06-26T06:07:00.000Z</time>
      </trkpt>
      <trkpt lat="43.83153" lon="6.80765">
        <ele>1169.59</ele>
        <time>2022-06-26T06:07:08.000Z</time>
      </trkpt>
      <trkpt lat="43.83172" lon="6.80774">
        <ele>1171.5</ele>
        <time>2022-06-26T06:07:18.000Z</time>
      </trkpt>
      <trkpt lat="43.83167" lon="6.80799">
        <ele>1172.82</ele>
        <time>2022-06-26T06:07:30.000Z</time>
      </trkpt>
      <trkpt lat="43.8316" lon="6.80822">
        <ele>1173.12</ele>
        <time>2022-06-26T06:07:39.000Z</time>
      </trkpt>
      <trkpt lat="43.83154" lon="6.80848">
        <ele>1173.28</ele>
        <time>2022-06-26T06:07:49.000Z</time>
      </trkpt>
      <trkpt lat="43.83151" lon="6.80875">
        <ele>1173.75</ele>
        <time>2022-06-26T06:07:59.000Z</time>
      </trkpt>
      <trkpt lat="43.83149" lon="6.809">
        <ele>1174.89</ele>
        <time>2022-06-26T06:08:08.000Z</time>
      </trkpt>
      <trkpt lat="43.83151" lon="6.80925">
        <ele>1175.69</ele>
        <time>2022-06-26T06:08:17.000Z</time>
      </trkpt>
      <trkpt lat="43.83155" lon="6.8095">
        <ele>1176.7</ele>
        <time>2022-06-26T06:08:28.000Z</time>
      </trkpt>
      <trkpt lat="43.8316" lon="6.80974">
        <ele>1178.53</ele>
        <time>2022-06-26T06:08:38.000Z</time>
      </trkpt>
      <trkpt lat="43.83166" lon="6.80999">
        <ele>1179.94</ele>
        <time>2022-06-26T06:08:49.000Z</time>
      </trkpt>
      <trkpt lat="43.83172" lon="6.81022">
        <ele>1181.09</ele>
        <time>2022-06-26T06:08:57.000Z</time>
      </trkpt>
      <trkpt lat="43.83181" lon="6.81044">
        <ele>1181.42</ele>
        <time>2022-06-26T06:09:05.000Z</time>
      </trkpt>
      <trkpt lat="43.83193" lon="6.81064">
        <ele>1181.82</ele>
        <time>2022-06-26T06:09:13.000Z</time>
      </trkpt>
      <trkpt lat="43.83202" lon="6.81087">
        <ele>1183.02</ele>
        <time>2022-06-26T06:09:21.000Z</time>
      </trkpt>
      <trkpt lat="43.83208" lon="6.81114">
        <ele>1183.15</ele>
        <time>2022-06-26T06:09:28.000Z</time>
      </trkpt>
      <trkpt lat="43.83213" lon="6.81139">
        <ele>1182.81</ele>
        <time>2022-06-26T06:09:34.000Z</time>
      </trkpt>
      <trkpt lat="43.83223" lon="6.81161">
        <ele>1183.08</ele>
        <time>2022-06-26T06:09:41.000Z</time>
      </trkpt>
      <trkpt lat="43.83243" lon="6.81164">
        <ele>1186.88</ele>
        <time>2022-06-26T06:09:52.000Z</time>
      </trkpt>
      <trkpt lat="43.83262" lon="6.81165">
        <ele>1189.6</ele>
        <time>2022-06-26T06:10:05.000Z</time>
      </trkpt>
      <trkpt lat="43.83281" lon="6.81165">
        <ele>1191.12</ele>
        <time>2022-06-26T06:10:15.000Z</time>
      </trkpt>
      <trkpt lat="43.83299" lon="6.81173">
        <ele>1191.76</ele>
        <time>2022-06-26T06:10:25.999Z</time>
      </trkpt>
      <trkpt lat="43.83315" lon="6.81189">
        <ele>1193.49</ele>
        <time>2022-06-26T06:10:36.999Z</time>
      </trkpt>
      <trkpt lat="43.83329" lon="6.81208">
        <ele>1195.61</ele>
        <time>2022-06-26T06:10:46.999Z</time>
      </trkpt>
      <trkpt lat="43.83342" lon="6.81226">
        <ele>1196.79</ele>
        <time>2022-06-26T06:10:56.999Z</time>
      </trkpt>
      <trkpt lat="43.83356" lon="6.81242">
        <ele>1198.41</ele>
        <time>2022-06-26T06:11:06.999Z</time>
      </trkpt>
      <trkpt lat="43.83371" lon="6.81257">
        <ele>1198.96</ele>
        <time>2022-06-26T06:11:15.999Z</time>
      </trkpt>
      <trkpt lat="43.83386" lon="6.81271">
        <ele>1199.49</ele>
        <time>2022-06-26T06:11:24.999Z</time>
      </trkpt>
      <trkpt lat="43.83398" lon="6.81291">
        <ele>1202.51</ele>
        <time>2022-06-26T06:11:34.999Z</time>
      </trkpt>
      <trkpt lat="43.83403" lon="6.81316">
        <ele>1203.18</ele>
        <time>2022-06-26T06:11:43.999Z</time>
      </trkpt>
      <trkpt lat="43.83415" lon="6.81336">
        <ele>1203.35</ele>
        <time>2022-06-26T06:11:54.999Z</time>
      </trkpt>
      <trkpt lat="43.83433" lon="6.81348">
        <ele>1205.54</ele>
        <time>2022-06-26T06:12:05.999Z</time>
      </trkpt>
      <trkpt lat="43.83451" lon="6.8135">
        <ele>1207.52</ele>
        <time>2022-06-26T06:12:16.999Z</time>
      </trkpt>
      <trkpt lat="43.8347" lon="6.81344">
        <ele>1209.69</ele>
        <time>2022-06-26T06:12:27.999Z</time>
      </trkpt>
      <trkpt lat="43.83489" lon="6.81346">
        <ele>1212.57</ele>
        <time>2022-06-26T06:12:38.999Z</time>
      </trkpt>
      <trkpt lat="43.83502" lon="6.81363">
        <ele>1215.1</ele>
        <time>2022-06-26T06:12:52.999Z</time>
      </trkpt>
      <trkpt lat="43.83509" lon="6.81386">
        <ele>1215.88</ele>
        <time>2022-06-26T06:13:04.999Z</time>
      </trkpt>
      <trkpt lat="43.83514" lon="6.8141">
        <ele>1216.98</ele>
        <time>2022-06-26T06:13:16.999Z</time>
      </trkpt>
      <trkpt lat="43.83517" lon="6.81436">
        <ele>1219.18</ele>
        <time>2022-06-26T06:13:29.999Z</time>
      </trkpt>
      <trkpt lat="43.83526" lon="6.81458">
        <ele>1222.12</ele>
        <time>2022-06-26T06:13:41.999Z</time>
      </trkpt>
      <trkpt lat="43.8353" lon="6.81483">
        <ele>1224.03</ele>
        <time>2022-06-26T06:13:53.999Z</time>
      </trkpt>
      <trkpt lat="43.83525" lon="6.81508">
        <ele>1224.61</ele>
        <time>2022-06-26T06:14:04.999Z</time>
      </trkpt>
      <trkpt lat="43.83533" lon="6.81531">
        <ele>1227.86</ele>
        <time>2022-06-26T06:14:16.999Z</time>
      </trkpt>
      <trkpt lat="43.83545" lon="6.81513">
        <ele>1228.87</ele>
        <time>2022-06-26T06:14:28.999Z</time>
      </trkpt>
      <trkpt lat="43.83548" lon="6.81488">
        <ele>1229.13</ele>
        <time>2022-06-26T06:14:37.999Z</time>
      </trkpt>
      <trkpt lat="43.83546" lon="6.81462">
        <ele>1230.8</ele>
        <time>2022-06-26T06:14:46.999Z</time>
      </trkpt>
      <trkpt lat="43.83545" lon="6.81437">
        <ele>1231.73</ele>
        <time>2022-06-26T06:14:55.999Z</time>
      </trkpt>
      <trkpt lat="43.83548" lon="6.81411">
        <ele>1232.76</ele>
        <time>2022-06-26T06:15:06.999Z</time>
      </trkpt>
      <trkpt lat="43.83557" lon="6.81434">
        <ele>1231.15</ele>
        <time>2022-06-26T06:15:15.999Z</time>
      </trkpt>
      <trkpt lat="43.8357" lon="6.81452">
        <ele>1231.77</ele>
        <time>2022-06-26T06:15:24.999Z</time>
      </trkpt>
      <trkpt lat="43.83586" lon="6.81467">
        <ele>1233.15</ele>
        <time>2022-06-26T06:15:33.999Z</time>
      </trkpt>
      <trkpt lat="43.83603" lon="6.81477">
        <ele>1233.85</ele>
        <time>2022-06-26T06:15:42.999Z</time>
      </trkpt>
      <trkpt lat="43.83621" lon="6.8148">
        <ele>1235.7</ele>
        <time>2022-06-26T06:16:44.999Z</time>
      </trkpt>
      <trkpt lat="43.83642" lon="6.81478">
        <ele>1235.62</ele>
        <time>2022-06-26T06:16:57.999Z</time>
      </trkpt>
      <trkpt lat="43.83662" lon="6.8148">
        <ele>1235.26</ele>
        <time>2022-06-26T06:17:04.999Z</time>
      </trkpt>
      <trkpt lat="43.83682" lon="6.81476">
        <ele>1235.32</ele>
        <time>2022-06-26T06:17:10.999Z</time>
      </trkpt>
      <trkpt lat="43.83702" lon="6.8147">
        <ele>1233.85</ele>
        <time>2022-06-26T06:17:15.999Z</time>
      </trkpt>
      <trkpt lat="43.83721" lon="6.81465">
        <ele>1233.18</ele>
        <time>2022-06-26T06:17:21.999Z</time>
      </trkpt>
      <trkpt lat="43.83741" lon="6.81469">
        <ele>1234.02</ele>
        <time>2022-06-26T06:17:28.999Z</time>
      </trkpt>
      <trkpt lat="43.8376" lon="6.81475">
        <ele>1233.46</ele>
        <time>2022-06-26T06:17:36.999Z</time>
      </trkpt>
      <trkpt lat="43.83777" lon="6.81486">
        <ele>1234.18</ele>
        <time>2022-06-26T06:17:44.999Z</time>
      </trkpt>
      <trkpt lat="43.83791" lon="6.81504">
        <ele>1235.44</ele>
        <time>2022-06-26T06:17:52.999Z</time>
      </trkpt>
      <trkpt lat="43.83805" lon="6.81518">
        <ele>1235.76</ele>
        <time>2022-06-26T06:18:00.999Z</time>
      </trkpt>
      <trkpt lat="43.83823" lon="6.81528">
        <ele>1236.6</ele>
        <time>2022-06-26T06:18:08.999Z</time>
      </trkpt>
      <trkpt lat="43.8384" lon="6.81538">
        <ele>1237.34</ele>
        <time>2022-06-26T06:18:15.999Z</time>
      </trkpt>
      <trkpt lat="43.83857" lon="6.81553">
        <ele>1236.49</ele>
        <time>2022-06-26T06:18:23.999Z</time>
      </trkpt>
      <trkpt lat="43.83873" lon="6.81567">
        <ele>1237.88</ele>
        <time>2022-06-26T06:18:31.999Z</time>
      </trkpt>
      <trkpt lat="43.8389" lon="6.81581">
        <ele>1239.09</ele>
        <time>2022-06-26T06:18:39.999Z</time>
      </trkpt>
      <trkpt lat="43.83907" lon="6.81595">
        <ele>1240.24</ele>
        <time>2022-06-26T06:18:47.999Z</time>
      </trkpt>
      <trkpt lat="43.83923" lon="6.81609">
        <ele>1241.45</ele>
        <time>2022-06-26T06:18:55.999Z</time>
      </trkpt>
      <trkpt lat="43.83938" lon="6.81625">
        <ele>1242.21</ele>
        <time>2022-06-26T06:19:04.999Z</time>
      </trkpt>
      <trkpt lat="43.83953" lon="6.81642">
        <ele>1243.83</ele>
        <time>2022-06-26T06:19:15.999Z</time>
      </trkpt>
      <trkpt lat="43.83969" lon="6.81656">
        <ele>1245.16</ele>
        <time>2022-06-26T06:19:24.999Z</time>
      </trkpt>
      <trkpt lat="43.83986" lon="6.81666">
        <ele>1246.46</ele>
        <time>2022-06-26T06:19:32.999Z</time>
      </trkpt>
      <trkpt lat="43.84" lon="6.81683">
        <ele>1248.1</ele>
        <time>2022-06-26T06:19:40.999Z</time>
      </trkpt>
      <trkpt lat="43.84016" lon="6.81697">
        <ele>1249.85</ele>
        <time>2022-06-26T06:19:49.999Z</time>
      </trkpt>
      <trkpt lat="43.84032" lon="6.81711">
        <ele>1249.51</ele>
        <time>2022-06-26T06:19:57.999Z</time>
      </trkpt>
      <trkpt lat="43.84046" lon="6.81731">
        <ele>1251.89</ele>
        <time>2022-06-26T06:20:07.999Z</time>
      </trkpt>
      <trkpt lat="43.84059" lon="6.8175">
        <ele>1254.01</ele>
        <time>2022-06-26T06:20:17.999Z</time>
      </trkpt>
      <trkpt lat="43.84073" lon="6.81769">
        <ele>1254.56</ele>
        <time>2022-06-26T06:20:26.999Z</time>
      </trkpt>
      <trkpt lat="43.84085" lon="6.8179">
        <ele>1255.21</ele>
        <time>2022-06-26T06:20:35.999Z</time>
      </trkpt>
      <trkpt lat="43.84096" lon="6.81813">
        <ele>1257.74</ele>
        <time>2022-06-26T06:20:44.999Z</time>
      </trkpt>
      <trkpt lat="43.84092" lon="6.81787">
        <ele>1259.8</ele>
        <time>2022-06-26T06:21:06.999Z</time>
      </trkpt>
      <trkpt lat="43.84084" lon="6.81762">
        <ele>1264.03</ele>
        <time>2022-06-26T06:21:20.999Z</time>
      </trkpt>
      <trkpt lat="43.84078" lon="6.81737">
        <ele>1264.23</ele>
        <time>2022-06-26T06:21:31.999Z</time>
      </trkpt>
      <trkpt lat="43.8407" lon="6.81713">
        <ele>1265.89</ele>
        <time>2022-06-26T06:21:40.999Z</time>
      </trkpt>
      <trkpt lat="43.84062" lon="6.81691">
        <ele>1266.89</ele>
        <time>2022-06-26T06:21:49.999Z</time>
      </trkpt>
      <trkpt lat="43.84051" lon="6.8167">
        <ele>1268.19</ele>
        <time>2022-06-26T06:22:00.999Z</time>
      </trkpt>
      <trkpt lat="43.84037" lon="6.81653">
        <ele>1269.89</ele>
        <time>2022-06-26T06:22:11.999Z</time>
      </trkpt>
      <trkpt lat="43.84026" lon="6.81632">
        <ele>1271.17</ele>
        <time>2022-06-26T06:22:22.999Z</time>
      </trkpt>
      <trkpt lat="43.84013" lon="6.81613">
        <ele>1272.52</ele>
        <time>2022-06-26T06:22:31.999Z</time>
      </trkpt>
      <trkpt lat="43.83998" lon="6.81598">
        <ele>1274.01</ele>
        <time>2022-06-26T06:22:40.999Z</time>
      </trkpt>
      <trkpt lat="43.83983" lon="6.81585">
        <ele>1275.86</ele>
        <time>2022-06-26T06:22:49.999Z</time>
      </trkpt>
      <trkpt lat="43.83969" lon="6.81569">
        <ele>1276.93</ele>
        <time>2022-06-26T06:22:58.999Z</time>
      </trkpt>
      <trkpt lat="43.83953" lon="6.81553">
        <ele>1276.38</ele>
        <time>2022-06-26T06:23:07.999Z</time>
      </trkpt>
      <trkpt lat="43.83936" lon="6.8154">
        <ele>1277.06</ele>
        <time>2022-06-26T06:23:15.999Z</time>
      </trkpt>
      <trkpt lat="43.8392" lon="6.81527">
        <ele>1278.7</ele>
        <time>2022-06-26T06:23:23.999Z</time>
      </trkpt>
      <trkpt lat="43.83908" lon="6.81504">
        <ele>1280.47</ele>
        <time>2022-06-26T06:23:32.999Z</time>
      </trkpt>
      <trkpt lat="43.83899" lon="6.8148">
        <ele>1280.35</ele>
        <time>2022-06-26T06:23:40.999Z</time>
      </trkpt>
      <trkpt lat="43.83884" lon="6.81463">
        <ele>1282.25</ele>
        <time>2022-06-26T06:23:48.999Z</time>
      </trkpt>
      <trkpt lat="43.83869" lon="6.8145">
        <ele>1282.84</ele>
        <time>2022-06-26T06:23:56.999Z</time>
      </trkpt>
      <trkpt lat="43.83855" lon="6.81433">
        <ele>1283.02</ele>
        <time>2022-06-26T06:24:04.999Z</time>
      </trkpt>
      <trkpt lat="43.83844" lon="6.81412">
        <ele>1283.72</ele>
        <time>2022-06-26T06:24:12.999Z</time>
      </trkpt>
      <trkpt lat="43.8383" lon="6.81393">
        <ele>1284.93</ele>
        <time>2022-06-26T06:24:21.999Z</time>
      </trkpt>
      <trkpt lat="43.83814" lon="6.81379">
        <ele>1285.76</ele>
        <time>2022-06-26T06:24:29.999Z</time>
      </trkpt>
      <trkpt lat="43.83799" lon="6.81365">
        <ele>1287.92</ele>
        <time>2022-06-26T06:24:37.999Z</time>
      </trkpt>
      <trkpt lat="43.83783" lon="6.81351">
        <ele>1289.07</ele>
        <time>2022-06-26T06:24:45.999Z</time>
      </trkpt>
      <trkpt lat="43.83766" lon="6.81338">
        <ele>1289.23</ele>
        <time>2022-06-26T06:24:53.999Z</time>
      </trkpt>
      <trkpt lat="43.83747" lon="6.8133">
        <ele>1288.98</ele>
        <time>2022-06-26T06:25:00.999Z</time>
      </trkpt>
      <trkpt lat="43.83731" lon="6.81318">
        <ele>1289.14</ele>
        <time>2022-06-26T06:25:07.999Z</time>
      </trkpt>
      <trkpt lat="43.83711" lon="6.81318">
        <ele>1289.63</ele>
        <time>2022-06-26T06:25:14.999Z</time>
      </trkpt>
      <trkpt lat="43.83692" lon="6.81318">
        <ele>1290.17</ele>
        <time>2022-06-26T06:25:22.999Z</time>
      </trkpt>
      <trkpt lat="43.83673" lon="6.81308">
        <ele>1290.72</ele>
        <time>2022-06-26T06:25:29.999Z</time>
      </trkpt>
      <trkpt lat="43.83657" lon="6.81294">
        <ele>1291.88</ele>
        <time>2022-06-26T06:25:36.999Z</time>
      </trkpt>
      <trkpt lat="43.83646" lon="6.81272">
        <ele>1292.59</ele>
        <time>2022-06-26T06:25:44.999Z</time>
      </trkpt>
      <trkpt lat="43.83639" lon="6.81248">
        <ele>1293.42</ele>
        <time>2022-06-26T06:25:53.999Z</time>
      </trkpt>
      <trkpt lat="43.8363" lon="6.81223">
        <ele>1295.14</ele>
        <time>2022-06-26T06:26:03.999Z</time>
      </trkpt>
      <trkpt lat="43.83628" lon="6.81197">
        <ele>1296.83</ele>
        <time>2022-06-26T06:26:14.999Z</time>
      </trkpt>
      <trkpt lat="43.83627" lon="6.8117">
        <ele>1299.59</ele>
        <time>2022-06-26T06:26:24.999Z</time>
      </trkpt>
      <trkpt lat="43.83628" lon="6.81145">
        <ele>1300.92</ele>
        <time>2022-06-26T06:26:33.999Z</time>
      </trkpt>
      <trkpt lat="43.83626" lon="6.8112">
        <ele>1302.44</ele>
        <time>2022-06-26T06:26:43.999Z</time>
      </trkpt>
      <trkpt lat="43.83619" lon="6.81094">
        <ele>1304.31</ele>
        <time>2022-06-26T06:26:53.999Z</time>
      </trkpt>
      <trkpt lat="43.83612" lon="6.8107">
        <ele>1306.04</ele>
        <time>2022-06-26T06:27:03.999Z</time>
      </trkpt>
      <trkpt lat="43.83602" lon="6.81047">
        <ele>1307.7</ele>
        <time>2022-06-26T06:27:14.999Z</time>
      </trkpt>
      <trkpt lat="43.8362" lon="6.81057">
        <ele>1311.42</ele>
        <time>2022-06-26T06:27:36.999Z</time>
      </trkpt>
      <trkpt lat="43.83634" lon="6.81073">
        <ele>1312.06</ele>
        <time>2022-06-26T06:27:47.999Z</time>
      </trkpt>
      <trkpt lat="43.83646" lon="6.81093">
        <ele>1313.29</ele>
        <time>2022-06-26T06:27:58.999Z</time>
      </trkpt>
      <trkpt lat="43.83659" lon="6.81112">
        <ele>1315.1</ele>
        <time>2022-06-26T06:28:09.999Z</time>
      </trkpt>
      <trkpt lat="43.8367" lon="6.81133">
        <ele>1317.49</ele>
        <time>2022-06-26T06:28:19.999Z</time>
      </trkpt>
      <trkpt lat="43.83679" lon="6.81157">
        <ele>1318</ele>
        <time>2022-06-26T06:28:30.999Z</time>
      </trkpt>
      <trkpt lat="43.8369" lon="6.81179">
        <ele>1317.68</ele>
        <time>2022-06-26T06:28:40.999Z</time>
      </trkpt>
      <trkpt lat="43.83686" lon="6.81153">
        <ele>1322.85</ele>
        <time>2022-06-26T06:29:12.999Z</time>
      </trkpt>
      <trkpt lat="43.83688" lon="6.81126">
        <ele>1325.32</ele>
        <time>2022-06-26T06:29:23.999Z</time>
      </trkpt>
      <trkpt lat="43.83683" lon="6.81101">
        <ele>1327.67</ele>
        <time>2022-06-26T06:29:33.999Z</time>
      </trkpt>
      <trkpt lat="43.83675" lon="6.81077">
        <ele>1328.8</ele>
        <time>2022-06-26T06:29:44.999Z</time>
      </trkpt>
      <trkpt lat="43.83665" lon="6.81055">
        <ele>1329.93</ele>
        <time>2022-06-26T06:29:55.999Z</time>
      </trkpt>
      <trkpt lat="43.83655" lon="6.81033">
        <ele>1331.28</ele>
        <time>2022-06-26T06:30:07.999Z</time>
      </trkpt>
      <trkpt lat="43.83647" lon="6.81008">
        <ele>1331.78</ele>
        <time>2022-06-26T06:30:19.999Z</time>
      </trkpt>
      <trkpt lat="43.83641" lon="6.80982">
        <ele>1332.78</ele>
        <time>2022-06-26T06:30:30.999Z</time>
      </trkpt>
      <trkpt lat="43.83634" lon="6.80957">
        <ele>1335.31</ele>
        <time>2022-06-26T06:30:41.999Z</time>
      </trkpt>
      <trkpt lat="43.83626" lon="6.80935">
        <ele>1336.94</ele>
        <time>2022-06-26T06:30:51.999Z</time>
      </trkpt>
      <trkpt lat="43.83617" lon="6.80911">
        <ele>1338.19</ele>
        <time>2022-06-26T06:31:03.999Z</time>
      </trkpt>
      <trkpt lat="43.83608" lon="6.80887">
        <ele>1339.13</ele>
        <time>2022-06-26T06:31:15.999Z</time>
      </trkpt>
      <trkpt lat="43.83596" lon="6.80867">
        <ele>1340.88</ele>
        <time>2022-06-26T06:31:27.999Z</time>
      </trkpt>
      <trkpt lat="43.83585" lon="6.80846">
        <ele>1343.24</ele>
        <time>2022-06-26T06:31:39.999Z</time>
      </trkpt>
      <trkpt lat="43.83577" lon="6.80823">
        <ele>1344.85</ele>
        <time>2022-06-26T06:31:51.999Z</time>
      </trkpt>
      <trkpt lat="43.83568" lon="6.808">
        <ele>1346.12</ele>
        <time>2022-06-26T06:32:02.999Z</time>
      </trkpt>
      <trkpt lat="43.83561" lon="6.80775">
        <ele>1347.72</ele>
        <time>2022-06-26T06:32:13.999Z</time>
      </trkpt>
      <trkpt lat="43.83552" lon="6.80752">
        <ele>1351.23</ele>
        <time>2022-06-26T06:33:54.999Z</time>
      </trkpt>
      <trkpt lat="43.83568" lon="6.80765">
        <ele>1353.13</ele>
        <time>2022-06-26T06:40:00.999Z</time>
      </trkpt>
      <trkpt lat="43.83579" lon="6.80788">
        <ele>1352.54</ele>
        <time>2022-06-26T06:40:11.999Z</time>
      </trkpt>
      <trkpt lat="43.8359" lon="6.80808">
        <ele>1353.05</ele>
        <time>2022-06-26T06:40:22.999Z</time>
      </trkpt>
      <trkpt lat="43.83603" lon="6.80826">
        <ele>1353.84</ele>
        <time>2022-06-26T06:40:35.999Z</time>
      </trkpt>
      <trkpt lat="43.83617" lon="6.80843">
        <ele>1355.21</ele>
        <time>2022-06-26T06:40:48.999Z</time>
      </trkpt>
      <trkpt lat="43.8363" lon="6.80861">
        <ele>1354.94</ele>
        <time>2022-06-26T06:41:00.999Z</time>
      </trkpt>
      <trkpt lat="43.83644" lon="6.80879">
        <ele>1356.67</ele>
        <time>2022-06-26T06:41:12.999Z</time>
      </trkpt>
      <trkpt lat="43.83658" lon="6.80895">
        <ele>1357.81</ele>
        <time>2022-06-26T06:41:23.999Z</time>
      </trkpt>
      <trkpt lat="43.83671" lon="6.80916">
        <ele>1359.32</ele>
        <time>2022-06-26T06:41:35.999Z</time>
      </trkpt>
      <trkpt lat="43.83683" lon="6.80934">
        <ele>1360.27</ele>
        <time>2022-06-26T06:41:45.999Z</time>
      </trkpt>
      <trkpt lat="43.83697" lon="6.80954">
        <ele>1361.69</ele>
        <time>2022-06-26T06:41:56.999Z</time>
      </trkpt>
      <trkpt lat="43.83709" lon="6.80973">
        <ele>1362.55</ele>
        <time>2022-06-26T06:42:06.999Z</time>
      </trkpt>
      <trkpt lat="43.83722" lon="6.80992">
        <ele>1364.11</ele>
        <time>2022-06-26T06:42:17.999Z</time>
      </trkpt>
      <trkpt lat="43.83737" lon="6.81007">
        <ele>1365.57</ele>
        <time>2022-06-26T06:42:27.999Z</time>
      </trkpt>
      <trkpt lat="43.83754" lon="6.81018">
        <ele>1366.98</ele>
        <time>2022-06-26T06:42:38.999Z</time>
      </trkpt>
      <trkpt lat="43.83772" lon="6.8103">
        <ele>1368.13</ele>
        <time>2022-06-26T06:42:48.999Z</time>
      </trkpt>
      <trkpt lat="43.83785" lon="6.81048">
        <ele>1368.61</ele>
        <time>2022-06-26T06:42:57.999Z</time>
      </trkpt>
      <trkpt lat="43.83799" lon="6.81064">
        <ele>1369.44</ele>
        <time>2022-06-26T06:43:07.999Z</time>
      </trkpt>
      <trkpt lat="43.83813" lon="6.81081">
        <ele>1371.72</ele>
        <time>2022-06-26T06:43:17.999Z</time>
      </trkpt>
      <trkpt lat="43.83831" lon="6.81089">
        <ele>1372.38</ele>
        <time>2022-06-26T06:43:29.999Z</time>
      </trkpt>
      <trkpt lat="43.8385" lon="6.81093">
        <ele>1372.77</ele>
        <time>2022-06-26T06:43:40.000Z</time>
      </trkpt>
      <trkpt lat="43.83862" lon="6.81112">
        <ele>1373.45</ele>
        <time>2022-06-26T06:43:50.000Z</time>
      </trkpt>
      <trkpt lat="43.83877" lon="6.81127">
        <ele>1375.96</ele>
        <time>2022-06-26T06:44:00.000Z</time>
      </trkpt>
      <trkpt lat="43.83895" lon="6.8114">
        <ele>1377.5</ele>
        <time>2022-06-26T06:44:10.000Z</time>
      </trkpt>
      <trkpt lat="43.83909" lon="6.81159">
        <ele>1377.45</ele>
        <time>2022-06-26T06:44:19.000Z</time>
      </trkpt>
      <trkpt lat="43.83921" lon="6.81179">
        <ele>1378.24</ele>
        <time>2022-06-26T06:44:28.000Z</time>
      </trkpt>
      <trkpt lat="43.83937" lon="6.81192">
        <ele>1380.15</ele>
        <time>2022-06-26T06:44:38.000Z</time>
      </trkpt>
      <trkpt lat="43.83954" lon="6.81199">
        <ele>1380.86</ele>
        <time>2022-06-26T06:44:47.000Z</time>
      </trkpt>
      <trkpt lat="43.83968" lon="6.81218">
        <ele>1381.66</ele>
        <time>2022-06-26T06:44:57.000Z</time>
      </trkpt>
      <trkpt lat="43.83984" lon="6.81234">
        <ele>1383.37</ele>
        <time>2022-06-26T06:45:09.000Z</time>
      </trkpt>
      <trkpt lat="43.84002" lon="6.81231">
        <ele>1386.06</ele>
        <time>2022-06-26T06:45:21.000Z</time>
      </trkpt>
      <trkpt lat="43.84019" lon="6.81224">
        <ele>1390.91</ele>
        <time>2022-06-26T06:45:31.000Z</time>
      </trkpt>
      <trkpt lat="43.84037" lon="6.81234">
        <ele>1390.36</ele>
        <time>2022-06-26T06:45:43.000Z</time>
      </trkpt>
      <trkpt lat="43.84051" lon="6.81251">
        <ele>1392.39</ele>
        <time>2022-06-26T06:45:54.000Z</time>
      </trkpt>
      <trkpt lat="43.84067" lon="6.81268">
        <ele>1393.59</ele>
        <time>2022-06-26T06:46:05.000Z</time>
      </trkpt>
      <trkpt lat="43.84084" lon="6.81281">
        <ele>1395.87</ele>
        <time>2022-06-26T06:46:16.000Z</time>
      </trkpt>
      <trkpt lat="43.841" lon="6.81294">
        <ele>1396.4</ele>
        <time>2022-06-26T06:46:26.000Z</time>
      </trkpt>
      <trkpt lat="43.84115" lon="6.81309">
        <ele>1397.29</ele>
        <time>2022-06-26T06:46:35.000Z</time>
      </trkpt>
      <trkpt lat="43.8413" lon="6.81324">
        <ele>1400.15</ele>
        <time>2022-06-26T06:46:46.000Z</time>
      </trkpt>
      <trkpt lat="43.84147" lon="6.81338">
        <ele>1402.01</ele>
        <time>2022-06-26T06:46:57.000Z</time>
      </trkpt>
      <trkpt lat="43.84165" lon="6.81348">
        <ele>1402.89</ele>
        <time>2022-06-26T06:47:09.000Z</time>
      </trkpt>
      <trkpt lat="43.8418" lon="6.81361">
        <ele>1406.26</ele>
        <time>2022-06-26T06:47:20.000Z</time>
      </trkpt>
      <trkpt lat="43.84196" lon="6.81376">
        <ele>1408.11</ele>
        <time>2022-06-26T06:47:31.000Z</time>
      </trkpt>
      <trkpt lat="43.84212" lon="6.8139">
        <ele>1409.54</ele>
        <time>2022-06-26T06:47:42.000Z</time>
      </trkpt>
      <trkpt lat="43.84229" lon="6.81403">
        <ele>1411.67</ele>
        <time>2022-06-26T06:47:53.000Z</time>
      </trkpt>
      <trkpt lat="43.84246" lon="6.81413">
        <ele>1413.32</ele>
        <time>2022-06-26T06:48:03.000Z</time>
      </trkpt>
      <trkpt lat="43.84263" lon="6.81425">
        <ele>1414.75</ele>
        <time>2022-06-26T06:48:14.000Z</time>
      </trkpt>
      <trkpt lat="43.84279" lon="6.81439">
        <ele>1418.64</ele>
        <time>2022-06-26T06:48:25.000Z</time>
      </trkpt>
      <trkpt lat="43.84291" lon="6.81457">
        <ele>1422.1</ele>
        <time>2022-06-26T06:48:35.000Z</time>
      </trkpt>
      <trkpt lat="43.84304" lon="6.81477">
        <ele>1423.15</ele>
        <time>2022-06-26T06:48:45.000Z</time>
      </trkpt>
      <trkpt lat="43.84317" lon="6.81497">
        <ele>1424.62</ele>
        <time>2022-06-26T06:48:56.000Z</time>
      </trkpt>
      <trkpt lat="43.84329" lon="6.81517">
        <ele>1427.64</ele>
        <time>2022-06-26T06:49:07.000Z</time>
      </trkpt>
      <trkpt lat="43.8434" lon="6.81537">
        <ele>1429.97</ele>
        <time>2022-06-26T06:49:17.000Z</time>
      </trkpt>
      <trkpt lat="43.84352" lon="6.81557">
        <ele>1432.41</ele>
        <time>2022-06-26T06:49:28.000Z</time>
      </trkpt>
      <trkpt lat="43.84364" lon="6.81578">
        <ele>1432.56</ele>
        <time>2022-06-26T06:49:37.000Z</time>
      </trkpt>
      <trkpt lat="43.84375" lon="6.81598">
        <ele>1434.57</ele>
        <time>2022-06-26T06:49:47.000Z</time>
      </trkpt>
      <trkpt lat="43.84385" lon="6.81621">
        <ele>1436.95</ele>
        <time>2022-06-26T06:49:57.000Z</time>
      </trkpt>
      <trkpt lat="43.84391" lon="6.81645">
        <ele>1440.12</ele>
        <time>2022-06-26T06:50:07.000Z</time>
      </trkpt>
      <trkpt lat="43.844" lon="6.81667">
        <ele>1441.87</ele>
        <time>2022-06-26T06:50:16.000Z</time>
      </trkpt>
      <trkpt lat="43.84407" lon="6.81691">
        <ele>1443.15</ele>
        <time>2022-06-26T06:50:26.000Z</time>
      </trkpt>
      <trkpt lat="43.84415" lon="6.81715">
        <ele>1445.69</ele>
        <time>2022-06-26T06:50:36.000Z</time>
      </trkpt>
      <trkpt lat="43.84424" lon="6.81739">
        <ele>1447.54</ele>
        <time>2022-06-26T06:50:46.000Z</time>
      </trkpt>
      <trkpt lat="43.84434" lon="6.81761">
        <ele>1450.47</ele>
        <time>2022-06-26T06:50:56.000Z</time>
      </trkpt>
      <trkpt lat="43.84443" lon="6.81784">
        <ele>1453.22</ele>
        <time>2022-06-26T06:51:06.000Z</time>
      </trkpt>
      <trkpt lat="43.84451" lon="6.81807">
        <ele>1455.95</ele>
        <time>2022-06-26T06:51:16.000Z</time>
      </trkpt>
      <trkpt lat="43.84458" lon="6.81831">
        <ele>1458.44</ele>
        <time>2022-06-26T06:51:26.000Z</time>
      </trkpt>
      <trkpt lat="43.84464" lon="6.81855">
        <ele>1464.87</ele>
        <time>2022-06-26T06:56:15.000Z</time>
      </trkpt>
      <trkpt lat="43.84478" lon="6.81871">
        <ele>1468.2</ele>
        <time>2022-06-26T06:58:19.000Z</time>
      </trkpt>
      <trkpt lat="43.84484" lon="6.81895">
        <ele>1471.16</ele>
        <time>2022-06-26T06:58:29.000Z</time>
      </trkpt>
      <trkpt lat="43.84499" lon="6.81916">
        <ele>1469.43</ele>
        <time>2022-06-26T06:58:41.000Z</time>
      </trkpt>
      <trkpt lat="43.84514" lon="6.81936">
        <ele>1466.2</ele>
        <time>2022-06-26T06:58:46.000Z</time>
      </trkpt>
      <trkpt lat="43.84519" lon="6.8196">
        <ele>1464.52</ele>
        <time>2022-06-26T06:58:54.000Z</time>
      </trkpt>
      <trkpt lat="43.84525" lon="6.81985">
        <ele>1460.85</ele>
        <time>2022-06-26T06:59:05.000Z</time>
      </trkpt>
      <trkpt lat="43.8453" lon="6.82009">
        <ele>1461.86</ele>
        <time>2022-06-26T06:59:22.000Z</time>
      </trkpt>
      <trkpt lat="43.84536" lon="6.82033">
        <ele>1464.66</ele>
        <time>2022-06-26T07:01:41.000Z</time>
      </trkpt>
      <trkpt lat="43.84544" lon="6.82058">
        <ele>1461.44</ele>
        <time>2022-06-26T07:01:51.000Z</time>
      </trkpt>
      <trkpt lat="43.84554" lon="6.82081">
        <ele>1457.13</ele>
        <time>2022-06-26T07:02:07.000Z</time>
      </trkpt>
      <trkpt lat="43.84565" lon="6.82103">
        <ele>1455.94</ele>
        <time>2022-06-26T07:02:15.000Z</time>
      </trkpt>
      <trkpt lat="43.84568" lon="6.82129">
        <ele>1454.94</ele>
        <time>2022-06-26T07:02:39.000Z</time>
      </trkpt>
      <trkpt lat="43.84574" lon="6.82153">
        <ele>1454.61</ele>
        <time>2022-06-26T07:02:50.000Z</time>
      </trkpt>
      <trkpt lat="43.84579" lon="6.82179">
        <ele>1452.8</ele>
        <time>2022-06-26T07:02:57.000Z</time>
      </trkpt>
      <trkpt lat="43.84577" lon="6.82205">
        <ele>1450.97</ele>
        <time>2022-06-26T07:03:03.000Z</time>
      </trkpt>
      <trkpt lat="43.84573" lon="6.82231">
        <ele>1449.05</ele>
        <time>2022-06-26T07:03:09.000Z</time>
      </trkpt>
      <trkpt lat="43.84579" lon="6.82256">
        <ele>1445.74</ele>
        <time>2022-06-26T07:03:17.000Z</time>
      </trkpt>
      <trkpt lat="43.84582" lon="6.82281">
        <ele>1444.2</ele>
        <time>2022-06-26T07:03:33.000Z</time>
      </trkpt>
      <trkpt lat="43.84589" lon="6.82307">
        <ele>1440.15</ele>
        <time>2022-06-26T07:03:41.000Z</time>
      </trkpt>
      <trkpt lat="43.84589" lon="6.82333">
        <ele>1440.02</ele>
        <time>2022-06-26T07:03:48.000Z</time>
      </trkpt>
      <trkpt lat="43.84593" lon="6.82358">
        <ele>1439.88</ele>
        <time>2022-06-26T07:04:05.000Z</time>
      </trkpt>
      <trkpt lat="43.84602" lon="6.82382">
        <ele>1438.66</ele>
        <time>2022-06-26T07:04:18.000Z</time>
      </trkpt>
      <trkpt lat="43.84603" lon="6.82407">
        <ele>1434.6</ele>
        <time>2022-06-26T07:04:41.000Z</time>
      </trkpt>
      <trkpt lat="43.84609" lon="6.8243">
        <ele>1424.88</ele>
        <time>2022-06-26T07:05:12.000Z</time>
      </trkpt>
      <trkpt lat="43.84609" lon="6.82456">
        <ele>1422.31</ele>
        <time>2022-06-26T07:05:49.000Z</time>
      </trkpt>
      <trkpt lat="43.84615" lon="6.8248">
        <ele>1419.15</ele>
        <time>2022-06-26T07:06:03.000Z</time>
      </trkpt>
      <trkpt lat="43.84618" lon="6.82509">
        <ele>1415.46</ele>
        <time>2022-06-26T07:06:11.000Z</time>
      </trkpt>
      <trkpt lat="43.8462" lon="6.82537">
        <ele>1412.5</ele>
        <time>2022-06-26T07:06:17.000Z</time>
      </trkpt>
      <trkpt lat="43.8463" lon="6.8256">
        <ele>1409.97</ele>
        <time>2022-06-26T07:06:25.000Z</time>
      </trkpt>
      <trkpt lat="43.84638" lon="6.82583">
        <ele>1408.71</ele>
        <time>2022-06-26T07:06:50.000Z</time>
      </trkpt>
      <trkpt lat="43.84642" lon="6.82608">
        <ele>1409.11</ele>
        <time>2022-06-26T07:07:16.000Z</time>
      </trkpt>
      <trkpt lat="43.8465" lon="6.82631">
        <ele>1409.2</ele>
        <time>2022-06-26T07:07:38.000Z</time>
      </trkpt>
      <trkpt lat="43.84658" lon="6.82654">
        <ele>1412.76</ele>
        <time>2022-06-26T07:09:19.000Z</time>
      </trkpt>
      <trkpt lat="43.84666" lon="6.82677">
        <ele>1409.01</ele>
        <time>2022-06-26T07:09:35.000Z</time>
      </trkpt>
      <trkpt lat="43.84673" lon="6.827">
        <ele>1406.68</ele>
        <time>2022-06-26T07:09:44.000Z</time>
      </trkpt>
      <trkpt lat="43.8468" lon="6.82725">
        <ele>1406.28</ele>
        <time>2022-06-26T07:09:53.000Z</time>
      </trkpt>
      <trkpt lat="43.8469" lon="6.82749">
        <ele>1406.02</ele>
        <time>2022-06-26T07:10:07.000Z</time>
      </trkpt>
      <trkpt lat="43.84697" lon="6.82772">
        <ele>1403.89</ele>
        <time>2022-06-26T07:10:18.000Z</time>
      </trkpt>
      <trkpt lat="43.84704" lon="6.82795">
        <ele>1403.3</ele>
        <time>2022-06-26T07:10:27.000Z</time>
      </trkpt>
      <trkpt lat="43.84712" lon="6.82819">
        <ele>1401.91</ele>
        <time>2022-06-26T07:10:38.000Z</time>
      </trkpt>
      <trkpt lat="43.84717" lon="6.82844">
        <ele>1401.66</ele>
        <time>2022-06-26T07:10:47.000Z</time>
      </trkpt>
      <trkpt lat="43.84718" lon="6.82869">
        <ele>1404.34</ele>
        <time>2022-06-26T07:11:08.000Z</time>
      </trkpt>
      <trkpt lat="43.8472" lon="6.82894">
        <ele>1402.5</ele>
        <time>2022-06-26T07:11:21.000Z</time>
      </trkpt>
      <trkpt lat="43.84723" lon="6.8292">
        <ele>1401.71</ele>
        <time>2022-06-26T07:12:24.000Z</time>
      </trkpt>
      <trkpt lat="43.84729" lon="6.82947">
        <ele>1397.38</ele>
        <time>2022-06-26T07:12:41.000Z</time>
      </trkpt>
      <trkpt lat="43.84736" lon="6.82975">
        <ele>1395.27</ele>
        <time>2022-06-26T07:12:47.000Z</time>
      </trkpt>
      <trkpt lat="43.84744" lon="6.83002">
        <ele>1391.87</ele>
        <time>2022-06-26T07:12:53.000Z</time>
      </trkpt>
      <trkpt lat="43.84752" lon="6.83028">
        <ele>1389.47</ele>
        <time>2022-06-26T07:12:58.000Z</time>
      </trkpt>
      <trkpt lat="43.84761" lon="6.83051">
        <ele>1386.58</ele>
        <time>2022-06-26T07:13:03.000Z</time>
      </trkpt>
      <trkpt lat="43.84768" lon="6.83075">
        <ele>1384.73</ele>
        <time>2022-06-26T07:13:09.000Z</time>
      </trkpt>
      <trkpt lat="43.84773" lon="6.83103">
        <ele>1382.73</ele>
        <time>2022-06-26T07:13:15.000Z</time>
      </trkpt>
      <trkpt lat="43.84776" lon="6.83128">
        <ele>1381.26</ele>
        <time>2022-06-26T07:13:22.000Z</time>
      </trkpt>
      <trkpt lat="43.8478" lon="6.83153">
        <ele>1381.19</ele>
        <time>2022-06-26T07:13:30.000Z</time>
      </trkpt>
      <trkpt lat="43.84785" lon="6.83178">
        <ele>1381.09</ele>
        <time>2022-06-26T07:13:41.000Z</time>
      </trkpt>
      <trkpt lat="43.84794" lon="6.832">
        <ele>1379.99</ele>
        <time>2022-06-26T07:13:47.000Z</time>
      </trkpt>
      <trkpt lat="43.84805" lon="6.83221">
        <ele>1379.68</ele>
        <time>2022-06-26T07:13:56.000Z</time>
      </trkpt>
      <trkpt lat="43.84806" lon="6.83247">
        <ele>1378.64</ele>
        <time>2022-06-26T07:14:04.000Z</time>
      </trkpt>
      <trkpt lat="43.84812" lon="6.83274">
        <ele>1377.93</ele>
        <time>2022-06-26T07:14:11.000Z</time>
      </trkpt>
      <trkpt lat="43.84818" lon="6.833">
        <ele>1377.31</ele>
        <time>2022-06-26T07:14:16.000Z</time>
      </trkpt>
      <trkpt lat="43.84824" lon="6.83324">
        <ele>1376.96</ele>
        <time>2022-06-26T07:14:20.000Z</time>
      </trkpt>
      <trkpt lat="43.84833" lon="6.83349">
        <ele>1377.19</ele>
        <time>2022-06-26T07:14:27.000Z</time>
      </trkpt>
      <trkpt lat="43.84838" lon="6.83375">
        <ele>1378.06</ele>
        <time>2022-06-26T07:14:35.000Z</time>
      </trkpt>
      <trkpt lat="43.84842" lon="6.834">
        <ele>1378.62</ele>
        <time>2022-06-26T07:14:43.000Z</time>
      </trkpt>
      <trkpt lat="43.84849" lon="6.83423">
        <ele>1380.46</ele>
        <time>2022-06-26T07:14:52.000Z</time>
      </trkpt>
      <trkpt lat="43.84855" lon="6.83447">
        <ele>1382.63</ele>
        <time>2022-06-26T07:15:02.000Z</time>
      </trkpt>
      <trkpt lat="43.84862" lon="6.83473">
        <ele>1384.82</ele>
        <time>2022-06-26T07:15:16.000Z</time>
      </trkpt>
      <trkpt lat="43.8487" lon="6.83498">
        <ele>1386.24</ele>
        <time>2022-06-26T07:15:27.000Z</time>
      </trkpt>
      <trkpt lat="43.84875" lon="6.83523">
        <ele>1389.68</ele>
        <time>2022-06-26T07:15:39.000Z</time>
      </trkpt>
      <trkpt lat="43.8488" lon="6.83549">
        <ele>1390.54</ele>
        <time>2022-06-26T07:15:48.000Z</time>
      </trkpt>
      <trkpt lat="43.84887" lon="6.83572">
        <ele>1391.31</ele>
        <time>2022-06-26T07:15:56.000Z</time>
      </trkpt>
      <trkpt lat="43.84889" lon="6.83598">
        <ele>1390.86</ele>
        <time>2022-06-26T07:16:01.000Z</time>
      </trkpt>
      <trkpt lat="43.84895" lon="6.83622">
        <ele>1389.71</ele>
        <time>2022-06-26T07:16:07.000Z</time>
      </trkpt>
      <trkpt lat="43.84906" lon="6.83644">
        <ele>1387.85</ele>
        <time>2022-06-26T07:16:11.000Z</time>
      </trkpt>
      <trkpt lat="43.84922" lon="6.83662">
        <ele>1385.19</ele>
        <time>2022-06-26T07:16:15.000Z</time>
      </trkpt>
      <trkpt lat="43.84936" lon="6.8368">
        <ele>1379.08</ele>
        <time>2022-06-26T07:16:25.000Z</time>
      </trkpt>
      <trkpt lat="43.84941" lon="6.83708">
        <ele>1377.09</ele>
        <time>2022-06-26T07:16:31.000Z</time>
      </trkpt>
      <trkpt lat="43.84942" lon="6.83738">
        <ele>1376</ele>
        <time>2022-06-26T07:16:35.000Z</time>
      </trkpt>
      <trkpt lat="43.84941" lon="6.83766">
        <ele>1374.84</ele>
        <time>2022-06-26T07:16:41.000Z</time>
      </trkpt>
      <trkpt lat="43.84939" lon="6.83791">
        <ele>1377.35</ele>
        <time>2022-06-26T07:16:48.000Z</time>
      </trkpt>
      <trkpt lat="43.84936" lon="6.83818">
        <ele>1379.51</ele>
        <time>2022-06-26T07:16:56.000Z</time>
      </trkpt>
      <trkpt lat="43.84933" lon="6.83844">
        <ele>1380.39</ele>
        <time>2022-06-26T07:17:04.000Z</time>
      </trkpt>
      <trkpt lat="43.84928" lon="6.83871">
        <ele>1382.75</ele>
        <time>2022-06-26T07:17:13.000Z</time>
      </trkpt>
      <trkpt lat="43.84929" lon="6.839">
        <ele>1381.96</ele>
        <time>2022-06-26T07:17:21.000Z</time>
      </trkpt>
      <trkpt lat="43.84935" lon="6.83926">
        <ele>1381.6</ele>
        <time>2022-06-26T07:17:25.000Z</time>
      </trkpt>
      <trkpt lat="43.84942" lon="6.83951">
        <ele>1379.7</ele>
        <time>2022-06-26T07:17:31.000Z</time>
      </trkpt>
      <trkpt lat="43.84944" lon="6.83976">
        <ele>1379.49</ele>
        <time>2022-06-26T07:17:36.000Z</time>
      </trkpt>
      <trkpt lat="43.84947" lon="6.84001">
        <ele>1379.22</ele>
        <time>2022-06-26T07:17:42.000Z</time>
      </trkpt>
      <trkpt lat="43.84949" lon="6.84028">
        <ele>1378.93</ele>
        <time>2022-06-26T07:17:49.000Z</time>
      </trkpt>
      <trkpt lat="43.84947" lon="6.84058">
        <ele>1377.68</ele>
        <time>2022-06-26T07:17:54.000Z</time>
      </trkpt>
      <trkpt lat="43.84953" lon="6.84082">
        <ele>1377.69</ele>
        <time>2022-06-26T07:17:57.000Z</time>
      </trkpt>
      <trkpt lat="43.84962" lon="6.84106">
        <ele>1378.66</ele>
        <time>2022-06-26T07:18:01.000Z</time>
      </trkpt>
      <trkpt lat="43.8497" lon="6.84129">
        <ele>1373.52</ele>
        <time>2022-06-26T07:18:04.000Z</time>
      </trkpt>
      <trkpt lat="43.84979" lon="6.84152">
        <ele>1368.54</ele>
        <time>2022-06-26T07:18:08.000Z</time>
      </trkpt>
      <trkpt lat="43.84988" lon="6.84179">
        <ele>1368.53</ele>
        <time>2022-06-26T07:18:12.000Z</time>
      </trkpt>
      <trkpt lat="43.84998" lon="6.84203">
        <ele>1370.22</ele>
        <time>2022-06-26T07:18:18.000Z</time>
      </trkpt>
      <trkpt lat="43.84996" lon="6.84232">
        <ele>1369.09</ele>
        <time>2022-06-26T07:18:25.000Z</time>
      </trkpt>
      <trkpt lat="43.84992" lon="6.84258">
        <ele>1368.98</ele>
        <time>2022-06-26T07:18:31.000Z</time>
      </trkpt>
      <trkpt lat="43.84985" lon="6.84282">
        <ele>1370.58</ele>
        <time>2022-06-26T07:18:40.000Z</time>
      </trkpt>
      <trkpt lat="43.84979" lon="6.84307">
        <ele>1367.22</ele>
        <time>2022-06-26T07:18:47.000Z</time>
      </trkpt>
      <trkpt lat="43.8498" lon="6.84337">
        <ele>1363.86</ele>
        <time>2022-06-26T07:18:52.000Z</time>
      </trkpt>
      <trkpt lat="43.84979" lon="6.84367">
        <ele>1363.13</ele>
        <time>2022-06-26T07:18:56.000Z</time>
      </trkpt>
      <trkpt lat="43.84978" lon="6.84394">
        <ele>1363.27</ele>
        <time>2022-06-26T07:18:59.000Z</time>
      </trkpt>
      <trkpt lat="43.84983" lon="6.84423">
        <ele>1356.71</ele>
        <time>2022-06-26T07:19:04.000Z</time>
      </trkpt>
      <trkpt lat="43.84991" lon="6.84449">
        <ele>1353.66</ele>
        <time>2022-06-26T07:19:09.000Z</time>
      </trkpt>
      <trkpt lat="43.84984" lon="6.84481">
        <ele>1350.69</ele>
        <time>2022-06-26T07:19:14.000Z</time>
      </trkpt>
      <trkpt lat="43.84975" lon="6.84505">
        <ele>1348.3</ele>
        <time>2022-06-26T07:19:19.000Z</time>
      </trkpt>
      <trkpt lat="43.8498" lon="6.8453">
        <ele>1344.26</ele>
        <time>2022-06-26T07:19:24.000Z</time>
      </trkpt>
      <trkpt lat="43.8498" lon="6.84556">
        <ele>1340.22</ele>
        <time>2022-06-26T07:19:29.000Z</time>
      </trkpt>
      <trkpt lat="43.84982" lon="6.84581">
        <ele>1336.17</ele>
        <time>2022-06-26T07:20:25.000Z</time>
      </trkpt>
      <trkpt lat="43.84976" lon="6.84605">
        <ele>1334.38</ele>
        <time>2022-06-26T07:20:34.000Z</time>
      </trkpt>
      <trkpt lat="43.8497" lon="6.84631">
        <ele>1334.74</ele>
        <time>2022-06-26T07:20:43.000Z</time>
      </trkpt>
      <trkpt lat="43.8496" lon="6.84656">
        <ele>1331.43</ele>
        <time>2022-06-26T07:20:48.000Z</time>
      </trkpt>
      <trkpt lat="43.84956" lon="6.84683">
        <ele>1325.7</ele>
        <time>2022-06-26T07:21:43.000Z</time>
      </trkpt>
      <trkpt lat="43.84961" lon="6.84711">
        <ele>1323.51</ele>
        <time>2022-06-26T07:21:49.000Z</time>
      </trkpt>
      <trkpt lat="43.84965" lon="6.8474">
        <ele>1319.24</ele>
        <time>2022-06-26T07:21:55.000Z</time>
      </trkpt>
      <trkpt lat="43.84969" lon="6.84771">
        <ele>1314.95</ele>
        <time>2022-06-26T07:22:00.000Z</time>
      </trkpt>
      <trkpt lat="43.8497" lon="6.848">
        <ele>1313.27</ele>
        <time>2022-06-26T07:22:04.000Z</time>
      </trkpt>
      <trkpt lat="43.8497" lon="6.84827">
        <ele>1309.21</ele>
        <time>2022-06-26T07:22:09.000Z</time>
      </trkpt>
      <trkpt lat="43.8496" lon="6.84805">
        <ele>1302.58</ele>
        <time>2022-06-26T07:22:20.000Z</time>
      </trkpt>
      <trkpt lat="43.84955" lon="6.84831">
        <ele>1294.11</ele>
        <time>2022-06-26T07:22:37.000Z</time>
      </trkpt>
      <trkpt lat="43.84949" lon="6.84856">
        <ele>1291.01</ele>
        <time>2022-06-26T07:22:43.000Z</time>
      </trkpt>
      <trkpt lat="43.84948" lon="6.84883">
        <ele>1289.52</ele>
        <time>2022-06-26T07:22:52.000Z</time>
      </trkpt>
      <trkpt lat="43.84945" lon="6.84911">
        <ele>1286.62</ele>
        <time>2022-06-26T07:22:59.000Z</time>
      </trkpt>
      <trkpt lat="43.84929" lon="6.84896">
        <ele>1279.76</ele>
        <time>2022-06-26T07:23:11.000Z</time>
      </trkpt>
      <trkpt lat="43.84925" lon="6.84866">
        <ele>1276.17</ele>
        <time>2022-06-26T07:23:16.000Z</time>
      </trkpt>
      <trkpt lat="43.84916" lon="6.8489">
        <ele>1269.36</ele>
        <time>2022-06-26T07:23:35.000Z</time>
      </trkpt>
      <trkpt lat="43.84912" lon="6.84914">
        <ele>1267.06</ele>
        <time>2022-06-26T07:23:39.000Z</time>
      </trkpt>
      <trkpt lat="43.84912" lon="6.84941">
        <ele>1261.55</ele>
        <time>2022-06-26T07:23:45.000Z</time>
      </trkpt>
      <trkpt lat="43.84898" lon="6.84922">
        <ele>1256.69</ele>
        <time>2022-06-26T07:24:03.000Z</time>
      </trkpt>
      <trkpt lat="43.84889" lon="6.84898">
        <ele>1253.06</ele>
        <time>2022-06-26T07:24:08.000Z</time>
      </trkpt>
      <trkpt lat="43.8488" lon="6.84874">
        <ele>1249.97</ele>
        <time>2022-06-26T07:24:13.000Z</time>
      </trkpt>
      <trkpt lat="43.84875" lon="6.84844">
        <ele>1244.54</ele>
        <time>2022-06-26T07:24:20.000Z</time>
      </trkpt>
      <trkpt lat="43.84866" lon="6.84868">
        <ele>1237.33</ele>
        <time>2022-06-26T07:24:29.000Z</time>
      </trkpt>
      <trkpt lat="43.84857" lon="6.84891">
        <ele>1234.18</ele>
        <time>2022-06-26T07:24:33.000Z</time>
      </trkpt>
      <trkpt lat="43.84855" lon="6.84921">
        <ele>1230.4</ele>
        <time>2022-06-26T07:24:37.000Z</time>
      </trkpt>
      <trkpt lat="43.84857" lon="6.84947">
        <ele>1225.87</ele>
        <time>2022-06-26T07:24:41.000Z</time>
      </trkpt>
      <trkpt lat="43.8486" lon="6.84974">
        <ele>1220.99</ele>
        <time>2022-06-26T07:24:46.000Z</time>
      </trkpt>
      <trkpt lat="43.84844" lon="6.84962">
        <ele>1214.42</ele>
        <time>2022-06-26T07:25:11.000Z</time>
      </trkpt>
      <trkpt lat="43.84827" lon="6.84941">
        <ele>1209.3</ele>
        <time>2022-06-26T07:25:17.000Z</time>
      </trkpt>
      <trkpt lat="43.84815" lon="6.84916">
        <ele>1205.7</ele>
        <time>2022-06-26T07:25:21.000Z</time>
      </trkpt>
      <trkpt lat="43.84804" lon="6.8489">
        <ele>1200.8</ele>
        <time>2022-06-26T07:25:25.000Z</time>
      </trkpt>
      <trkpt lat="43.84794" lon="6.84865">
        <ele>1196.04</ele>
        <time>2022-06-26T07:25:29.000Z</time>
      </trkpt>
      <trkpt lat="43.84783" lon="6.84887">
        <ele>1189.25</ele>
        <time>2022-06-26T07:25:37.000Z</time>
      </trkpt>
      <trkpt lat="43.84776" lon="6.84913">
        <ele>1184.97</ele>
        <time>2022-06-26T07:25:42.000Z</time>
      </trkpt>
      <trkpt lat="43.84766" lon="6.84938">
        <ele>1180.21</ele>
        <time>2022-06-26T07:25:46.000Z</time>
      </trkpt>
      <trkpt lat="43.84765" lon="6.84963">
        <ele>1175.01</ele>
        <time>2022-06-26T07:25:51.000Z</time>
      </trkpt>
      <trkpt lat="43.84747" lon="6.8497">
        <ele>1167.77</ele>
        <time>2022-06-26T07:26:07.000Z</time>
      </trkpt>
      <trkpt lat="43.84749" lon="6.84995">
        <ele>1160.94</ele>
        <time>2022-06-26T07:26:16.000Z</time>
      </trkpt>
      <trkpt lat="43.84761" lon="6.85019">
        <ele>1157.07</ele>
        <time>2022-06-26T07:26:21.000Z</time>
      </trkpt>
      <trkpt lat="43.84764" lon="6.85047">
        <ele>1153.25</ele>
        <time>2022-06-26T07:26:28.000Z</time>
      </trkpt>
      <trkpt lat="43.84762" lon="6.85073">
        <ele>1152.43</ele>
        <time>2022-06-26T07:26:34.000Z</time>
      </trkpt>
      <trkpt lat="43.84746" lon="6.85095">
        <ele>1140.84</ele>
        <time>2022-06-26T07:26:56.000Z</time>
      </trkpt>
      <trkpt lat="43.84746" lon="6.85126">
        <ele>1138.22</ele>
        <time>2022-06-26T07:27:00.000Z</time>
      </trkpt>
      <trkpt lat="43.84741" lon="6.85151">
        <ele>1135.58</ele>
        <time>2022-06-26T07:27:05.000Z</time>
      </trkpt>
      <trkpt lat="43.84736" lon="6.85178">
        <ele>1129.15</ele>
        <time>2022-06-26T07:29:11.000Z</time>
      </trkpt>
      <trkpt lat="43.84734" lon="6.85208">
        <ele>1124.47</ele>
        <time>2022-06-26T07:29:16.000Z</time>
      </trkpt>
      <trkpt lat="43.8474" lon="6.85234">
        <ele>1119.7</ele>
        <time>2022-06-26T07:29:20.000Z</time>
      </trkpt>
      <trkpt lat="43.84744" lon="6.85262">
        <ele>1116.27</ele>
        <time>2022-06-26T07:29:24.000Z</time>
      </trkpt>
      <trkpt lat="43.84746" lon="6.85289">
        <ele>1110.08</ele>
        <time>2022-06-26T07:29:29.000Z</time>
      </trkpt>
      <trkpt lat="43.84739" lon="6.85317">
        <ele>1106.35</ele>
        <time>2022-06-26T07:29:33.000Z</time>
      </trkpt>
      <trkpt lat="43.84728" lon="6.85341">
        <ele>1103.24</ele>
        <time>2022-06-26T07:29:38.000Z</time>
      </trkpt>
      <trkpt lat="43.84725" lon="6.85369">
        <ele>1099.69</ele>
        <time>2022-06-26T07:29:43.000Z</time>
      </trkpt>
      <trkpt lat="43.84728" lon="6.85397">
        <ele>1096.25</ele>
        <time>2022-06-26T07:29:49.000Z</time>
      </trkpt>
      <trkpt lat="43.84713" lon="6.85415">
        <ele>1094.42</ele>
        <time>2022-06-26T07:29:54.000Z</time>
      </trkpt>
      <trkpt lat="43.8471" lon="6.85443">
        <ele>1090.86</ele>
        <time>2022-06-26T07:29:59.000Z</time>
      </trkpt>
      <trkpt lat="43.84698" lon="6.85466">
        <ele>1086.63</ele>
        <time>2022-06-26T07:30:04.000Z</time>
      </trkpt>
      <trkpt lat="43.84697" lon="6.85494">
        <ele>1081.05</ele>
        <time>2022-06-26T07:30:10.000Z</time>
      </trkpt>
      <trkpt lat="43.84703" lon="6.85521">
        <ele>1079.21</ele>
        <time>2022-06-26T07:30:14.000Z</time>
      </trkpt>
      <trkpt lat="43.84708" lon="6.85551">
        <ele>1079.67</ele>
        <time>2022-06-26T07:30:18.000Z</time>
      </trkpt>
      <trkpt lat="43.84712" lon="6.85575">
        <ele>1077.07</ele>
        <time>2022-06-26T07:30:22.000Z</time>
      </trkpt>
      <trkpt lat="43.84706" lon="6.85602">
        <ele>1070.52</ele>
        <time>2022-06-26T07:30:29.000Z</time>
      </trkpt>
      <trkpt lat="43.84703" lon="6.85629">
        <ele>1068.17</ele>
        <time>2022-06-26T07:30:34.000Z</time>
      </trkpt>
      <trkpt lat="43.84693" lon="6.85654">
        <ele>1060.83</ele>
        <time>2022-06-26T07:30:41.000Z</time>
      </trkpt>
      <trkpt lat="43.8468" lon="6.85636">
        <ele>1046.2</ele>
        <time>2022-06-26T07:31:02.000Z</time>
      </trkpt>
      <trkpt lat="43.84669" lon="6.85656">
        <ele>1045.11</ele>
        <time>2022-06-26T07:31:15.000Z</time>
      </trkpt>
      <trkpt lat="43.84654" lon="6.85675">
        <ele>1039.28</ele>
        <time>2022-06-26T07:31:21.000Z</time>
      </trkpt>
      <trkpt lat="43.84634" lon="6.8568">
        <ele>1033.34</ele>
        <time>2022-06-26T07:31:31.000Z</time>
      </trkpt>
      <trkpt lat="43.84615" lon="6.85691">
        <ele>1026.77</ele>
        <time>2022-06-26T07:31:44.000Z</time>
      </trkpt>
      <trkpt lat="43.84627" lon="6.85714">
        <ele>1021.55</ele>
        <time>2022-06-26T07:31:49.000Z</time>
      </trkpt>
      <trkpt lat="43.84607" lon="6.85724">
        <ele>1018.46</ele>
        <time>2022-06-26T07:32:00.000Z</time>
      </trkpt>
      <trkpt lat="43.84586" lon="6.85716">
        <ele>1008.98</ele>
        <time>2022-06-26T07:32:06.000Z</time>
      </trkpt>
      <trkpt lat="43.84578" lon="6.8569">
        <ele>1005.36</ele>
        <time>2022-06-26T07:32:11.000Z</time>
      </trkpt>
      <trkpt lat="43.84581" lon="6.85664">
        <ele>1003.41</ele>
        <time>2022-06-26T07:32:19.000Z</time>
      </trkpt>
      <trkpt lat="43.84593" lon="6.85643">
        <ele>1000.63</ele>
        <time>2022-06-26T07:32:26.000Z</time>
      </trkpt>
      <trkpt lat="43.84573" lon="6.8564">
        <ele>988.92</ele>
        <time>2022-06-26T07:33:17.000Z</time>
      </trkpt>
      <trkpt lat="43.84556" lon="6.85655">
        <ele>982.15</ele>
        <time>2022-06-26T07:33:26.000Z</time>
      </trkpt>
      <trkpt lat="43.8454" lon="6.85667">
        <ele>977.45</ele>
        <time>2022-06-26T07:33:33.000Z</time>
      </trkpt>
      <trkpt lat="43.84528" lon="6.85686">
        <ele>973.25</ele>
        <time>2022-06-26T07:33:39.000Z</time>
      </trkpt>
      <trkpt lat="43.84528" lon="6.85712">
        <ele>968.99</ele>
        <time>2022-06-26T07:33:43.000Z</time>
      </trkpt>
      <trkpt lat="43.84529" lon="6.85737">
        <ele>965.99</ele>
        <time>2022-06-26T07:33:47.000Z</time>
      </trkpt>
      <trkpt lat="43.84524" lon="6.85763">
        <ele>963.58</ele>
        <time>2022-06-26T07:33:51.000Z</time>
      </trkpt>
      <trkpt lat="43.84511" lon="6.85783">
        <ele>957.19</ele>
        <time>2022-06-26T07:33:58.000Z</time>
      </trkpt>
      <trkpt lat="43.84512" lon="6.85808">
        <ele>945.58</ele>
        <time>2022-06-26T07:34:18.000Z</time>
      </trkpt>
      <trkpt lat="43.84492" lon="6.85808">
        <ele>940.96</ele>
        <time>2022-06-26T07:34:31.000Z</time>
      </trkpt>
      <trkpt lat="43.84479" lon="6.85825">
        <ele>938.54</ele>
        <time>2022-06-26T07:34:35.000Z</time>
      </trkpt>
      <trkpt lat="43.8446" lon="6.85837">
        <ele>936.21</ele>
        <time>2022-06-26T07:34:38.000Z</time>
      </trkpt>
      <trkpt lat="43.84442" lon="6.85852">
        <ele>932.8</ele>
        <time>2022-06-26T07:34:41.000Z</time>
      </trkpt>
      <trkpt lat="43.84424" lon="6.8587">
        <ele>928.56</ele>
        <time>2022-06-26T07:34:44.000Z</time>
      </trkpt>
      <trkpt lat="43.84406" lon="6.85884">
        <ele>922.75</ele>
        <time>2022-06-26T07:34:48.000Z</time>
      </trkpt>
      <trkpt lat="43.8439" lon="6.8587">
        <ele>920.18</ele>
        <time>2022-06-26T07:34:57.000Z</time>
      </trkpt>
      <trkpt lat="43.84369" lon="6.85862">
        <ele>920.16</ele>
        <time>2022-06-26T07:35:03.000Z</time>
      </trkpt>
      <trkpt lat="43.84349" lon="6.85867">
        <ele>918.23</ele>
        <time>2022-06-26T07:35:09.000Z</time>
      </trkpt>
      <trkpt lat="43.84332" lon="6.85855">
        <ele>916.86</ele>
        <time>2022-06-26T07:35:19.000Z</time>
      </trkpt>
      <trkpt lat="43.84318" lon="6.85872">
        <ele>911.42</ele>
        <time>2022-06-26T07:36:12.000Z</time>
      </trkpt>
      <trkpt lat="43.84301" lon="6.85884">
        <ele>910.87</ele>
        <time>2022-06-26T07:36:24.000Z</time>
      </trkpt>
      <trkpt lat="43.84283" lon="6.85876">
        <ele>909.68</ele>
        <time>2022-06-26T07:57:11.999Z</time>
      </trkpt>
      <trkpt lat="43.84286" lon="6.85848">
        <ele>907.4</ele>
        <time>2022-06-26T07:57:22.999Z</time>
      </trkpt>
      <trkpt lat="43.84299" lon="6.8583">
        <ele>902.98</ele>
        <time>2022-06-26T07:57:36.999Z</time>
      </trkpt>
      <trkpt lat="43.84317" lon="6.85824">
        <ele>901.21</ele>
        <time>2022-06-26T07:57:53.999Z</time>
      </trkpt>
      <trkpt lat="43.84299" lon="6.85832">
        <ele>902.04</ele>
        <time>2022-06-26T08:04:15.999Z</time>
      </trkpt>
      <trkpt lat="43.84287" lon="6.85852">
        <ele>901.93</ele>
        <time>2022-06-26T08:04:24.999Z</time>
      </trkpt>
      <trkpt lat="43.84295" lon="6.85876">
        <ele>900.52</ele>
        <time>2022-06-26T08:04:36.999Z</time>
      </trkpt>
      <trkpt lat="43.84313" lon="6.85875">
        <ele>910.42</ele>
        <time>2022-06-26T08:05:05.999Z</time>
      </trkpt>
      <trkpt lat="43.84332" lon="6.8587">
        <ele>917.21</ele>
        <time>2022-06-26T08:05:35.999Z</time>
      </trkpt>
      <trkpt lat="43.84351" lon="6.85867">
        <ele>917.04</ele>
        <time>2022-06-26T08:06:23.999Z</time>
      </trkpt>
      <trkpt lat="43.84369" lon="6.85866">
        <ele>918.71</ele>
        <time>2022-06-26T08:06:35.999Z</time>
      </trkpt>
      <trkpt lat="43.84388" lon="6.85868">
        <ele>920.06</ele>
        <time>2022-06-26T08:06:48.999Z</time>
      </trkpt>
      <trkpt lat="43.84406" lon="6.85873">
        <ele>921.42</ele>
        <time>2022-06-26T08:07:03.999Z</time>
      </trkpt>
      <trkpt lat="43.84425" lon="6.85871">
        <ele>922.6</ele>
        <time>2022-06-26T08:07:18.999Z</time>
      </trkpt>
      <trkpt lat="43.84439" lon="6.85856">
        <ele>922.13</ele>
        <time>2022-06-26T08:07:31.999Z</time>
      </trkpt>
      <trkpt lat="43.84454" lon="6.85841">
        <ele>929.61</ele>
        <time>2022-06-26T08:07:57.999Z</time>
      </trkpt>
      <trkpt lat="43.8447" lon="6.85831">
        <ele>931.5</ele>
        <time>2022-06-26T08:08:29.999Z</time>
      </trkpt>
      <trkpt lat="43.84487" lon="6.8582">
        <ele>934.71</ele>
        <time>2022-06-26T08:08:53.999Z</time>
      </trkpt>
      <trkpt lat="43.84504" lon="6.85811">
        <ele>940.23</ele>
        <time>2022-06-26T08:09:24.999Z</time>
      </trkpt>
      <trkpt lat="43.84521" lon="6.85822">
        <ele>946.41</ele>
        <time>2022-06-26T08:09:50.999Z</time>
      </trkpt>
      <trkpt lat="43.84536" lon="6.85838">
        <ele>950.88</ele>
        <time>2022-06-26T08:10:10.999Z</time>
      </trkpt>
      <trkpt lat="43.8455" lon="6.85855">
        <ele>952.39</ele>
        <time>2022-06-26T08:10:23.999Z</time>
      </trkpt>
      <trkpt lat="43.84569" lon="6.85848">
        <ele>958.27</ele>
        <time>2022-06-26T08:23:47.999Z</time>
      </trkpt>
      <trkpt lat="43.84573" lon="6.85873">
        <ele>955.87</ele>
        <time>2022-06-26T08:26:14.999Z</time>
      </trkpt>
      <trkpt lat="43.8459" lon="6.85888">
        <ele>953.85</ele>
        <time>2022-06-26T08:26:38.999Z</time>
      </trkpt>
      <trkpt lat="43.84605" lon="6.85904">
        <ele>953.62</ele>
        <time>2022-06-26T08:26:45.999Z</time>
      </trkpt>
      <trkpt lat="43.84619" lon="6.85923">
        <ele>954.65</ele>
        <time>2022-06-26T08:26:53.999Z</time>
      </trkpt>
      <trkpt lat="43.84634" lon="6.8594">
        <ele>955.09</ele>
        <time>2022-06-26T08:27:04.999Z</time>
      </trkpt>
      <trkpt lat="43.84644" lon="6.85961">
        <ele>956.46</ele>
        <time>2022-06-26T08:27:13.999Z</time>
      </trkpt>
      <trkpt lat="43.8466" lon="6.85974">
        <ele>960.1</ele>
        <time>2022-06-26T08:27:24.999Z</time>
      </trkpt>
      <trkpt lat="43.84678" lon="6.85978">
        <ele>964.77</ele>
        <time>2022-06-26T08:27:47.999Z</time>
      </trkpt>
      <trkpt lat="43.84687" lon="6.86">
        <ele>968.45</ele>
        <time>2022-06-26T08:28:06.999Z</time>
      </trkpt>
      <trkpt lat="43.84703" lon="6.86012">
        <ele>971.15</ele>
        <time>2022-06-26T08:28:20.999Z</time>
      </trkpt>
      <trkpt lat="43.84712" lon="6.86035">
        <ele>972.59</ele>
        <time>2022-06-26T08:28:32.999Z</time>
      </trkpt>
      <trkpt lat="43.84712" lon="6.86062">
        <ele>974.2</ele>
        <time>2022-06-26T08:28:43.999Z</time>
      </trkpt>
      <trkpt lat="43.84712" lon="6.86088">
        <ele>974.99</ele>
        <time>2022-06-26T08:28:53.999Z</time>
      </trkpt>
      <trkpt lat="43.8471" lon="6.86113">
        <ele>977.06</ele>
        <time>2022-06-26T08:29:04.999Z</time>
      </trkpt>
      <trkpt lat="43.84715" lon="6.86138">
        <ele>978.92</ele>
        <time>2022-06-26T08:29:15.999Z</time>
      </trkpt>
      <trkpt lat="43.8473" lon="6.86154">
        <ele>981.92</ele>
        <time>2022-06-26T08:29:30.999Z</time>
      </trkpt>
      <trkpt lat="43.84747" lon="6.86164">
        <ele>986.15</ele>
        <time>2022-06-26T08:29:43.999Z</time>
      </trkpt>
      <trkpt lat="43.84765" lon="6.86176">
        <ele>989.02</ele>
        <time>2022-06-26T08:30:07.999Z</time>
      </trkpt>
      <trkpt lat="43.84777" lon="6.86195">
        <ele>989.94</ele>
        <time>2022-06-26T08:30:15.999Z</time>
      </trkpt>
      <trkpt lat="43.84781" lon="6.8622">
        <ele>990.08</ele>
        <time>2022-06-26T08:30:23.999Z</time>
      </trkpt>
      <trkpt lat="43.8478" lon="6.86247">
        <ele>992.52</ele>
        <time>2022-06-26T08:30:32.999Z</time>
      </trkpt>
      <trkpt lat="43.84776" lon="6.86273">
        <ele>993.37</ele>
        <time>2022-06-26T08:30:40.999Z</time>
      </trkpt>
      <trkpt lat="43.84782" lon="6.86298">
        <ele>995.99</ele>
        <time>2022-06-26T08:30:50.999Z</time>
      </trkpt>
      <trkpt lat="43.84788" lon="6.86322">
        <ele>998.42</ele>
        <time>2022-06-26T08:30:58.999Z</time>
      </trkpt>
      <trkpt lat="43.84797" lon="6.86347">
        <ele>999.31</ele>
        <time>2022-06-26T08:31:07.999Z</time>
      </trkpt>
      <trkpt lat="43.84813" lon="6.8636">
        <ele>997.88</ele>
        <time>2022-06-26T08:31:18.999Z</time>
      </trkpt>
      <trkpt lat="43.84829" lon="6.86377">
        <ele>997.27</ele>
        <time>2022-06-26T08:31:28.999Z</time>
      </trkpt>
      <trkpt lat="43.84843" lon="6.86394">
        <ele>997.61</ele>
        <time>2022-06-26T08:31:37.999Z</time>
      </trkpt>
      <trkpt lat="43.84853" lon="6.86416">
        <ele>1000.64</ele>
        <time>2022-06-26T08:31:48.999Z</time>
      </trkpt>
      <trkpt lat="43.84869" lon="6.8643">
        <ele>1003.27</ele>
        <time>2022-06-26T08:32:00.999Z</time>
      </trkpt>
      <trkpt lat="43.84874" lon="6.86454">
        <ele>1011.91</ele>
        <time>2022-06-26T08:32:10.999Z</time>
      </trkpt>
      <trkpt lat="43.84883" lon="6.86475">
        <ele>1015.14</ele>
        <time>2022-06-26T08:32:22.999Z</time>
      </trkpt>
      <trkpt lat="43.84896" lon="6.86493">
        <ele>1019.76</ele>
        <time>2022-06-26T08:32:51.999Z</time>
      </trkpt>
      <trkpt lat="43.84909" lon="6.8651">
        <ele>1025.77</ele>
        <time>2022-06-26T08:33:27.999Z</time>
      </trkpt>
      <trkpt lat="43.84924" lon="6.86527">
        <ele>1028.4</ele>
        <time>2022-06-26T08:33:47.999Z</time>
      </trkpt>
      <trkpt lat="43.84937" lon="6.86544">
        <ele>1030.36</ele>
        <time>2022-06-26T08:34:22.999Z</time>
      </trkpt>
      <trkpt lat="43.84944" lon="6.86568">
        <ele>1034.64</ele>
        <time>2022-06-26T08:35:05.999Z</time>
      </trkpt>
      <trkpt lat="43.84939" lon="6.86592">
        <ele>1037.45</ele>
        <time>2022-06-26T08:35:27.999Z</time>
      </trkpt>
      <trkpt lat="43.84949" lon="6.86615">
        <ele>1044.75</ele>
        <time>2022-06-26T08:36:29.999Z</time>
      </trkpt>
      <trkpt lat="43.84963" lon="6.86631">
        <ele>1043.87</ele>
        <time>2022-06-26T08:36:40.999Z</time>
      </trkpt>
      <trkpt lat="43.84981" lon="6.86643">
        <ele>1042.81</ele>
        <time>2022-06-26T08:36:49.999Z</time>
      </trkpt>
      <trkpt lat="43.84997" lon="6.86654">
        <ele>1042.49</ele>
        <time>2022-06-26T08:36:57.999Z</time>
      </trkpt>
      <trkpt lat="43.85011" lon="6.86671">
        <ele>1041.57</ele>
        <time>2022-06-26T08:37:02.999Z</time>
      </trkpt>
      <trkpt lat="43.85025" lon="6.8669">
        <ele>1038.82</ele>
        <time>2022-06-26T08:37:08.999Z</time>
      </trkpt>
      <trkpt lat="43.85027" lon="6.86715">
        <ele>1034.88</ele>
        <time>2022-06-26T08:37:13.999Z</time>
      </trkpt>
      <trkpt lat="43.85032" lon="6.86739">
        <ele>1034.48</ele>
        <time>2022-06-26T08:37:35.999Z</time>
      </trkpt>
      <trkpt lat="43.85037" lon="6.86763">
        <ele>1036.21</ele>
        <time>2022-06-26T08:38:00.999Z</time>
      </trkpt>
      <trkpt lat="43.85046" lon="6.86786">
        <ele>1037.6</ele>
        <time>2022-06-26T08:38:18.999Z</time>
      </trkpt>
      <trkpt lat="43.85046" lon="6.86812">
        <ele>1038.76</ele>
        <time>2022-06-26T08:38:27.999Z</time>
      </trkpt>
      <trkpt lat="43.85049" lon="6.86838">
        <ele>1040.41</ele>
        <time>2022-06-26T08:38:37.999Z</time>
      </trkpt>
      <trkpt lat="43.85057" lon="6.8686">
        <ele>1040.98</ele>
        <time>2022-06-26T08:38:48.999Z</time>
      </trkpt>
      <trkpt lat="43.85067" lon="6.86884">
        <ele>1042.21</ele>
        <time>2022-06-26T08:38:59.999Z</time>
      </trkpt>
      <trkpt lat="43.85074" lon="6.86908">
        <ele>1042.9</ele>
        <time>2022-06-26T08:39:09.999Z</time>
      </trkpt>
      <trkpt lat="43.85082" lon="6.86933">
        <ele>1044.02</ele>
        <time>2022-06-26T08:39:21.999Z</time>
      </trkpt>
      <trkpt lat="43.85094" lon="6.86953">
        <ele>1050.5</ele>
        <time>2022-06-26T08:39:48.999Z</time>
      </trkpt>
      <trkpt lat="43.85105" lon="6.86975">
        <ele>1052.96</ele>
        <time>2022-06-26T08:40:08.999Z</time>
      </trkpt>
      <trkpt lat="43.85115" lon="6.86996">
        <ele>1052.89</ele>
        <time>2022-06-26T08:40:17.999Z</time>
      </trkpt>
      <trkpt lat="43.85129" lon="6.87013">
        <ele>1052.54</ele>
        <time>2022-06-26T08:40:27.999Z</time>
      </trkpt>
      <trkpt lat="43.85142" lon="6.87031">
        <ele>1051.82</ele>
        <time>2022-06-26T08:40:35.999Z</time>
      </trkpt>
      <trkpt lat="43.85153" lon="6.87052">
        <ele>1052.18</ele>
        <time>2022-06-26T08:40:43.999Z</time>
      </trkpt>
      <trkpt lat="43.85166" lon="6.8707">
        <ele>1055.59</ele>
        <time>2022-06-26T08:41:03.999Z</time>
      </trkpt>
      <trkpt lat="43.8517" lon="6.87095">
        <ele>1058.64</ele>
        <time>2022-06-26T08:41:25.999Z</time>
      </trkpt>
      <trkpt lat="43.85183" lon="6.87113">
        <ele>1062.26</ele>
        <time>2022-06-26T08:41:47.999Z</time>
      </trkpt>
      <trkpt lat="43.85198" lon="6.87127">
        <ele>1064.31</ele>
        <time>2022-06-26T08:42:06.999Z</time>
      </trkpt>
      <trkpt lat="43.85214" lon="6.8714">
        <ele>1070.98</ele>
        <time>2022-06-26T08:42:30.999Z</time>
      </trkpt>
      <trkpt lat="43.85222" lon="6.87163">
        <ele>1072.02</ele>
        <time>2022-06-26T08:42:48.999Z</time>
      </trkpt>
      <trkpt lat="43.85226" lon="6.87188">
        <ele>1072.52</ele>
        <time>2022-06-26T08:43:08.999Z</time>
      </trkpt>
      <trkpt lat="43.85232" lon="6.87212">
        <ele>1076.65</ele>
        <time>2022-06-26T08:43:30.999Z</time>
      </trkpt>
      <trkpt lat="43.85248" lon="6.87224">
        <ele>1083.24</ele>
        <time>2022-06-26T08:43:56.999Z</time>
      </trkpt>
      <trkpt lat="43.85264" lon="6.87239">
        <ele>1082.63</ele>
        <time>2022-06-26T08:44:07.999Z</time>
      </trkpt>
      <trkpt lat="43.85268" lon="6.87266">
        <ele>1080.24</ele>
        <time>2022-06-26T08:44:15.999Z</time>
      </trkpt>
      <trkpt lat="43.85275" lon="6.87292">
        <ele>1078.95</ele>
        <time>2022-06-26T08:44:20.999Z</time>
      </trkpt>
      <trkpt lat="43.85279" lon="6.87319">
        <ele>1077.23</ele>
        <time>2022-06-26T08:44:24.999Z</time>
      </trkpt>
      <trkpt lat="43.85274" lon="6.87344">
        <ele>1076.21</ele>
        <time>2022-06-26T08:44:28.999Z</time>
      </trkpt>
      <trkpt lat="43.8528" lon="6.87373">
        <ele>1074.87</ele>
        <time>2022-06-26T08:44:33.999Z</time>
      </trkpt>
      <trkpt lat="43.85292" lon="6.87393">
        <ele>1073.73</ele>
        <time>2022-06-26T08:44:37.999Z</time>
      </trkpt>
      <trkpt lat="43.8531" lon="6.87402">
        <ele>1072.63</ele>
        <time>2022-06-26T08:44:42.999Z</time>
      </trkpt>
      <trkpt lat="43.85312" lon="6.87427">
        <ele>1070.99</ele>
        <time>2022-06-26T08:45:04.999Z</time>
      </trkpt>
      <trkpt lat="43.85321" lon="6.87455">
        <ele>1074.58</ele>
        <time>2022-06-26T08:45:13.999Z</time>
      </trkpt>
      <trkpt lat="43.85324" lon="6.87482">
        <ele>1072.33</ele>
        <time>2022-06-26T08:45:20.999Z</time>
      </trkpt>
      <trkpt lat="43.85329" lon="6.8751">
        <ele>1070.42</ele>
        <time>2022-06-26T08:45:28.999Z</time>
      </trkpt>
      <trkpt lat="43.85346" lon="6.87524">
        <ele>1066.96</ele>
        <time>2022-06-26T08:45:35.999Z</time>
      </trkpt>
      <trkpt lat="43.8536" lon="6.87542">
        <ele>1068.48</ele>
        <time>2022-06-26T08:45:45.999Z</time>
      </trkpt>
      <trkpt lat="43.85369" lon="6.87567">
        <ele>1069.13</ele>
        <time>2022-06-26T08:45:54.999Z</time>
      </trkpt>
      <trkpt lat="43.8538" lon="6.87589">
        <ele>1071.88</ele>
        <time>2022-06-26T08:46:04.999Z</time>
      </trkpt>
      <trkpt lat="43.85395" lon="6.87603">
        <ele>1076.1</ele>
        <time>2022-06-26T08:46:16.999Z</time>
      </trkpt>
      <trkpt lat="43.85408" lon="6.8762">
        <ele>1079.27</ele>
        <time>2022-06-26T08:46:52.999Z</time>
      </trkpt>
      <trkpt lat="43.85415" lon="6.87644">
        <ele>1083.48</ele>
        <time>2022-06-26T08:47:16.999Z</time>
      </trkpt>
      <trkpt lat="43.85423" lon="6.87667">
        <ele>1086.76</ele>
        <time>2022-06-26T08:47:46.999Z</time>
      </trkpt>
      <trkpt lat="43.85431" lon="6.87691">
        <ele>1089.2</ele>
        <time>2022-06-26T08:48:13.999Z</time>
      </trkpt>
      <trkpt lat="43.85444" lon="6.87711">
        <ele>1091.81</ele>
        <time>2022-06-26T08:48:30.999Z</time>
      </trkpt>
      <trkpt lat="43.85452" lon="6.87733">
        <ele>1092.7</ele>
        <time>2022-06-26T08:48:40.999Z</time>
      </trkpt>
      <trkpt lat="43.85463" lon="6.87755">
        <ele>1095.2</ele>
        <time>2022-06-26T08:49:07.999Z</time>
      </trkpt>
      <trkpt lat="43.85461" lon="6.8778">
        <ele>1097.55</ele>
        <time>2022-06-26T08:49:36.999Z</time>
      </trkpt>
      <trkpt lat="43.85459" lon="6.87807">
        <ele>1098.77</ele>
        <time>2022-06-26T08:50:03.999Z</time>
      </trkpt>
      <trkpt lat="43.85447" lon="6.87829">
        <ele>1103.15</ele>
        <time>2022-06-26T08:50:29.999Z</time>
      </trkpt>
      <trkpt lat="43.85438" lon="6.87851">
        <ele>1106.25</ele>
        <time>2022-06-26T08:50:47.999Z</time>
      </trkpt>
      <trkpt lat="43.85445" lon="6.87875">
        <ele>1112.37</ele>
        <time>2022-06-26T08:51:49.999Z</time>
      </trkpt>
      <trkpt lat="43.85456" lon="6.87895">
        <ele>1118.7</ele>
        <time>2022-06-26T08:52:19.999Z</time>
      </trkpt>
      <trkpt lat="43.85468" lon="6.87914">
        <ele>1123.16</ele>
        <time>2022-06-26T08:52:47.999Z</time>
      </trkpt>
      <trkpt lat="43.8548" lon="6.87933">
        <ele>1127.04</ele>
        <time>2022-06-26T08:53:15.999Z</time>
      </trkpt>
      <trkpt lat="43.85488" lon="6.87956">
        <ele>1129.3</ele>
        <time>2022-06-26T08:53:34.999Z</time>
      </trkpt>
      <trkpt lat="43.85495" lon="6.87982">
        <ele>1128.73</ele>
        <time>2022-06-26T08:53:45.999Z</time>
      </trkpt>
      <trkpt lat="43.85496" lon="6.88009">
        <ele>1130.56</ele>
        <time>2022-06-26T08:53:56.999Z</time>
      </trkpt>
      <trkpt lat="43.85498" lon="6.88034">
        <ele>1132.48</ele>
        <time>2022-06-26T08:54:06.999Z</time>
      </trkpt>
      <trkpt lat="43.85509" lon="6.88054">
        <ele>1141.63</ele>
        <time>2022-06-26T08:54:34.999Z</time>
      </trkpt>
      <trkpt lat="43.85514" lon="6.88079">
        <ele>1145.85</ele>
        <time>2022-06-26T08:54:57.999Z</time>
      </trkpt>
      <trkpt lat="43.85532" lon="6.8808">
        <ele>1152.7</ele>
        <time>2022-06-26T08:55:47.999Z</time>
      </trkpt>
      <trkpt lat="43.8555" lon="6.88074">
        <ele>1160.9</ele>
        <time>2022-06-26T08:56:19.999Z</time>
      </trkpt>
      <trkpt lat="43.85566" lon="6.88086">
        <ele>1167.34</ele>
        <time>2022-06-26T08:56:47.999Z</time>
      </trkpt>
      <trkpt lat="43.85584" lon="6.88094">
        <ele>1165.96</ele>
        <time>2022-06-26T08:57:32.999Z</time>
      </trkpt>
      <trkpt lat="43.85594" lon="6.88114">
        <ele>1169.99</ele>
        <time>2022-06-26T08:57:53.999Z</time>
      </trkpt>
      <trkpt lat="43.85607" lon="6.88133">
        <ele>1173.32</ele>
        <time>2022-06-26T08:58:16.999Z</time>
      </trkpt>
      <trkpt lat="43.85621" lon="6.88149">
        <ele>1175.01</ele>
        <time>2022-06-26T08:58:43.999Z</time>
      </trkpt>
      <trkpt lat="43.85637" lon="6.88162">
        <ele>1179.8</ele>
        <time>2022-06-26T08:59:25.999Z</time>
      </trkpt>
      <trkpt lat="43.8565" lon="6.88179">
        <ele>1182.87</ele>
        <time>2022-06-26T08:59:59.999Z</time>
      </trkpt>
      <trkpt lat="43.85662" lon="6.88199">
        <ele>1186.76</ele>
        <time>2022-06-26T09:00:25.999Z</time>
      </trkpt>
      <trkpt lat="43.85673" lon="6.88219">
        <ele>1192.22</ele>
        <time>2022-06-26T09:00:55.999Z</time>
      </trkpt>
      <trkpt lat="43.85688" lon="6.88233">
        <ele>1198.27</ele>
        <time>2022-06-26T09:01:42.999Z</time>
      </trkpt>
      <trkpt lat="43.85705" lon="6.88223">
        <ele>1207.22</ele>
        <time>2022-06-26T09:02:24.999Z</time>
      </trkpt>
      <trkpt lat="43.8571" lon="6.88199">
        <ele>1212.71</ele>
        <time>2022-06-26T09:03:12.999Z</time>
      </trkpt>
      <trkpt lat="43.85728" lon="6.88205">
        <ele>1218.47</ele>
        <time>2022-06-26T09:04:18.999Z</time>
      </trkpt>
      <trkpt lat="43.85732" lon="6.8823">
        <ele>1221.16</ele>
        <time>2022-06-26T09:04:37.999Z</time>
      </trkpt>
      <trkpt lat="43.85742" lon="6.88251">
        <ele>1225.07</ele>
        <time>2022-06-26T09:05:21.999Z</time>
      </trkpt>
      <trkpt lat="43.85743" lon="6.88277">
        <ele>1224.98</ele>
        <time>2022-06-26T09:05:32.999Z</time>
      </trkpt>
      <trkpt lat="43.85749" lon="6.88304">
        <ele>1225.63</ele>
        <time>2022-06-26T09:05:43.999Z</time>
      </trkpt>
      <trkpt lat="43.85756" lon="6.88327">
        <ele>1226.38</ele>
        <time>2022-06-26T09:05:51.999Z</time>
      </trkpt>
      <trkpt lat="43.8576" lon="6.88351">
        <ele>1225.98</ele>
        <time>2022-06-26T09:05:58.999Z</time>
      </trkpt>
      <trkpt lat="43.85769" lon="6.88376">
        <ele>1225.01</ele>
        <time>2022-06-26T09:06:05.999Z</time>
      </trkpt>
      <trkpt lat="43.8578" lon="6.88399">
        <ele>1222.86</ele>
        <time>2022-06-26T09:06:09.999Z</time>
      </trkpt>
      <trkpt lat="43.85787" lon="6.88424">
        <ele>1220.25</ele>
        <time>2022-06-26T09:06:13.999Z</time>
      </trkpt>
      <trkpt lat="43.8579" lon="6.88449">
        <ele>1217.31</ele>
        <time>2022-06-26T09:06:18.999Z</time>
      </trkpt>
      <trkpt lat="43.85801" lon="6.88469">
        <ele>1215.32</ele>
        <time>2022-06-26T09:06:23.999Z</time>
      </trkpt>
      <trkpt lat="43.85814" lon="6.88491">
        <ele>1214.53</ele>
        <time>2022-06-26T09:06:28.999Z</time>
      </trkpt>
      <trkpt lat="43.85824" lon="6.88514">
        <ele>1211.97</ele>
        <time>2022-06-26T09:06:35.999Z</time>
      </trkpt>
      <trkpt lat="43.85831" lon="6.88541">
        <ele>1211.2</ele>
        <time>2022-06-26T09:06:42.999Z</time>
      </trkpt>
      <trkpt lat="43.85838" lon="6.88565">
        <ele>1208.09</ele>
        <time>2022-06-26T09:06:48.999Z</time>
      </trkpt>
      <trkpt lat="43.85845" lon="6.88594">
        <ele>1205.7</ele>
        <time>2022-06-26T09:06:53.999Z</time>
      </trkpt>
      <trkpt lat="43.85852" lon="6.88622">
        <ele>1200.95</ele>
        <time>2022-06-26T09:06:57.999Z</time>
      </trkpt>
      <trkpt lat="43.85857" lon="6.88646">
        <ele>1197.1</ele>
        <time>2022-06-26T09:07:02.999Z</time>
      </trkpt>
      <trkpt lat="43.85865" lon="6.88671">
        <ele>1193.75</ele>
        <time>2022-06-26T09:07:07.999Z</time>
      </trkpt>
      <trkpt lat="43.85883" lon="6.88685">
        <ele>1187.59</ele>
        <time>2022-06-26T09:07:17.999Z</time>
      </trkpt>
      <trkpt lat="43.8589" lon="6.8871">
        <ele>1181.5</ele>
        <time>2022-06-26T09:07:26.999Z</time>
      </trkpt>
      <trkpt lat="43.85899" lon="6.88737">
        <ele>1178.99</ele>
        <time>2022-06-26T09:07:34.999Z</time>
      </trkpt>
      <trkpt lat="43.85906" lon="6.8876">
        <ele>1175.49</ele>
        <time>2022-06-26T09:07:38.999Z</time>
      </trkpt>
      <trkpt lat="43.85916" lon="6.88783">
        <ele>1171.2</ele>
        <time>2022-06-26T09:07:43.999Z</time>
      </trkpt>
      <trkpt lat="43.85922" lon="6.88807">
        <ele>1168.01</ele>
        <time>2022-06-26T09:07:47.999Z</time>
      </trkpt>
      <trkpt lat="43.85932" lon="6.88831">
        <ele>1164.6</ele>
        <time>2022-06-26T09:07:52.999Z</time>
      </trkpt>
      <trkpt lat="43.85943" lon="6.88854">
        <ele>1158.25</ele>
        <time>2022-06-26T09:08:00.999Z</time>
      </trkpt>
      <trkpt lat="43.85952" lon="6.88878">
        <ele>1151.6</ele>
        <time>2022-06-26T09:08:08.999Z</time>
      </trkpt>
      <trkpt lat="43.8596" lon="6.889">
        <ele>1148.85</ele>
        <time>2022-06-26T09:08:13.999Z</time>
      </trkpt>
      <trkpt lat="43.85976" lon="6.88917">
        <ele>1142.71</ele>
        <time>2022-06-26T09:08:19.999Z</time>
      </trkpt>
      <trkpt lat="43.85987" lon="6.8894">
        <ele>1135.7</ele>
        <time>2022-06-26T09:09:40.999Z</time>
      </trkpt>
      <trkpt lat="43.86006" lon="6.88954">
        <ele>1131.05</ele>
        <time>2022-06-26T09:09:47.999Z</time>
      </trkpt>
      <trkpt lat="43.86019" lon="6.88974">
        <ele>1126.68</ele>
        <time>2022-06-26T09:09:52.999Z</time>
      </trkpt>
      <trkpt lat="43.86033" lon="6.88992">
        <ele>1119.97</ele>
        <time>2022-06-26T09:09:58.999Z</time>
      </trkpt>
      <trkpt lat="43.86042" lon="6.89013">
        <ele>1112.62</ele>
        <time>2022-06-26T09:10:05.999Z</time>
      </trkpt>
      <trkpt lat="43.86053" lon="6.89036">
        <ele>1103.81</ele>
        <time>2022-06-26T09:10:18.999Z</time>
      </trkpt>
      <trkpt lat="43.86055" lon="6.89061">
        <ele>1099.65</ele>
        <time>2022-06-26T09:10:24.999Z</time>
      </trkpt>
      <trkpt lat="43.86055" lon="6.8909">
        <ele>1095.53</ele>
        <time>2022-06-26T09:10:30.999Z</time>
      </trkpt>
      <trkpt lat="43.86061" lon="6.89118">
        <ele>1091.35</ele>
        <time>2022-06-26T09:10:35.999Z</time>
      </trkpt>
      <trkpt lat="43.8607" lon="6.89141">
        <ele>1083.85</ele>
        <time>2022-06-26T09:11:11.999Z</time>
      </trkpt>
      <trkpt lat="43.86064" lon="6.89166">
        <ele>1090.5</ele>
        <time>2022-06-26T09:11:40.999Z</time>
      </trkpt>
      <trkpt lat="43.86065" lon="6.89191">
        <ele>1093.33</ele>
        <time>2022-06-26T09:12:04.999Z</time>
      </trkpt>
      <trkpt lat="43.86066" lon="6.89216">
        <ele>1095.58</ele>
        <time>2022-06-26T09:13:13.999Z</time>
      </trkpt>
      <trkpt lat="43.86067" lon="6.89242">
        <ele>1101.66</ele>
        <time>2022-06-26T09:14:28.999Z</time>
      </trkpt>
      <trkpt lat="43.86062" lon="6.89267">
        <ele>1108.67</ele>
        <time>2022-06-26T09:15:02.999Z</time>
      </trkpt>
      <trkpt lat="43.86056" lon="6.8929">
        <ele>1106.38</ele>
        <time>2022-06-26T09:15:41.999Z</time>
      </trkpt>
      <trkpt lat="43.86051" lon="6.89315">
        <ele>1106.67</ele>
        <time>2022-06-26T09:15:49.999Z</time>
      </trkpt>
      <trkpt lat="43.86049" lon="6.89341">
        <ele>1106.56</ele>
        <time>2022-06-26T09:15:59.999Z</time>
      </trkpt>
      <trkpt lat="43.86043" lon="6.89365">
        <ele>1109.17</ele>
        <time>2022-06-26T09:16:12.999Z</time>
      </trkpt>
      <trkpt lat="43.86037" lon="6.89389">
        <ele>1114.06</ele>
        <time>2022-06-26T09:16:32.999Z</time>
      </trkpt>
      <trkpt lat="43.8602" lon="6.89397">
        <ele>1134.12</ele>
        <time>2022-06-26T09:18:17.999Z</time>
      </trkpt>
      <trkpt lat="43.86012" lon="6.89419">
        <ele>1138.32</ele>
        <time>2022-06-26T09:18:43.999Z</time>
      </trkpt>
      <trkpt lat="43.86001" lon="6.89439">
        <ele>1143.1</ele>
        <time>2022-06-26T09:19:14.999Z</time>
      </trkpt>
      <trkpt lat="43.85988" lon="6.89457">
        <ele>1146.17</ele>
        <time>2022-06-26T09:19:39.999Z</time>
      </trkpt>
      <trkpt lat="43.85973" lon="6.89473">
        <ele>1149.07</ele>
        <time>2022-06-26T09:20:01.999Z</time>
      </trkpt>
      <trkpt lat="43.85956" lon="6.89482">
        <ele>1155.87</ele>
        <time>2022-06-26T09:20:23.999Z</time>
      </trkpt>
      <trkpt lat="43.85937" lon="6.89487">
        <ele>1154.53</ele>
        <time>2022-06-26T09:20:43.999Z</time>
      </trkpt>
      <trkpt lat="43.85923" lon="6.89503">
        <ele>1157.57</ele>
        <time>2022-06-26T09:21:06.999Z</time>
      </trkpt>
      <trkpt lat="43.85905" lon="6.89507">
        <ele>1160.22</ele>
        <time>2022-06-26T09:26:43.999Z</time>
      </trkpt>
      <trkpt lat="43.85892" lon="6.89489">
        <ele>1159.72</ele>
        <time>2022-06-26T09:26:50.999Z</time>
      </trkpt>
      <trkpt lat="43.85883" lon="6.89467">
        <ele>1158.76</ele>
        <time>2022-06-26T09:26:56.999Z</time>
      </trkpt>
      <trkpt lat="43.8587" lon="6.89446">
        <ele>1156.31</ele>
        <time>2022-06-26T09:27:02.999Z</time>
      </trkpt>
      <trkpt lat="43.85853" lon="6.89436">
        <ele>1154.57</ele>
        <time>2022-06-26T09:27:06.999Z</time>
      </trkpt>
      <trkpt lat="43.8584" lon="6.89418">
        <ele>1152.6</ele>
        <time>2022-06-26T09:27:11.999Z</time>
      </trkpt>
      <trkpt lat="43.85824" lon="6.89403">
        <ele>1143.06</ele>
        <time>2022-06-26T09:27:33.999Z</time>
      </trkpt>
      <trkpt lat="43.85805" lon="6.89403">
        <ele>1131.61</ele>
        <time>2022-06-26T09:28:03.999Z</time>
      </trkpt>
      <trkpt lat="43.85794" lon="6.89382">
        <ele>1127.65</ele>
        <time>2022-06-26T09:28:16.999Z</time>
      </trkpt>
      <trkpt lat="43.85778" lon="6.89366">
        <ele>1124.06</ele>
        <time>2022-06-26T09:28:27.999Z</time>
      </trkpt>
      <trkpt lat="43.85767" lon="6.89343">
        <ele>1120.86</ele>
        <time>2022-06-26T09:28:34.999Z</time>
      </trkpt>
      <trkpt lat="43.85757" lon="6.8932">
        <ele>1116.94</ele>
        <time>2022-06-26T09:28:41.999Z</time>
      </trkpt>
      <trkpt lat="43.85745" lon="6.89302">
        <ele>1112.88</ele>
        <time>2022-06-26T09:28:52.999Z</time>
      </trkpt>
      <trkpt lat="43.85725" lon="6.893">
        <ele>1101.81</ele>
        <time>2022-06-26T09:29:34.999Z</time>
      </trkpt>
      <trkpt lat="43.85712" lon="6.89322">
        <ele>1095.14</ele>
        <time>2022-06-26T09:29:50.999Z</time>
      </trkpt>
      <trkpt lat="43.85709" lon="6.89349">
        <ele>1093.89</ele>
        <time>2022-06-26T09:29:58.999Z</time>
      </trkpt>
      <trkpt lat="43.85702" lon="6.89375">
        <ele>1089.66</ele>
        <time>2022-06-26T09:30:05.999Z</time>
      </trkpt>
      <trkpt lat="43.85689" lon="6.89394">
        <ele>1083.17</ele>
        <time>2022-06-26T09:30:12.999Z</time>
      </trkpt>
      <trkpt lat="43.85691" lon="6.8942">
        <ele>1076.11</ele>
        <time>2022-06-26T09:30:17.999Z</time>
      </trkpt>
      <trkpt lat="43.85689" lon="6.89449">
        <ele>1067.98</ele>
        <time>2022-06-26T09:30:24.999Z</time>
      </trkpt>
      <trkpt lat="43.85692" lon="6.89475">
        <ele>1064.73</ele>
        <time>2022-06-26T09:30:29.999Z</time>
      </trkpt>
      <trkpt lat="43.85696" lon="6.89499">
        <ele>1061.63</ele>
        <time>2022-06-26T09:30:35.999Z</time>
      </trkpt>
      <trkpt lat="43.8569" lon="6.89524">
        <ele>1055.45</ele>
        <time>2022-06-26T09:30:42.999Z</time>
      </trkpt>
      <trkpt lat="43.85683" lon="6.89547">
        <ele>1044.87</ele>
        <time>2022-06-26T09:30:53.999Z</time>
      </trkpt>
      <trkpt lat="43.85675" lon="6.89572">
        <ele>1036.8</ele>
        <time>2022-06-26T09:30:59.999Z</time>
      </trkpt>
      <trkpt lat="43.85676" lon="6.89597">
        <ele>1030.02</ele>
        <time>2022-06-26T09:31:07.999Z</time>
      </trkpt>
      <trkpt lat="43.85659" lon="6.89588">
        <ele>1022.85</ele>
        <time>2022-06-26T09:31:23.999Z</time>
      </trkpt>
      <trkpt lat="43.85641" lon="6.89582">
        <ele>1015.91</ele>
        <time>2022-06-26T09:31:53.999Z</time>
      </trkpt>
      <trkpt lat="43.85635" lon="6.89558">
        <ele>1012.58</ele>
        <time>2022-06-26T09:32:01.999Z</time>
      </trkpt>
      <trkpt lat="43.8563" lon="6.89534">
        <ele>998.34</ele>
        <time>2022-06-26T09:32:42.999Z</time>
      </trkpt>
      <trkpt lat="43.85618" lon="6.89515">
        <ele>990.05</ele>
        <time>2022-06-26T09:33:10.999Z</time>
      </trkpt>
      <trkpt lat="43.85601" lon="6.89503">
        <ele>982.83</ele>
        <time>2022-06-26T09:33:34.999Z</time>
      </trkpt>
      <trkpt lat="43.85585" lon="6.8949">
        <ele>979.95</ele>
        <time>2022-06-26T09:33:41.999Z</time>
      </trkpt>
      <trkpt lat="43.85566" lon="6.89488">
        <ele>977.32</ele>
        <time>2022-06-26T09:33:49.999Z</time>
      </trkpt>
      <trkpt lat="43.85547" lon="6.89479">
        <ele>975.11</ele>
        <time>2022-06-26T09:33:59.999Z</time>
      </trkpt>
      <trkpt lat="43.85536" lon="6.8946">
        <ele>970.45</ele>
        <time>2022-06-26T09:34:04.999Z</time>
      </trkpt>
      <trkpt lat="43.85533" lon="6.89487">
        <ele>965.41</ele>
        <time>2022-06-26T09:34:14.999Z</time>
      </trkpt>
      <trkpt lat="43.85535" lon="6.89514">
        <ele>963.37</ele>
        <time>2022-06-26T09:34:19.999Z</time>
      </trkpt>
      <trkpt lat="43.85545" lon="6.89536">
        <ele>960.59</ele>
        <time>2022-06-26T09:35:55.999Z</time>
      </trkpt>
      <trkpt lat="43.85556" lon="6.89557">
        <ele>954.72</ele>
        <time>2022-06-26T09:36:04.999Z</time>
      </trkpt>
      <trkpt lat="43.85563" lon="6.89585">
        <ele>947.93</ele>
        <time>2022-06-26T09:36:14.999Z</time>
      </trkpt>
      <trkpt lat="43.85565" lon="6.89612">
        <ele>942.63</ele>
        <time>2022-06-26T09:36:22.999Z</time>
      </trkpt>
      <trkpt lat="43.85568" lon="6.89638">
        <ele>939.15</ele>
        <time>2022-06-26T09:36:27.999Z</time>
      </trkpt>
      <trkpt lat="43.85579" lon="6.89661">
        <ele>935.58</ele>
        <time>2022-06-26T09:36:32.999Z</time>
      </trkpt>
      <trkpt lat="43.85591" lon="6.89683">
        <ele>930.49</ele>
        <time>2022-06-26T09:36:39.999Z</time>
      </trkpt>
      <trkpt lat="43.85572" lon="6.89675">
        <ele>919.55</ele>
        <time>2022-06-26T09:37:02.999Z</time>
      </trkpt>
      <trkpt lat="43.85554" lon="6.8968">
        <ele>911.2</ele>
        <time>2022-06-26T09:37:21.999Z</time>
      </trkpt>
      <trkpt lat="43.85566" lon="6.897">
        <ele>905.23</ele>
        <time>2022-06-26T09:37:47.999Z</time>
      </trkpt>
      <trkpt lat="43.85575" lon="6.89724">
        <ele>897.05</ele>
        <time>2022-06-26T09:38:09.999Z</time>
      </trkpt>
      <trkpt lat="43.85584" lon="6.89748">
        <ele>893.4</ele>
        <time>2022-06-26T09:38:16.999Z</time>
      </trkpt>
      <trkpt lat="43.85592" lon="6.89774">
        <ele>888.32</ele>
        <time>2022-06-26T09:38:23.999Z</time>
      </trkpt>
      <trkpt lat="43.85573" lon="6.89764">
        <ele>884.65</ele>
        <time>2022-06-26T09:38:32.999Z</time>
      </trkpt>
      <trkpt lat="43.85553" lon="6.89764">
        <ele>878.92</ele>
        <time>2022-06-26T09:38:40.999Z</time>
      </trkpt>
      <trkpt lat="43.85535" lon="6.89755">
        <ele>874.1</ele>
        <time>2022-06-26T09:38:47.999Z</time>
      </trkpt>
      <trkpt lat="43.85517" lon="6.89759">
        <ele>869.62</ele>
        <time>2022-06-26T09:38:56.999Z</time>
      </trkpt>
      <trkpt lat="43.85535" lon="6.89774">
        <ele>866.5</ele>
        <time>2022-06-26T09:39:03.999Z</time>
      </trkpt>
      <trkpt lat="43.85549" lon="6.89799">
        <ele>864.22</ele>
        <time>2022-06-26T09:39:07.999Z</time>
      </trkpt>
      <trkpt lat="43.8556" lon="6.89821">
        <ele>858.19</ele>
        <time>2022-06-26T09:39:13.999Z</time>
      </trkpt>
      <trkpt lat="43.85563" lon="6.89847">
        <ele>852.02</ele>
        <time>2022-06-26T09:39:20.999Z</time>
      </trkpt>
      <trkpt lat="43.85569" lon="6.89873">
        <ele>847.5</ele>
        <time>2022-06-26T09:39:27.999Z</time>
      </trkpt>
      <trkpt lat="43.85572" lon="6.899">
        <ele>842.07</ele>
        <time>2022-06-26T09:39:35.999Z</time>
      </trkpt>
      <trkpt lat="43.85577" lon="6.89924">
        <ele>838.17</ele>
        <time>2022-06-26T09:39:42.999Z</time>
      </trkpt>
      <trkpt lat="43.85582" lon="6.89951">
        <ele>830.67</ele>
        <time>2022-06-26T09:39:51.999Z</time>
      </trkpt>
      <trkpt lat="43.85564" lon="6.8995">
        <ele>826.07</ele>
        <time>2022-06-26T09:40:10.999Z</time>
      </trkpt>
      <trkpt lat="43.85571" lon="6.89974">
        <ele>819.78</ele>
        <time>2022-06-26T09:40:30.999Z</time>
      </trkpt>
      <trkpt lat="43.85554" lon="6.89987">
        <ele>815.34</ele>
        <time>2022-06-26T09:40:42.999Z</time>
      </trkpt>
      <trkpt lat="43.85538" lon="6.90002">
        <ele>805.01</ele>
        <time>2022-06-26T09:41:00.999Z</time>
      </trkpt>
      <trkpt lat="43.85523" lon="6.90017">
        <ele>798.4</ele>
        <time>2022-06-26T09:41:12.999Z</time>
      </trkpt>
      <trkpt lat="43.85505" lon="6.90013">
        <ele>789.79</ele>
        <time>2022-06-26T09:41:56.999Z</time>
      </trkpt>
      <trkpt lat="43.85499" lon="6.89989">
        <ele>789.09</ele>
        <time>2022-06-26T09:42:09.999Z</time>
      </trkpt>
      <trkpt lat="43.855" lon="6.90019">
        <ele>783.76</ele>
        <time>2022-06-26T09:43:40.999Z</time>
      </trkpt>
      <trkpt lat="43.85506" lon="6.90047">
        <ele>783.66</ele>
        <time>2022-06-26T09:43:45.999Z</time>
      </trkpt>
      <trkpt lat="43.85515" lon="6.90072">
        <ele>782.78</ele>
        <time>2022-06-26T09:43:52.999Z</time>
      </trkpt>
      <trkpt lat="43.85524" lon="6.90094">
        <ele>779</ele>
        <time>2022-06-26T09:43:58.999Z</time>
      </trkpt>
      <trkpt lat="43.85532" lon="6.9012">
        <ele>776.57</ele>
        <time>2022-06-26T09:44:22.999Z</time>
      </trkpt>
      <trkpt lat="43.85539" lon="6.90147">
        <ele>772.94</ele>
        <time>2022-06-26T09:44:27.999Z</time>
      </trkpt>
      <trkpt lat="43.85554" lon="6.90166">
        <ele>769.99</ele>
        <time>2022-06-26T09:44:32.999Z</time>
      </trkpt>
      <trkpt lat="43.85571" lon="6.90184">
        <ele>765.75</ele>
        <time>2022-06-26T09:44:37.999Z</time>
      </trkpt>
      <trkpt lat="43.85552" lon="6.90191">
        <ele>759.24</ele>
        <time>2022-06-26T09:44:49.999Z</time>
      </trkpt>
      <trkpt lat="43.85538" lon="6.90208">
        <ele>752.04</ele>
        <time>2022-06-26T09:45:10.999Z</time>
      </trkpt>
      <trkpt lat="43.8552" lon="6.902">
        <ele>749.54</ele>
        <time>2022-06-26T09:45:17.999Z</time>
      </trkpt>
      <trkpt lat="43.85499" lon="6.90194">
        <ele>745.05</ele>
        <time>2022-06-26T09:45:22.999Z</time>
      </trkpt>
      <trkpt lat="43.85479" lon="6.90185">
        <ele>741.65</ele>
        <time>2022-06-26T09:45:28.999Z</time>
      </trkpt>
      <trkpt lat="43.85463" lon="6.9017">
        <ele>739.54</ele>
        <time>2022-06-26T09:45:35.999Z</time>
      </trkpt>
      <trkpt lat="43.8545" lon="6.9015">
        <ele>736.51</ele>
        <time>2022-06-26T09:45:42.999Z</time>
      </trkpt>
      <trkpt lat="43.85436" lon="6.90133">
        <ele>731.73</ele>
        <time>2022-06-26T09:45:48.999Z</time>
      </trkpt>
      <trkpt lat="43.85419" lon="6.90116">
        <ele>727.88</ele>
        <time>2022-06-26T09:45:54.999Z</time>
      </trkpt>
      <trkpt lat="43.85407" lon="6.90093">
        <ele>723.79</ele>
        <time>2022-06-26T09:45:59.999Z</time>
      </trkpt>
      <trkpt lat="43.85399" lon="6.9007">
        <ele>721.73</ele>
        <time>2022-06-26T09:46:04.999Z</time>
      </trkpt>
      <trkpt lat="43.8539" lon="6.90043">
        <ele>718.18</ele>
        <time>2022-06-26T09:46:09.999Z</time>
      </trkpt>
      <trkpt lat="43.85379" lon="6.90023">
        <ele>714.36</ele>
        <time>2022-06-26T09:46:14.999Z</time>
      </trkpt>
      <trkpt lat="43.85369" lon="6.90001">
        <ele>710.95</ele>
        <time>2022-06-26T09:46:19.999Z</time>
      </trkpt>
      <trkpt lat="43.85352" lon="6.89993">
        <ele>706.52</ele>
        <time>2022-06-26T09:46:34.999Z</time>
      </trkpt>
      <trkpt lat="43.85336" lon="6.8998">
        <ele>703.44</ele>
        <time>2022-06-26T09:46:42.999Z</time>
      </trkpt>
      <trkpt lat="43.8532" lon="6.89964">
        <ele>698.51</ele>
        <time>2022-06-26T09:46:49.999Z</time>
      </trkpt>
      <trkpt lat="43.85304" lon="6.89945">
        <ele>695.32</ele>
        <time>2022-06-26T09:46:55.999Z</time>
      </trkpt>
      <trkpt lat="43.85288" lon="6.89925">
        <ele>693.04</ele>
        <time>2022-06-26T09:46:59.999Z</time>
      </trkpt>
      <trkpt lat="43.8527" lon="6.89922">
        <ele>688.3</ele>
        <time>2022-06-26T09:47:04.999Z</time>
      </trkpt>
      <trkpt lat="43.85248" lon="6.89923">
        <ele>681.72</ele>
        <time>2022-06-26T09:47:10.999Z</time>
      </trkpt>
      <trkpt lat="43.85227" lon="6.89919">
        <ele>675.95</ele>
        <time>2022-06-26T09:47:16.999Z</time>
      </trkpt>
      <trkpt lat="43.85209" lon="6.89918">
        <ele>670.88</ele>
        <time>2022-06-26T09:47:23.999Z</time>
      </trkpt>
      <trkpt lat="43.8519" lon="6.89917">
        <ele>667.23</ele>
        <time>2022-06-26T09:49:01.999Z</time>
      </trkpt>
      <trkpt lat="43.85172" lon="6.89929">
        <ele>657.19</ele>
        <time>2022-06-26T09:49:25.999Z</time>
      </trkpt>
      <trkpt lat="43.85165" lon="6.89903">
        <ele>647.95</ele>
        <time>2022-06-26T09:49:47.999Z</time>
      </trkpt>
      <trkpt lat="43.8515" lon="6.89919">
        <ele>641.04</ele>
        <time>2022-06-26T09:50:13.999Z</time>
      </trkpt>
      <trkpt lat="43.85137" lon="6.89937">
        <ele>637.9</ele>
        <time>2022-06-26T09:50:22.999Z</time>
      </trkpt>
      <trkpt lat="43.8513" lon="6.89961">
        <ele>633.71</ele>
        <time>2022-06-26T09:50:41.999Z</time>
      </trkpt>
      <trkpt lat="43.85135" lon="6.89986">
        <ele>637.43</ele>
        <time>2022-06-26T09:51:02.999Z</time>
      </trkpt>
      <trkpt lat="43.85156" lon="6.8998">
        <ele>635.95</ele>
        <time>2022-06-26T09:51:08.999Z</time>
      </trkpt>
      <trkpt lat="43.85176" lon="6.8998">
        <ele>634.48</ele>
        <time>2022-06-26T09:51:13.999Z</time>
      </trkpt>
      <trkpt lat="43.85196" lon="6.89991">
        <ele>633.07</ele>
        <time>2022-06-26T09:51:17.999Z</time>
      </trkpt>
      <trkpt lat="43.85212" lon="6.90007">
        <ele>630.86</ele>
        <time>2022-06-26T09:51:20.999Z</time>
      </trkpt>
      <trkpt lat="43.85223" lon="6.90033">
        <ele>628.67</ele>
        <time>2022-06-26T09:51:23.999Z</time>
      </trkpt>
      <trkpt lat="43.85227" lon="6.90066">
        <ele>626.51</ele>
        <time>2022-06-26T09:51:26.999Z</time>
      </trkpt>
      <trkpt lat="43.85224" lon="6.90101">
        <ele>625.67</ele>
        <time>2022-06-26T09:51:29.999Z</time>
      </trkpt>
      <trkpt lat="43.85215" lon="6.9013">
        <ele>623.35</ele>
        <time>2022-06-26T09:51:32.999Z</time>
      </trkpt>
      <trkpt lat="43.85211" lon="6.90159">
        <ele>621.74</ele>
        <time>2022-06-26T09:51:35.999Z</time>
      </trkpt>
      <trkpt lat="43.85219" lon="6.90187">
        <ele>619.53</ele>
        <time>2022-06-26T09:51:38.999Z</time>
      </trkpt>
      <trkpt lat="43.85239" lon="6.9021">
        <ele>618.64</ele>
        <time>2022-06-26T09:51:41.999Z</time>
      </trkpt>
      <trkpt lat="43.85253" lon="6.90241">
        <ele>618.27</ele>
        <time>2022-06-26T09:51:44.999Z</time>
      </trkpt>
      <trkpt lat="43.85257" lon="6.90266">
        <ele>616.82</ele>
        <time>2022-06-26T09:51:46.999Z</time>
      </trkpt>
      <trkpt lat="43.85267" lon="6.90302">
        <ele>613.76</ele>
        <time>2022-06-26T09:51:49.999Z</time>
      </trkpt>
      <trkpt lat="43.85278" lon="6.90325">
        <ele>612.28</ele>
        <time>2022-06-26T09:51:51.999Z</time>
      </trkpt>
      <trkpt lat="43.85285" lon="6.9035">
        <ele>610.82</ele>
        <time>2022-06-26T09:51:53.999Z</time>
      </trkpt>
      <trkpt lat="43.8529" lon="6.90377">
        <ele>608.47</ele>
        <time>2022-06-26T09:51:55.999Z</time>
      </trkpt>
      <trkpt lat="43.85296" lon="6.90402">
        <ele>606.87</ele>
        <time>2022-06-26T09:51:57.999Z</time>
      </trkpt>
      <trkpt lat="43.85308" lon="6.90424">
        <ele>605.99</ele>
        <time>2022-06-26T09:51:59.999Z</time>
      </trkpt>
      <trkpt lat="43.85321" lon="6.90446">
        <ele>605.21</ele>
        <time>2022-06-26T09:52:01.999Z</time>
      </trkpt>
      <trkpt lat="43.85332" lon="6.9047">
        <ele>604.01</ele>
        <time>2022-06-26T09:52:03.999Z</time>
      </trkpt>
      <trkpt lat="43.85344" lon="6.90492">
        <ele>602.74</ele>
        <time>2022-06-26T09:52:05.999Z</time>
      </trkpt>
      <trkpt lat="43.85359" lon="6.90508">
        <ele>601.97</ele>
        <time>2022-06-26T09:52:07.999Z</time>
      </trkpt>
      <trkpt lat="43.85368" lon="6.90533">
        <ele>600.41</ele>
        <time>2022-06-26T09:52:09.999Z</time>
      </trkpt>
      <trkpt lat="43.85377" lon="6.90558">
        <ele>597.88</ele>
        <time>2022-06-26T09:52:11.999Z</time>
      </trkpt>
      <trkpt lat="43.85387" lon="6.90583">
        <ele>596.82</ele>
        <time>2022-06-26T09:52:13.999Z</time>
      </trkpt>
      <trkpt lat="43.85396" lon="6.90608">
        <ele>595.78</ele>
        <time>2022-06-26T09:52:15.999Z</time>
      </trkpt>
      <trkpt lat="43.85406" lon="6.90632">
        <ele>594.61</ele>
        <time>2022-06-26T09:52:17.999Z</time>
      </trkpt>
      <trkpt lat="43.85417" lon="6.90658">
        <ele>593.9</ele>
        <time>2022-06-26T09:52:19.999Z</time>
      </trkpt>
      <trkpt lat="43.85427" lon="6.90682">
        <ele>593.25</ele>
        <time>2022-06-26T09:52:21.999Z</time>
      </trkpt>
      <trkpt lat="43.85437" lon="6.90707">
        <ele>591.74</ele>
        <time>2022-06-26T09:52:23.999Z</time>
      </trkpt>
      <trkpt lat="43.85449" lon="6.90732">
        <ele>591.15</ele>
        <time>2022-06-26T09:52:25.999Z</time>
      </trkpt>
      <trkpt lat="43.85459" lon="6.90759">
        <ele>590.94</ele>
        <time>2022-06-26T09:52:27.999Z</time>
      </trkpt>
      <trkpt lat="43.85469" lon="6.90786">
        <ele>590.01</ele>
        <time>2022-06-26T09:52:29.999Z</time>
      </trkpt>
      <trkpt lat="43.85478" lon="6.90814">
        <ele>589.28</ele>
        <time>2022-06-26T09:52:31.999Z</time>
      </trkpt>
      <trkpt lat="43.85488" lon="6.9084">
        <ele>588.46</ele>
        <time>2022-06-26T09:52:33.999Z</time>
      </trkpt>
      <trkpt lat="43.85496" lon="6.90865">
        <ele>588.08</ele>
        <time>2022-06-26T09:52:35.999Z</time>
      </trkpt>
      <trkpt lat="43.85499" lon="6.9089">
        <ele>587.34</ele>
        <time>2022-06-26T09:52:37.999Z</time>
      </trkpt>
      <trkpt lat="43.85507" lon="6.90924">
        <ele>585.34</ele>
        <time>2022-06-26T09:52:40.999Z</time>
      </trkpt>
      <trkpt lat="43.85523" lon="6.90954">
        <ele>584.38</ele>
        <time>2022-06-26T09:52:43.999Z</time>
      </trkpt>
      <trkpt lat="43.85536" lon="6.90986">
        <ele>582.84</ele>
        <time>2022-06-26T09:52:46.999Z</time>
      </trkpt>
      <trkpt lat="43.85552" lon="6.91008">
        <ele>580.67</ele>
        <time>2022-06-26T09:52:49.999Z</time>
      </trkpt>
      <trkpt lat="43.85572" lon="6.90993">
        <ele>577.66</ele>
        <time>2022-06-26T09:52:52.999Z</time>
      </trkpt>
      <trkpt lat="43.85581" lon="6.90962">
        <ele>573.36</ele>
        <time>2022-06-26T09:52:55.999Z</time>
      </trkpt>
      <trkpt lat="43.856" lon="6.90943">
        <ele>574.28</ele>
        <time>2022-06-26T09:52:58.999Z</time>
      </trkpt>
      <trkpt lat="43.8562" lon="6.90928">
        <ele>573.92</ele>
        <time>2022-06-26T09:53:01.999Z</time>
      </trkpt>
      <trkpt lat="43.85636" lon="6.90904">
        <ele>574.15</ele>
        <time>2022-06-26T09:53:04.999Z</time>
      </trkpt>
      <trkpt lat="43.85649" lon="6.9087">
        <ele>572.84</ele>
        <time>2022-06-26T09:53:07.999Z</time>
      </trkpt>
      <trkpt lat="43.85662" lon="6.9084">
        <ele>572.28</ele>
        <time>2022-06-26T09:53:10.999Z</time>
      </trkpt>
      <trkpt lat="43.85682" lon="6.90823">
        <ele>576.2</ele>
        <time>2022-06-26T09:53:13.999Z</time>
      </trkpt>
      <trkpt lat="43.85705" lon="6.90812">
        <ele>574.35</ele>
        <time>2022-06-26T09:53:16.999Z</time>
      </trkpt>
      <trkpt lat="43.8573" lon="6.90799">
        <ele>571.53</ele>
        <time>2022-06-26T09:53:19.999Z</time>
      </trkpt>
      <trkpt lat="43.85748" lon="6.90788">
        <ele>568.73</ele>
        <time>2022-06-26T09:53:21.999Z</time>
      </trkpt>
      <trkpt lat="43.85767" lon="6.90776">
        <ele>566.71</ele>
        <time>2022-06-26T09:53:23.999Z</time>
      </trkpt>
      <trkpt lat="43.85784" lon="6.9076">
        <ele>564.45</ele>
        <time>2022-06-26T09:53:25.999Z</time>
      </trkpt>
      <trkpt lat="43.85796" lon="6.90739">
        <ele>562.98</ele>
        <time>2022-06-26T09:53:27.999Z</time>
      </trkpt>
      <trkpt lat="43.85806" lon="6.90713">
        <ele>561.38</ele>
        <time>2022-06-26T09:53:29.999Z</time>
      </trkpt>
      <trkpt lat="43.85816" lon="6.90687">
        <ele>560.12</ele>
        <time>2022-06-26T09:53:31.999Z</time>
      </trkpt>
      <trkpt lat="43.85823" lon="6.90662">
        <ele>561.04</ele>
        <time>2022-06-26T09:53:33.999Z</time>
      </trkpt>
      <trkpt lat="43.85829" lon="6.90635">
        <ele>561.09</ele>
        <time>2022-06-26T09:53:35.999Z</time>
      </trkpt>
      <trkpt lat="43.85843" lon="6.90609">
        <ele>560.29</ele>
        <time>2022-06-26T09:53:38.999Z</time>
      </trkpt>
      <trkpt lat="43.85863" lon="6.90616">
        <ele>558.18</ele>
        <time>2022-06-26T09:53:41.999Z</time>
      </trkpt>
      <trkpt lat="43.85875" lon="6.90652">
        <ele>556.82</ele>
        <time>2022-06-26T09:53:44.999Z</time>
      </trkpt>
      <trkpt lat="43.85884" lon="6.90676">
        <ele>551.83</ele>
        <time>2022-06-26T09:53:46.999Z</time>
      </trkpt>
      <trkpt lat="43.85895" lon="6.90709">
        <ele>548.68</ele>
        <time>2022-06-26T09:53:49.999Z</time>
      </trkpt>
      <trkpt lat="43.85905" lon="6.90732">
        <ele>547.25</ele>
        <time>2022-06-26T09:53:52.999Z</time>
      </trkpt>
      <trkpt lat="43.85926" lon="6.90722">
        <ele>540.72</ele>
        <time>2022-06-26T09:53:55.999Z</time>
      </trkpt>
      <trkpt lat="43.85942" lon="6.9071">
        <ele>539.19</ele>
        <time>2022-06-26T09:53:57.999Z</time>
      </trkpt>
      <trkpt lat="43.85962" lon="6.90714">
        <ele>540.35</ele>
        <time>2022-06-26T09:53:59.999Z</time>
      </trkpt>
      <trkpt lat="43.8598" lon="6.90722">
        <ele>539.59</ele>
        <time>2022-06-26T09:54:01.999Z</time>
      </trkpt>
      <trkpt lat="43.86004" lon="6.90728">
        <ele>538.29</ele>
        <time>2022-06-26T09:54:04.999Z</time>
      </trkpt>
      <trkpt lat="43.86025" lon="6.90712">
        <ele>539.77</ele>
        <time>2022-06-26T09:54:07.999Z</time>
      </trkpt>
      <trkpt lat="43.86048" lon="6.90709">
        <ele>543.53</ele>
        <time>2022-06-26T09:54:10.999Z</time>
      </trkpt>
      <trkpt lat="43.86064" lon="6.90722">
        <ele>543.24</ele>
        <time>2022-06-26T09:54:12.999Z</time>
      </trkpt>
      <trkpt lat="43.86089" lon="6.90736">
        <ele>540.08</ele>
        <time>2022-06-26T09:54:15.999Z</time>
      </trkpt>
      <trkpt lat="43.86107" lon="6.90743">
        <ele>539.32</ele>
        <time>2022-06-26T09:54:17.999Z</time>
      </trkpt>
      <trkpt lat="43.86133" lon="6.90745">
        <ele>536.74</ele>
        <time>2022-06-26T09:54:20.999Z</time>
      </trkpt>
      <trkpt lat="43.86155" lon="6.90737">
        <ele>538.83</ele>
        <time>2022-06-26T09:54:23.999Z</time>
      </trkpt>
      <trkpt lat="43.86245" lon="6.90727">
        <ele>537.09</ele>
        <time>2022-06-26T09:54:49.999Z</time>
      </trkpt>
      <trkpt lat="43.86257" lon="6.9075">
        <ele>528.17</ele>
        <time>2022-06-26T09:54:54.999Z</time>
      </trkpt>
      <trkpt lat="43.86264" lon="6.90773">
        <ele>527.91</ele>
        <time>2022-06-26T09:55:26.999Z</time>
      </trkpt>
      <trkpt lat="43.86233" lon="6.90791">
        <ele>536.56</ele>
        <time>2022-06-26T09:56:21.999Z</time>
      </trkpt>
      <trkpt lat="43.86222" lon="6.90812">
        <ele>532.69</ele>
        <time>2022-06-26T09:56:31.999Z</time>
      </trkpt>
      <trkpt lat="43.8621" lon="6.90831">
        <ele>533</ele>
        <time>2022-06-26T09:56:40.999Z</time>
      </trkpt>
      <trkpt lat="43.86197" lon="6.90848">
        <ele>534.32</ele>
        <time>2022-06-26T09:56:51.999Z</time>
      </trkpt>
      <trkpt lat="43.86187" lon="6.9087">
        <ele>534.34</ele>
        <time>2022-06-26T09:57:00.999Z</time>
      </trkpt>
      <trkpt lat="43.86178" lon="6.90893">
        <ele>534.68</ele>
        <time>2022-06-26T09:57:09.999Z</time>
      </trkpt>
      <trkpt lat="43.86167" lon="6.90913">
        <ele>535.97</ele>
        <time>2022-06-26T09:57:17.999Z</time>
      </trkpt>
      <trkpt lat="43.86157" lon="6.90937">
        <ele>537.78</ele>
        <time>2022-06-26T09:57:25.999Z</time>
      </trkpt>
      <trkpt lat="43.86146" lon="6.90957">
        <ele>539.78</ele>
        <time>2022-06-26T09:57:33.999Z</time>
      </trkpt>
      <trkpt lat="43.86133" lon="6.90978">
        <ele>540.57</ele>
        <time>2022-06-26T09:57:41.999Z</time>
      </trkpt>
      <trkpt lat="43.86127" lon="6.91003">
        <ele>540.82</ele>
        <time>2022-06-26T09:57:50.999Z</time>
      </trkpt>
      <trkpt lat="43.86112" lon="6.91021">
        <ele>543.44</ele>
        <time>2022-06-26T09:58:00.999Z</time>
      </trkpt>
      <trkpt lat="43.86092" lon="6.9102">
        <ele>544.41</ele>
        <time>2022-06-26T09:58:09.999Z</time>
      </trkpt>
      <trkpt lat="43.86074" lon="6.91031">
        <ele>545.41</ele>
        <time>2022-06-26T09:58:18.999Z</time>
      </trkpt>
      <trkpt lat="43.86059" lon="6.91047">
        <ele>545.27</ele>
        <time>2022-06-26T09:58:28.999Z</time>
      </trkpt>
      <trkpt lat="43.86041" lon="6.91055">
        <ele>544.6</ele>
        <time>2022-06-26T09:58:37.999Z</time>
      </trkpt>
      <trkpt lat="43.86027" lon="6.91072">
        <ele>545.36</ele>
        <time>2022-06-26T09:58:45.999Z</time>
      </trkpt>
      <trkpt lat="43.86022" lon="6.91098">
        <ele>548.45</ele>
        <time>2022-06-26T09:58:55.999Z</time>
      </trkpt>
      <trkpt lat="43.86013" lon="6.91121">
        <ele>550.37</ele>
        <time>2022-06-26T09:59:04.999Z</time>
      </trkpt>
      <trkpt lat="43.86001" lon="6.91143">
        <ele>552.9</ele>
        <time>2022-06-26T09:59:13.999Z</time>
      </trkpt>
      <trkpt lat="43.85983" lon="6.91155">
        <ele>554.46</ele>
        <time>2022-06-26T09:59:22.999Z</time>
      </trkpt>
      <trkpt lat="43.85968" lon="6.91169">
        <ele>554.67</ele>
        <time>2022-06-26T09:59:32.999Z</time>
      </trkpt>
      <trkpt lat="43.85951" lon="6.91179">
        <ele>555.44</ele>
        <time>2022-06-26T09:59:40.999Z</time>
      </trkpt>
      <trkpt lat="43.85932" lon="6.91185">
        <ele>555.81</ele>
        <time>2022-06-26T09:59:50.999Z</time>
      </trkpt>
      <trkpt lat="43.85917" lon="6.91198">
        <ele>555.14</ele>
        <time>2022-06-26T09:59:59.999Z</time>
      </trkpt>
      <trkpt lat="43.85905" lon="6.91219">
        <ele>557.2</ele>
        <time>2022-06-26T10:00:09.999Z</time>
      </trkpt>
      <trkpt lat="43.85896" lon="6.91243">
        <ele>560.44</ele>
        <time>2022-06-26T10:00:19.999Z</time>
      </trkpt>
      <trkpt lat="43.8588" lon="6.91259">
        <ele>562.55</ele>
        <time>2022-06-26T10:00:28.999Z</time>
      </trkpt>
      <trkpt lat="43.85862" lon="6.91265">
        <ele>563.51</ele>
        <time>2022-06-26T10:00:37.999Z</time>
      </trkpt>
      <trkpt lat="43.85844" lon="6.91277">
        <ele>564.45</ele>
        <time>2022-06-26T10:00:48.999Z</time>
      </trkpt>
      <trkpt lat="43.85831" lon="6.91295">
        <ele>566.88</ele>
        <time>2022-06-26T10:00:58.999Z</time>
      </trkpt>
      <trkpt lat="43.85821" lon="6.91316">
        <ele>568.56</ele>
        <time>2022-06-26T10:01:07.999Z</time>
      </trkpt>
      <trkpt lat="43.85811" lon="6.91339">
        <ele>569.75</ele>
        <time>2022-06-26T10:01:16.999Z</time>
      </trkpt>
      <trkpt lat="43.85795" lon="6.91356">
        <ele>572.48</ele>
        <time>2022-06-26T10:01:25.999Z</time>
      </trkpt>
      <trkpt lat="43.85776" lon="6.9136">
        <ele>573.1</ele>
        <time>2022-06-26T10:01:34.999Z</time>
      </trkpt>
      <trkpt lat="43.85759" lon="6.91353">
        <ele>572.45</ele>
        <time>2022-06-26T10:01:42.999Z</time>
      </trkpt>
      <trkpt lat="43.85742" lon="6.91341">
        <ele>571.35</ele>
        <time>2022-06-26T10:01:50.999Z</time>
      </trkpt>
      <trkpt lat="43.85753" lon="6.91361">
        <ele>574.29</ele>
        <time>2022-06-26T10:02:02.999Z</time>
      </trkpt>
      <trkpt lat="43.85771" lon="6.91369">
        <ele>574.53</ele>
        <time>2022-06-26T10:02:10.999Z</time>
      </trkpt>
      <trkpt lat="43.8579" lon="6.91374">
        <ele>575.22</ele>
        <time>2022-06-26T10:02:18.999Z</time>
      </trkpt>
      <trkpt lat="43.85808" lon="6.91369">
        <ele>576.24</ele>
        <time>2022-06-26T10:02:26.999Z</time>
      </trkpt>
      <trkpt lat="43.85824" lon="6.91353">
        <ele>576.56</ele>
        <time>2022-06-26T10:02:34.999Z</time>
      </trkpt>
      <trkpt lat="43.85838" lon="6.91336">
        <ele>577.5</ele>
        <time>2022-06-26T10:02:42.999Z</time>
      </trkpt>
      <trkpt lat="43.85855" lon="6.91324">
        <ele>579.41</ele>
        <time>2022-06-26T10:02:50.999Z</time>
      </trkpt>
      <trkpt lat="43.85873" lon="6.9132">
        <ele>579.64</ele>
        <time>2022-06-26T10:02:58.999Z</time>
      </trkpt>
      <trkpt lat="43.85893" lon="6.91316">
        <ele>580.59</ele>
        <time>2022-06-26T10:03:07.999Z</time>
      </trkpt>
      <trkpt lat="43.85911" lon="6.91313">
        <ele>581.86</ele>
        <time>2022-06-26T10:03:15.999Z</time>
      </trkpt>
      <trkpt lat="43.85928" lon="6.91305">
        <ele>582.34</ele>
        <time>2022-06-26T10:03:23.999Z</time>
      </trkpt>
      <trkpt lat="43.85946" lon="6.91296">
        <ele>583.43</ele>
        <time>2022-06-26T10:03:32.999Z</time>
      </trkpt>
      <trkpt lat="43.85966" lon="6.91296">
        <ele>586.01</ele>
        <time>2022-06-26T10:03:41.999Z</time>
      </trkpt>
      <trkpt lat="43.85984" lon="6.91288">
        <ele>588.8</ele>
        <time>2022-06-26T10:03:49.999Z</time>
      </trkpt>
      <trkpt lat="43.85999" lon="6.9127">
        <ele>590.23</ele>
        <time>2022-06-26T10:03:57.999Z</time>
      </trkpt>
      <trkpt lat="43.8599" lon="6.91293">
        <ele>595.25</ele>
        <time>2022-06-26T10:04:17.999Z</time>
      </trkpt>
      <trkpt lat="43.85973" lon="6.91305">
        <ele>596.6</ele>
        <time>2022-06-26T10:04:26.999Z</time>
      </trkpt>
      <trkpt lat="43.85955" lon="6.91317">
        <ele>596.98</ele>
        <time>2022-06-26T10:04:35.999Z</time>
      </trkpt>
      <trkpt lat="43.85938" lon="6.91329">
        <ele>597.77</ele>
        <time>2022-06-26T10:04:44.999Z</time>
      </trkpt>
      <trkpt lat="43.85924" lon="6.91348">
        <ele>600.4</ele>
        <time>2022-06-26T10:04:54.999Z</time>
      </trkpt>
      <trkpt lat="43.85908" lon="6.91363">
        <ele>603.01</ele>
        <time>2022-06-26T10:05:05.999Z</time>
      </trkpt>
      <trkpt lat="43.85895" lon="6.9138">
        <ele>604.31</ele>
        <time>2022-06-26T10:05:17.999Z</time>
      </trkpt>
      <trkpt lat="43.85877" lon="6.91389">
        <ele>607.42</ele>
        <time>2022-06-26T10:05:33.999Z</time>
      </trkpt>
      <trkpt lat="43.85862" lon="6.91406">
        <ele>613.33</ele>
        <time>2022-06-26T10:05:45.999Z</time>
      </trkpt>
      <trkpt lat="43.85848" lon="6.91421">
        <ele>615.59</ele>
        <time>2022-06-26T10:05:59.999Z</time>
      </trkpt>
      <trkpt lat="43.85835" lon="6.91439">
        <ele>614.66</ele>
        <time>2022-06-26T10:06:10.999Z</time>
      </trkpt>
      <trkpt lat="43.85821" lon="6.91456">
        <ele>616.11</ele>
        <time>2022-06-26T10:06:20.999Z</time>
      </trkpt>
      <trkpt lat="43.85805" lon="6.91471">
        <ele>621.37</ele>
        <time>2022-06-26T10:06:30.999Z</time>
      </trkpt>
      <trkpt lat="43.85786" lon="6.91474">
        <ele>622.7</ele>
        <time>2022-06-26T10:06:42.999Z</time>
      </trkpt>
      <trkpt lat="43.85768" lon="6.91471">
        <ele>623.72</ele>
        <time>2022-06-26T10:06:51.999Z</time>
      </trkpt>
      <trkpt lat="43.85762" lon="6.91497">
        <ele>621.86</ele>
        <time>2022-06-26T10:10:07.999Z</time>
      </trkpt>
      <trkpt lat="43.85748" lon="6.91516">
        <ele>621.12</ele>
        <time>2022-06-26T10:10:15.999Z</time>
      </trkpt>
      <trkpt lat="43.85735" lon="6.91536">
        <ele>619.53</ele>
        <time>2022-06-26T10:10:27.999Z</time>
      </trkpt>
      <trkpt lat="43.8575" lon="6.91518">
        <ele>618.02</ele>
        <time>2022-06-26T10:11:02.999Z</time>
      </trkpt>
      <trkpt lat="43.8576" lon="6.91496">
        <ele>619.83</ele>
        <time>2022-06-26T10:11:11.999Z</time>
      </trkpt>
      <trkpt lat="43.85762" lon="6.9147">
        <ele>618.73</ele>
        <time>2022-06-26T10:11:21.999Z</time>
      </trkpt>
      <trkpt lat="43.85933" lon="6.91402">
        <ele>583.42</ele>
        <time>2022-06-26T10:22:56.848Z</time>
      </trkpt>
      <trkpt lat="43.85926" lon="6.91378">
        <ele>617.88</ele>
        <time>2022-06-26T10:23:06.999Z</time>
      </trkpt>
      <trkpt lat="43.8591" lon="6.91366">
        <ele>615.58</ele>
        <time>2022-06-26T10:23:24.999Z</time>
      </trkpt>
      <trkpt lat="43.85894" lon="6.9138">
        <ele>609.86</ele>
        <time>2022-06-26T10:45:47.999Z</time>
      </trkpt>
      <trkpt lat="43.85877" lon="6.91391">
        <ele>609.9</ele>
        <time>2022-06-26T10:45:58.999Z</time>
      </trkpt>
      <trkpt lat="43.85863" lon="6.91408">
        <ele>610.46</ele>
        <time>2022-06-26T10:46:09.999Z</time>
      </trkpt>
      <trkpt lat="43.85852" lon="6.91429">
        <ele>613</ele>
        <time>2022-06-26T10:46:22.999Z</time>
      </trkpt>
      <trkpt lat="43.85842" lon="6.91452">
        <ele>617.22</ele>
        <time>2022-06-26T10:46:36.999Z</time>
      </trkpt>
      <trkpt lat="43.85832" lon="6.91473">
        <ele>619.69</ele>
        <time>2022-06-26T10:46:51.999Z</time>
      </trkpt>
      <trkpt lat="43.85818" lon="6.91491">
        <ele>620.45</ele>
        <time>2022-06-26T10:47:06.999Z</time>
      </trkpt>
      <trkpt lat="43.85801" lon="6.91504">
        <ele>627.27</ele>
        <time>2022-06-26T10:47:22.999Z</time>
      </trkpt>
      <trkpt lat="43.85784" lon="6.91513">
        <ele>629.73</ele>
        <time>2022-06-26T10:47:40.999Z</time>
      </trkpt>
      <trkpt lat="43.8579" lon="6.91536">
        <ele>632.4</ele>
        <time>2022-06-26T10:48:23.999Z</time>
      </trkpt>
      <trkpt lat="43.85779" lon="6.91557">
        <ele>639.23</ele>
        <time>2022-06-26T10:48:57.999Z</time>
      </trkpt>
      <trkpt lat="43.85768" lon="6.91577">
        <ele>639.7</ele>
        <time>2022-06-26T10:49:10.999Z</time>
      </trkpt>
      <trkpt lat="43.85752" lon="6.91592">
        <ele>639.66</ele>
        <time>2022-06-26T10:49:22.999Z</time>
      </trkpt>
      <trkpt lat="43.85737" lon="6.91607">
        <ele>640.49</ele>
        <time>2022-06-26T10:49:36.999Z</time>
      </trkpt>
      <trkpt lat="43.8573" lon="6.91631">
        <ele>643.48</ele>
        <time>2022-06-26T10:49:50.999Z</time>
      </trkpt>
      <trkpt lat="43.85734" lon="6.91657">
        <ele>648.04</ele>
        <time>2022-06-26T10:50:04.999Z</time>
      </trkpt>
      <trkpt lat="43.85735" lon="6.91683">
        <ele>651.75</ele>
        <time>2022-06-26T10:50:18.999Z</time>
      </trkpt>
      <trkpt lat="43.85732" lon="6.91708">
        <ele>657.69</ele>
        <time>2022-06-26T10:50:42.999Z</time>
      </trkpt>
      <trkpt lat="43.85726" lon="6.91732">
        <ele>661.61</ele>
        <time>2022-06-26T10:51:02.999Z</time>
      </trkpt>
      <trkpt lat="43.85721" lon="6.91758">
        <ele>670.85</ele>
        <time>2022-06-26T10:52:06.999Z</time>
      </trkpt>
      <trkpt lat="43.85711" lon="6.9178">
        <ele>672.69</ele>
        <time>2022-06-26T10:52:36.999Z</time>
      </trkpt>
      <trkpt lat="43.85697" lon="6.91796">
        <ele>676.31</ele>
        <time>2022-06-26T10:53:06.999Z</time>
      </trkpt>
      <trkpt lat="43.85713" lon="6.91809">
        <ele>678.64</ele>
        <time>2022-06-26T10:53:37.999Z</time>
      </trkpt>
      <trkpt lat="43.85719" lon="6.91833">
        <ele>685.15</ele>
        <time>2022-06-26T10:54:14.999Z</time>
      </trkpt>
      <trkpt lat="43.85734" lon="6.91848">
        <ele>697.2</ele>
        <time>2022-06-26T10:55:10.999Z</time>
      </trkpt>
      <trkpt lat="43.85738" lon="6.91872">
        <ele>704.36</ele>
        <time>2022-06-26T10:55:43.999Z</time>
      </trkpt>
      <trkpt lat="43.85742" lon="6.91897">
        <ele>709.84</ele>
        <time>2022-06-26T10:56:11.999Z</time>
      </trkpt>
      <trkpt lat="43.85747" lon="6.91922">
        <ele>713.03</ele>
        <time>2022-06-26T10:57:01.999Z</time>
      </trkpt>
      <trkpt lat="43.85759" lon="6.91941">
        <ele>715.18</ele>
        <time>2022-06-26T10:58:24.999Z</time>
      </trkpt>
      <trkpt lat="43.85774" lon="6.91958">
        <ele>713</ele>
        <time>2022-06-26T10:58:32.999Z</time>
      </trkpt>
      <trkpt lat="43.85785" lon="6.91983">
        <ele>710.05</ele>
        <time>2022-06-26T10:58:38.999Z</time>
      </trkpt>
      <trkpt lat="43.85796" lon="6.9201">
        <ele>707.07</ele>
        <time>2022-06-26T10:58:43.999Z</time>
      </trkpt>
      <trkpt lat="43.85811" lon="6.92028">
        <ele>705.94</ele>
        <time>2022-06-26T10:58:48.999Z</time>
      </trkpt>
      <trkpt lat="43.85822" lon="6.92049">
        <ele>703.53</ele>
        <time>2022-06-26T10:58:57.999Z</time>
      </trkpt>
      <trkpt lat="43.85831" lon="6.92071">
        <ele>705.96</ele>
        <time>2022-06-26T10:59:10.999Z</time>
      </trkpt>
      <trkpt lat="43.85839" lon="6.92094">
        <ele>712.4</ele>
        <time>2022-06-26T10:59:36.999Z</time>
      </trkpt>
      <trkpt lat="43.85836" lon="6.9212">
        <ele>715.24</ele>
        <time>2022-06-26T11:00:03.999Z</time>
      </trkpt>
      <trkpt lat="43.85827" lon="6.92144">
        <ele>719.08</ele>
        <time>2022-06-26T11:00:15.999Z</time>
      </trkpt>
      <trkpt lat="43.85821" lon="6.92167">
        <ele>720.45</ele>
        <time>2022-06-26T11:00:26.999Z</time>
      </trkpt>
      <trkpt lat="43.85824" lon="6.92192">
        <ele>724.86</ele>
        <time>2022-06-26T11:00:47.999Z</time>
      </trkpt>
      <trkpt lat="43.85829" lon="6.92217">
        <ele>726.53</ele>
        <time>2022-06-26T11:01:52.999Z</time>
      </trkpt>
      <trkpt lat="43.85826" lon="6.92241">
        <ele>730.3</ele>
        <time>2022-06-26T11:02:05.999Z</time>
      </trkpt>
      <trkpt lat="43.85824" lon="6.92267">
        <ele>730.42</ele>
        <time>2022-06-26T11:02:16.999Z</time>
      </trkpt>
      <trkpt lat="43.8582" lon="6.92292">
        <ele>735.53</ele>
        <time>2022-06-26T11:02:41.999Z</time>
      </trkpt>
      <trkpt lat="43.85812" lon="6.92314">
        <ele>740.02</ele>
        <time>2022-06-26T11:03:13.999Z</time>
      </trkpt>
      <trkpt lat="43.85796" lon="6.92326">
        <ele>740.18</ele>
        <time>2022-06-26T11:03:32.999Z</time>
      </trkpt>
      <trkpt lat="43.85786" lon="6.92347">
        <ele>737.88</ele>
        <time>2022-06-26T11:04:59.999Z</time>
      </trkpt>
      <trkpt lat="43.85805" lon="6.92346">
        <ele>746.36</ele>
        <time>2022-06-26T11:05:39.999Z</time>
      </trkpt>
      <trkpt lat="43.85822" lon="6.9234">
        <ele>754.67</ele>
        <time>2022-06-26T11:06:08.999Z</time>
      </trkpt>
      <trkpt lat="43.8584" lon="6.92333">
        <ele>755.81</ele>
        <time>2022-06-26T11:06:40.999Z</time>
      </trkpt>
      <trkpt lat="43.85857" lon="6.92323">
        <ele>760.68</ele>
        <time>2022-06-26T11:07:16.999Z</time>
      </trkpt>
      <trkpt lat="43.85875" lon="6.92323">
        <ele>766.89</ele>
        <time>2022-06-26T11:07:54.999Z</time>
      </trkpt>
      <trkpt lat="43.85892" lon="6.92313">
        <ele>775.15</ele>
        <time>2022-06-26T11:08:32.999Z</time>
      </trkpt>
      <trkpt lat="43.85909" lon="6.92302">
        <ele>777.33</ele>
        <time>2022-06-26T11:09:20.999Z</time>
      </trkpt>
      <trkpt lat="43.85927" lon="6.92308">
        <ele>791.97</ele>
        <time>2022-06-26T11:15:11.999Z</time>
      </trkpt>
      <trkpt lat="43.85945" lon="6.92308">
        <ele>801.25</ele>
        <time>2022-06-26T11:15:53.999Z</time>
      </trkpt>
      <trkpt lat="43.85958" lon="6.9229">
        <ele>801.74</ele>
        <time>2022-06-26T11:16:27.999Z</time>
      </trkpt>
      <trkpt lat="43.85976" lon="6.92296">
        <ele>814.19</ele>
        <time>2022-06-26T11:17:08.999Z</time>
      </trkpt>
      <trkpt lat="43.85992" lon="6.92281">
        <ele>820.22</ele>
        <time>2022-06-26T11:17:51.999Z</time>
      </trkpt>
      <trkpt lat="43.86004" lon="6.923">
        <ele>826.65</ele>
        <time>2022-06-26T11:18:18.999Z</time>
      </trkpt>
      <trkpt lat="43.86018" lon="6.92284">
        <ele>831.35</ele>
        <time>2022-06-26T11:19:00.999Z</time>
      </trkpt>
      <trkpt lat="43.8603" lon="6.92265">
        <ele>838.74</ele>
        <time>2022-06-26T11:19:45.999Z</time>
      </trkpt>
      <trkpt lat="43.86041" lon="6.92244">
        <ele>846.91</ele>
        <time>2022-06-26T11:20:24.999Z</time>
      </trkpt>
      <trkpt lat="43.86052" lon="6.92264">
        <ele>855.28</ele>
        <time>2022-06-26T11:20:56.999Z</time>
      </trkpt>
      <trkpt lat="43.86062" lon="6.92243">
        <ele>861.48</ele>
        <time>2022-06-26T11:21:50.999Z</time>
      </trkpt>
      <trkpt lat="43.86078" lon="6.92258">
        <ele>868.62</ele>
        <time>2022-06-26T11:22:22.999Z</time>
      </trkpt>
      <trkpt lat="43.86096" lon="6.92253">
        <ele>877.96</ele>
        <time>2022-06-26T11:23:21.999Z</time>
      </trkpt>
      <trkpt lat="43.86101" lon="6.92229">
        <ele>884.06</ele>
        <time>2022-06-26T11:31:48.999Z</time>
      </trkpt>
      <trkpt lat="43.86111" lon="6.92208">
        <ele>887.52</ele>
        <time>2022-06-26T11:32:16.999Z</time>
      </trkpt>
      <trkpt lat="43.86121" lon="6.92231">
        <ele>897.8</ele>
        <time>2022-06-26T11:33:01.999Z</time>
      </trkpt>
      <trkpt lat="43.8613" lon="6.92209">
        <ele>901.51</ele>
        <time>2022-06-26T11:33:24.999Z</time>
      </trkpt>
      <trkpt lat="43.86141" lon="6.92189">
        <ele>907.49</ele>
        <time>2022-06-26T11:33:57.999Z</time>
      </trkpt>
      <trkpt lat="43.86157" lon="6.92179">
        <ele>919.49</ele>
        <time>2022-06-26T11:34:51.999Z</time>
      </trkpt>
      <trkpt lat="43.86176" lon="6.92175">
        <ele>928.12</ele>
        <time>2022-06-26T11:35:35.999Z</time>
      </trkpt>
      <trkpt lat="43.86192" lon="6.92186">
        <ele>934.55</ele>
        <time>2022-06-26T11:36:27.999Z</time>
      </trkpt>
      <trkpt lat="43.86195" lon="6.92211">
        <ele>945.63</ele>
        <time>2022-06-26T11:37:10.999Z</time>
      </trkpt>
      <trkpt lat="43.86211" lon="6.92224">
        <ele>952.26</ele>
        <time>2022-06-26T11:38:15.999Z</time>
      </trkpt>
      <trkpt lat="43.86227" lon="6.92211">
        <ele>960.94</ele>
        <time>2022-06-26T11:39:16.999Z</time>
      </trkpt>
      <trkpt lat="43.86244" lon="6.9222">
        <ele>973.99</ele>
        <time>2022-06-26T11:40:23.999Z</time>
      </trkpt>
      <trkpt lat="43.86251" lon="6.92244">
        <ele>984.7</ele>
        <time>2022-06-26T11:40:54.999Z</time>
      </trkpt>
      <trkpt lat="43.8627" lon="6.92239">
        <ele>991.54</ele>
        <time>2022-06-26T11:41:59.999Z</time>
      </trkpt>
      <trkpt lat="43.86274" lon="6.92264">
        <ele>1002.05</ele>
        <time>2022-06-26T11:42:41.999Z</time>
      </trkpt>
      <trkpt lat="43.86285" lon="6.92285">
        <ele>1005.53</ele>
        <time>2022-06-26T11:53:41.999Z</time>
      </trkpt>
      <trkpt lat="43.86288" lon="6.9231">
        <ele>1011.02</ele>
        <time>2022-06-26T11:54:19.999Z</time>
      </trkpt>
      <trkpt lat="43.86298" lon="6.92288">
        <ele>1021.72</ele>
        <time>2022-06-26T11:55:08.999Z</time>
      </trkpt>
      <trkpt lat="43.86304" lon="6.92312">
        <ele>1028.59</ele>
        <time>2022-06-26T11:55:46.999Z</time>
      </trkpt>
      <trkpt lat="43.86317" lon="6.9233">
        <ele>1043.47</ele>
        <time>2022-06-26T11:57:04.999Z</time>
      </trkpt>
      <trkpt lat="43.86334" lon="6.92319">
        <ele>1047.94</ele>
        <time>2022-06-26T11:57:57.999Z</time>
      </trkpt>
      <trkpt lat="43.86344" lon="6.92341">
        <ele>1063.79</ele>
        <time>2022-06-26T11:59:19.999Z</time>
      </trkpt>
      <trkpt lat="43.86358" lon="6.92327">
        <ele>1074.28</ele>
        <time>2022-06-26T12:00:12.999Z</time>
      </trkpt>
      <trkpt lat="43.86371" lon="6.92309">
        <ele>1084.79</ele>
        <time>2022-06-26T12:01:47.999Z</time>
      </trkpt>
      <trkpt lat="43.86369" lon="6.92284">
        <ele>1092.88</ele>
        <time>2022-06-26T12:02:31.999Z</time>
      </trkpt>
      <trkpt lat="43.86377" lon="6.9226">
        <ele>1094.31</ele>
        <time>2022-06-26T12:03:48.999Z</time>
      </trkpt>
      <trkpt lat="43.8639" lon="6.92242">
        <ele>1096.6</ele>
        <time>2022-06-26T12:04:15.999Z</time>
      </trkpt>
      <trkpt lat="43.86408" lon="6.92235">
        <ele>1108.07</ele>
        <time>2022-06-26T12:05:35.999Z</time>
      </trkpt>
      <trkpt lat="43.86425" lon="6.92242">
        <ele>1117.05</ele>
        <time>2022-06-26T12:06:31.999Z</time>
      </trkpt>
      <trkpt lat="43.86426" lon="6.92268">
        <ele>1124.88</ele>
        <time>2022-06-26T12:07:13.999Z</time>
      </trkpt>
      <trkpt lat="43.86445" lon="6.92265">
        <ele>1134.15</ele>
        <time>2022-06-26T12:15:37.999Z</time>
      </trkpt>
      <trkpt lat="43.8646" lon="6.92253">
        <ele>1136.67</ele>
        <time>2022-06-26T12:16:07.999Z</time>
      </trkpt>
      <trkpt lat="43.86472" lon="6.92234">
        <ele>1139.76</ele>
        <time>2022-06-26T12:16:34.999Z</time>
      </trkpt>
      <trkpt lat="43.86489" lon="6.92227">
        <ele>1151.99</ele>
        <time>2022-06-26T12:17:26.999Z</time>
      </trkpt>
      <trkpt lat="43.86508" lon="6.92223">
        <ele>1157.27</ele>
        <time>2022-06-26T12:19:15.999Z</time>
      </trkpt>
      <trkpt lat="43.86526" lon="6.92223">
        <ele>1148.63</ele>
        <time>2022-06-26T12:19:37.999Z</time>
      </trkpt>
      <trkpt lat="43.86536" lon="6.922">
        <ele>1142.65</ele>
        <time>2022-06-26T12:19:45.999Z</time>
      </trkpt>
      <trkpt lat="43.86555" lon="6.92189">
        <ele>1131.85</ele>
        <time>2022-06-26T12:19:49.999Z</time>
      </trkpt>
      <trkpt lat="43.86573" lon="6.92183">
        <ele>1133.1</ele>
        <time>2022-06-26T12:19:59.999Z</time>
      </trkpt>
      <trkpt lat="43.86586" lon="6.92165">
        <ele>1137.85</ele>
        <time>2022-06-26T12:20:46.999Z</time>
      </trkpt>
      <trkpt lat="43.86596" lon="6.92144">
        <ele>1145.52</ele>
        <time>2022-06-26T12:21:35.999Z</time>
      </trkpt>
      <trkpt lat="43.86611" lon="6.92127">
        <ele>1141.71</ele>
        <time>2022-06-26T12:21:55.999Z</time>
      </trkpt>
      <trkpt lat="43.86622" lon="6.92102">
        <ele>1136.92</ele>
        <time>2022-06-26T12:22:02.999Z</time>
      </trkpt>
      <trkpt lat="43.86638" lon="6.92088">
        <ele>1133.01</ele>
        <time>2022-06-26T12:22:10.999Z</time>
      </trkpt>
      <trkpt lat="43.86653" lon="6.92074">
        <ele>1131.46</ele>
        <time>2022-06-26T12:22:15.999Z</time>
      </trkpt>
      <trkpt lat="43.86672" lon="6.92069">
        <ele>1120.81</ele>
        <time>2022-06-26T12:22:43.999Z</time>
      </trkpt>
      <trkpt lat="43.86688" lon="6.92055">
        <ele>1117.8</ele>
        <time>2022-06-26T12:22:49.999Z</time>
      </trkpt>
      <trkpt lat="43.86705" lon="6.9204">
        <ele>1114.47</ele>
        <time>2022-06-26T12:22:53.999Z</time>
      </trkpt>
      <trkpt lat="43.86726" lon="6.92033">
        <ele>1111.15</ele>
        <time>2022-06-26T12:22:57.999Z</time>
      </trkpt>
      <trkpt lat="43.86745" lon="6.92028">
        <ele>1108.93</ele>
        <time>2022-06-26T12:23:01.999Z</time>
      </trkpt>
      <trkpt lat="43.86763" lon="6.92031">
        <ele>1105.57</ele>
        <time>2022-06-26T12:23:04.999Z</time>
      </trkpt>
      <trkpt lat="43.86783" lon="6.92048">
        <ele>1102.72</ele>
        <time>2022-06-26T12:23:08.999Z</time>
      </trkpt>
      <trkpt lat="43.86794" lon="6.92067">
        <ele>1099.63</ele>
        <time>2022-06-26T12:23:12.999Z</time>
      </trkpt>
      <trkpt lat="43.86812" lon="6.92074">
        <ele>1095.57</ele>
        <time>2022-06-26T12:23:17.999Z</time>
      </trkpt>
      <trkpt lat="43.86832" lon="6.92076">
        <ele>1088.88</ele>
        <time>2022-06-26T12:23:22.999Z</time>
      </trkpt>
      <trkpt lat="43.86856" lon="6.92069">
        <ele>1083.24</ele>
        <time>2022-06-26T12:23:27.999Z</time>
      </trkpt>
      <trkpt lat="43.86875" lon="6.92063">
        <ele>1079.18</ele>
        <time>2022-06-26T12:23:31.999Z</time>
      </trkpt>
      <trkpt lat="43.86898" lon="6.92065">
        <ele>1076.06</ele>
        <time>2022-06-26T12:23:36.999Z</time>
      </trkpt>
      <trkpt lat="43.86922" lon="6.92063">
        <ele>1071.6</ele>
        <time>2022-06-26T12:23:40.999Z</time>
      </trkpt>
      <trkpt lat="43.86939" lon="6.9207">
        <ele>1066.85</ele>
        <time>2022-06-26T12:23:43.999Z</time>
      </trkpt>
      <trkpt lat="43.86961" lon="6.9207">
        <ele>1064.95</ele>
        <time>2022-06-26T12:23:47.999Z</time>
      </trkpt>
      <trkpt lat="43.86971" lon="6.92092">
        <ele>1065.2</ele>
        <time>2022-06-26T12:25:18.999Z</time>
      </trkpt>
      <trkpt lat="43.86975" lon="6.9212">
        <ele>1063.37</ele>
        <time>2022-06-26T12:25:29.999Z</time>
      </trkpt>
      <trkpt lat="43.86979" lon="6.92145">
        <ele>1061.72</ele>
        <time>2022-06-26T12:25:34.999Z</time>
      </trkpt>
      <trkpt lat="43.86979" lon="6.92172">
        <ele>1059.65</ele>
        <time>2022-06-26T12:25:38.999Z</time>
      </trkpt>
      <trkpt lat="43.86988" lon="6.92198">
        <ele>1055.36</ele>
        <time>2022-06-26T12:25:42.999Z</time>
      </trkpt>
      <trkpt lat="43.86998" lon="6.9222">
        <ele>1051.22</ele>
        <time>2022-06-26T12:25:46.999Z</time>
      </trkpt>
      <trkpt lat="43.87012" lon="6.92242">
        <ele>1048.6</ele>
        <time>2022-06-26T12:25:50.999Z</time>
      </trkpt>
      <trkpt lat="43.87027" lon="6.92262">
        <ele>1048.19</ele>
        <time>2022-06-26T12:25:54.999Z</time>
      </trkpt>
      <trkpt lat="43.87039" lon="6.92284">
        <ele>1047.41</ele>
        <time>2022-06-26T12:25:58.999Z</time>
      </trkpt>
      <trkpt lat="43.87052" lon="6.92307">
        <ele>1046.09</ele>
        <time>2022-06-26T12:26:02.999Z</time>
      </trkpt>
      <trkpt lat="43.87066" lon="6.92329">
        <ele>1046.52</ele>
        <time>2022-06-26T12:26:10.999Z</time>
      </trkpt>
      <trkpt lat="43.87076" lon="6.92357">
        <ele>1045.76</ele>
        <time>2022-06-26T12:26:14.999Z</time>
      </trkpt>
      <trkpt lat="43.87084" lon="6.92381">
        <ele>1045.12</ele>
        <time>2022-06-26T12:26:17.999Z</time>
      </trkpt>
      <trkpt lat="43.8709" lon="6.92407">
        <ele>1041.12</ele>
        <time>2022-06-26T12:26:23.999Z</time>
      </trkpt>
      <trkpt lat="43.87102" lon="6.92427">
        <ele>1032.32</ele>
        <time>2022-06-26T12:26:36.999Z</time>
      </trkpt>
      <trkpt lat="43.87121" lon="6.92434">
        <ele>1029.52</ele>
        <time>2022-06-26T12:26:45.999Z</time>
      </trkpt>
      <trkpt lat="43.87135" lon="6.92452">
        <ele>1027.83</ele>
        <time>2022-06-26T12:26:51.999Z</time>
      </trkpt>
      <trkpt lat="43.87135" lon="6.92477">
        <ele>1027.9</ele>
        <time>2022-06-26T12:27:01.999Z</time>
      </trkpt>
      <trkpt lat="43.87131" lon="6.92504">
        <ele>1027.27</ele>
        <time>2022-06-26T12:27:09.999Z</time>
      </trkpt>
      <trkpt lat="43.87128" lon="6.9253">
        <ele>1027.68</ele>
        <time>2022-06-26T12:27:17.999Z</time>
      </trkpt>
      <trkpt lat="43.87125" lon="6.92558">
        <ele>1027.66</ele>
        <time>2022-06-26T12:27:26.999Z</time>
      </trkpt>
      <trkpt lat="43.8713" lon="6.92584">
        <ele>1025.77</ele>
        <time>2022-06-26T12:27:34.999Z</time>
      </trkpt>
      <trkpt lat="43.87138" lon="6.92609">
        <ele>1024.1</ele>
        <time>2022-06-26T12:27:39.999Z</time>
      </trkpt>
      <trkpt lat="43.87148" lon="6.92631">
        <ele>1025.25</ele>
        <time>2022-06-26T12:27:55.999Z</time>
      </trkpt>
      <trkpt lat="43.87161" lon="6.92653">
        <ele>1023.68</ele>
        <time>2022-06-26T12:28:03.999Z</time>
      </trkpt>
      <trkpt lat="43.87176" lon="6.9267">
        <ele>1024.74</ele>
        <time>2022-06-26T12:28:10.999Z</time>
      </trkpt>
      <trkpt lat="43.8719" lon="6.92695">
        <ele>1022.14</ele>
        <time>2022-06-26T12:28:15.999Z</time>
      </trkpt>
      <trkpt lat="43.872" lon="6.92723">
        <ele>1018.62</ele>
        <time>2022-06-26T12:28:20.999Z</time>
      </trkpt>
      <trkpt lat="43.87218" lon="6.92727">
        <ele>1015.73</ele>
        <time>2022-06-26T12:28:28.999Z</time>
      </trkpt>
      <trkpt lat="43.87237" lon="6.92721">
        <ele>1016.16</ele>
        <time>2022-06-26T12:28:36.999Z</time>
      </trkpt>
      <trkpt lat="43.87251" lon="6.92737">
        <ele>1015.84</ele>
        <time>2022-06-26T12:28:51.999Z</time>
      </trkpt>
      <trkpt lat="43.87253" lon="6.92764">
        <ele>1016.26</ele>
        <time>2022-06-26T12:28:57.999Z</time>
      </trkpt>
      <trkpt lat="43.87263" lon="6.92786">
        <ele>1014.34</ele>
        <time>2022-06-26T12:29:05.999Z</time>
      </trkpt>
      <trkpt lat="43.87277" lon="6.92802">
        <ele>1011.47</ele>
        <time>2022-06-26T12:29:20.999Z</time>
      </trkpt>
      <trkpt lat="43.87285" lon="6.92829">
        <ele>1009.26</ele>
        <time>2022-06-26T12:29:33.999Z</time>
      </trkpt>
      <trkpt lat="43.87289" lon="6.92856">
        <ele>1002.89</ele>
        <time>2022-06-26T12:29:40.999Z</time>
      </trkpt>
      <trkpt lat="43.87289" lon="6.92886">
        <ele>999.82</ele>
        <time>2022-06-26T12:29:48.999Z</time>
      </trkpt>
      <trkpt lat="43.8729" lon="6.92912">
        <ele>995.43</ele>
        <time>2022-06-26T12:29:54.999Z</time>
      </trkpt>
      <trkpt lat="43.87288" lon="6.9294">
        <ele>991.05</ele>
        <time>2022-06-26T12:30:00.999Z</time>
      </trkpt>
      <trkpt lat="43.87285" lon="6.9297">
        <ele>986.47</ele>
        <time>2022-06-26T12:30:05.999Z</time>
      </trkpt>
      <trkpt lat="43.87285" lon="6.93001">
        <ele>983.52</ele>
        <time>2022-06-26T12:30:09.999Z</time>
      </trkpt>
      <trkpt lat="43.87281" lon="6.9303">
        <ele>979.82</ele>
        <time>2022-06-26T12:30:13.999Z</time>
      </trkpt>
      <trkpt lat="43.8728" lon="6.93061">
        <ele>976.4</ele>
        <time>2022-06-26T12:30:17.999Z</time>
      </trkpt>
      <trkpt lat="43.8728" lon="6.93087">
        <ele>974.58</ele>
        <time>2022-06-26T12:30:20.999Z</time>
      </trkpt>
      <trkpt lat="43.87277" lon="6.93117">
        <ele>972.57</ele>
        <time>2022-06-26T12:30:24.999Z</time>
      </trkpt>
      <trkpt lat="43.87274" lon="6.93145">
        <ele>971</ele>
        <time>2022-06-26T12:30:28.999Z</time>
      </trkpt>
      <trkpt lat="43.87274" lon="6.93173">
        <ele>968.09</ele>
        <time>2022-06-26T12:30:32.999Z</time>
      </trkpt>
      <trkpt lat="43.87277" lon="6.93202">
        <ele>964.64</ele>
        <time>2022-06-26T12:30:36.999Z</time>
      </trkpt>
      <trkpt lat="43.87283" lon="6.93231">
        <ele>961.74</ele>
        <time>2022-06-26T12:30:40.999Z</time>
      </trkpt>
      <trkpt lat="43.87285" lon="6.93259">
        <ele>958.86</ele>
        <time>2022-06-26T12:30:45.999Z</time>
      </trkpt>
      <trkpt lat="43.87289" lon="6.93284">
        <ele>955.38</ele>
        <time>2022-06-26T12:30:50.999Z</time>
      </trkpt>
      <trkpt lat="43.87289" lon="6.93311">
        <ele>950.69</ele>
        <time>2022-06-26T12:30:56.999Z</time>
      </trkpt>
      <trkpt lat="43.87298" lon="6.93336">
        <ele>945.42</ele>
        <time>2022-06-26T12:31:01.999Z</time>
      </trkpt>
      <trkpt lat="43.87304" lon="6.93363">
        <ele>942.31</ele>
        <time>2022-06-26T12:31:05.999Z</time>
      </trkpt>
      <trkpt lat="43.8731" lon="6.93391">
        <ele>938.91</ele>
        <time>2022-06-26T12:31:09.999Z</time>
      </trkpt>
      <trkpt lat="43.87315" lon="6.93418">
        <ele>935.33</ele>
        <time>2022-06-26T12:31:13.999Z</time>
      </trkpt>
      <trkpt lat="43.87319" lon="6.93448">
        <ele>930.44</ele>
        <time>2022-06-26T12:31:18.999Z</time>
      </trkpt>
      <trkpt lat="43.8733" lon="6.93476">
        <ele>927.34</ele>
        <time>2022-06-26T12:31:22.999Z</time>
      </trkpt>
      <trkpt lat="43.87343" lon="6.935">
        <ele>925.86</ele>
        <time>2022-06-26T12:31:27.999Z</time>
      </trkpt>
      <trkpt lat="43.87347" lon="6.9353">
        <ele>923.36</ele>
        <time>2022-06-26T12:31:32.999Z</time>
      </trkpt>
      <trkpt lat="43.87349" lon="6.93561">
        <ele>920.68</ele>
        <time>2022-06-26T12:31:36.999Z</time>
      </trkpt>
      <trkpt lat="43.8735" lon="6.93588">
        <ele>918.13</ele>
        <time>2022-06-26T12:31:41.999Z</time>
      </trkpt>
      <trkpt lat="43.87346" lon="6.93619">
        <ele>910.96</ele>
        <time>2022-06-26T12:31:47.999Z</time>
      </trkpt>
      <trkpt lat="43.87349" lon="6.93647">
        <ele>906.82</ele>
        <time>2022-06-26T12:31:51.999Z</time>
      </trkpt>
      <trkpt lat="43.87352" lon="6.93675">
        <ele>903.74</ele>
        <time>2022-06-26T12:31:57.999Z</time>
      </trkpt>
      <trkpt lat="43.87359" lon="6.93699">
        <ele>901.36</ele>
        <time>2022-06-26T12:32:02.999Z</time>
      </trkpt>
      <trkpt lat="43.87376" lon="6.93718">
        <ele>897.36</ele>
        <time>2022-06-26T12:32:07.999Z</time>
      </trkpt>
      <trkpt lat="43.87384" lon="6.93742">
        <ele>895.33</ele>
        <time>2022-06-26T12:32:11.999Z</time>
      </trkpt>
      <trkpt lat="43.87387" lon="6.93773">
        <ele>892.15</ele>
        <time>2022-06-26T12:32:16.999Z</time>
      </trkpt>
      <trkpt lat="43.87406" lon="6.9377">
        <ele>888.66</ele>
        <time>2022-06-26T12:32:27.999Z</time>
      </trkpt>
      <trkpt lat="43.87412" lon="6.93744">
        <ele>886.38</ele>
        <time>2022-06-26T12:32:32.999Z</time>
      </trkpt>
      <trkpt lat="43.87412" lon="6.93715">
        <ele>883.37</ele>
        <time>2022-06-26T12:32:37.999Z</time>
      </trkpt>
      <trkpt lat="43.87417" lon="6.9369">
        <ele>881.47</ele>
        <time>2022-06-26T12:32:44.999Z</time>
      </trkpt>
      <trkpt lat="43.87423" lon="6.93666">
        <ele>877.17</ele>
        <time>2022-06-26T12:33:05.999Z</time>
      </trkpt>
      <trkpt lat="43.87433" lon="6.93642">
        <ele>874.19</ele>
        <time>2022-06-26T12:33:15.999Z</time>
      </trkpt>
      <trkpt lat="43.87449" lon="6.93626">
        <ele>874.62</ele>
        <time>2022-06-26T12:33:25.999Z</time>
      </trkpt>
      <trkpt lat="43.87467" lon="6.93631">
        <ele>875.41</ele>
        <time>2022-06-26T12:33:38.999Z</time>
      </trkpt>
      <trkpt lat="43.87486" lon="6.93634">
        <ele>873.58</ele>
        <time>2022-06-26T12:34:00.999Z</time>
      </trkpt>
      <trkpt lat="43.87503" lon="6.93642">
        <ele>862.05</ele>
        <time>2022-06-26T12:34:19.999Z</time>
      </trkpt>
      <trkpt lat="43.87519" lon="6.93658">
        <ele>852.11</ele>
        <time>2022-06-26T12:34:48.999Z</time>
      </trkpt>
      <trkpt lat="43.87531" lon="6.93677">
        <ele>840.75</ele>
        <time>2022-06-26T12:36:27.999Z</time>
      </trkpt>
      <trkpt lat="43.87518" lon="6.93659">
        <ele>850.14</ele>
        <time>2022-06-26T12:40:21.999Z</time>
      </trkpt>
      <trkpt lat="43.87503" lon="6.93645">
        <ele>863.97</ele>
        <time>2022-06-26T12:41:26.999Z</time>
      </trkpt>
      <trkpt lat="43.87489" lon="6.93629">
        <ele>871.29</ele>
        <time>2022-06-26T12:42:09.999Z</time>
      </trkpt>
      <trkpt lat="43.87471" lon="6.93629">
        <ele>878</ele>
        <time>2022-06-26T12:42:47.999Z</time>
      </trkpt>
      <trkpt lat="43.87453" lon="6.93627">
        <ele>879.14</ele>
        <time>2022-06-26T12:43:21.999Z</time>
      </trkpt>
      <trkpt lat="43.87437" lon="6.93639">
        <ele>876.15</ele>
        <time>2022-06-26T12:43:33.999Z</time>
      </trkpt>
      <trkpt lat="43.87453" lon="6.93626">
        <ele>877.34</ele>
        <time>2022-06-26T12:45:57.999Z</time>
      </trkpt>
      <trkpt lat="43.87444" lon="6.93602">
        <ele>883.3</ele>
        <time>2022-06-26T12:48:03.999Z</time>
      </trkpt>
      <trkpt lat="43.87448" lon="6.93627">
        <ele>877.3</ele>
        <time>2022-06-26T12:52:59.999Z</time>
      </trkpt>
      <trkpt lat="43.87466" lon="6.93628">
        <ele>878.4</ele>
        <time>2022-06-26T12:53:15.999Z</time>
      </trkpt>
      <trkpt lat="43.87484" lon="6.93632">
        <ele>874.78</ele>
        <time>2022-06-26T12:53:44.999Z</time>
      </trkpt>
      <trkpt lat="43.87499" lon="6.93647">
        <ele>865.6</ele>
        <time>2022-06-26T12:54:01.999Z</time>
      </trkpt>
      <trkpt lat="43.87517" lon="6.93651">
        <ele>854.21</ele>
        <time>2022-06-26T12:54:45.999Z</time>
      </trkpt>
      <trkpt lat="43.87523" lon="6.93676">
        <ele>849.89</ele>
        <time>2022-06-26T12:54:55.999Z</time>
      </trkpt>
      <trkpt lat="43.87541" lon="6.93677">
        <ele>832.92</ele>
        <time>2022-06-26T12:55:46.999Z</time>
      </trkpt>
      <trkpt lat="43.87552" lon="6.93654">
        <ele>826.47</ele>
        <time>2022-06-26T12:55:54.999Z</time>
      </trkpt>
      <trkpt lat="43.87564" lon="6.93634">
        <ele>823.74</ele>
        <time>2022-06-26T12:57:14.999Z</time>
      </trkpt>
      <trkpt lat="43.87569" lon="6.93607">
        <ele>818.83</ele>
        <time>2022-06-26T12:57:21.999Z</time>
      </trkpt>
      <trkpt lat="43.87568" lon="6.93582">
        <ele>814</ele>
        <time>2022-06-26T12:57:28.999Z</time>
      </trkpt>
      <trkpt lat="43.87568" lon="6.93556">
        <ele>808.95</ele>
        <time>2022-06-26T12:57:35.999Z</time>
      </trkpt>
      <trkpt lat="43.87582" lon="6.93574">
        <ele>797.67</ele>
        <time>2022-06-26T12:57:59.999Z</time>
      </trkpt>
      <trkpt lat="43.87595" lon="6.93593">
        <ele>793.5</ele>
        <time>2022-06-26T12:58:06.999Z</time>
      </trkpt>
      <trkpt lat="43.87613" lon="6.93603">
        <ele>786.85</ele>
        <time>2022-06-26T12:58:17.999Z</time>
      </trkpt>
      <trkpt lat="43.87632" lon="6.93604">
        <ele>775.08</ele>
        <time>2022-06-26T12:58:32.999Z</time>
      </trkpt>
      <trkpt lat="43.87637" lon="6.9358">
        <ele>766.64</ele>
        <time>2022-06-26T12:59:12.999Z</time>
      </trkpt>
      <trkpt lat="43.8765" lon="6.93562">
        <ele>758.74</ele>
        <time>2022-06-26T12:59:49.999Z</time>
      </trkpt>
      <trkpt lat="43.87669" lon="6.9356">
        <ele>750.12</ele>
        <time>2022-06-26T13:00:21.999Z</time>
      </trkpt>
      <trkpt lat="43.87677" lon="6.93537">
        <ele>743.78</ele>
        <time>2022-06-26T13:00:38.999Z</time>
      </trkpt>
      <trkpt lat="43.87693" lon="6.93522">
        <ele>736.66</ele>
        <time>2022-06-26T13:00:48.999Z</time>
      </trkpt>
      <trkpt lat="43.87708" lon="6.9354">
        <ele>722.38</ele>
        <time>2022-06-26T13:01:27.999Z</time>
      </trkpt>
      <trkpt lat="43.87727" lon="6.93541">
        <ele>711.13</ele>
        <time>2022-06-26T13:02:00.999Z</time>
      </trkpt>
      <trkpt lat="43.87736" lon="6.93566">
        <ele>706.77</ele>
        <time>2022-06-26T13:02:07.999Z</time>
      </trkpt>
      <trkpt lat="43.87743" lon="6.93591">
        <ele>699.02</ele>
        <time>2022-06-26T13:02:14.999Z</time>
      </trkpt>
      <trkpt lat="43.87759" lon="6.93575">
        <ele>685.9</ele>
        <time>2022-06-26T13:02:28.999Z</time>
      </trkpt>
      <trkpt lat="43.87766" lon="6.93548">
        <ele>679.54</ele>
        <time>2022-06-26T13:02:36.999Z</time>
      </trkpt>
      <trkpt lat="43.87777" lon="6.93528">
        <ele>675.04</ele>
        <time>2022-06-26T13:02:44.999Z</time>
      </trkpt>
      <trkpt lat="43.87791" lon="6.93511">
        <ele>671.37</ele>
        <time>2022-06-26T13:03:26.999Z</time>
      </trkpt>
      <trkpt lat="43.87798" lon="6.93537">
        <ele>661.58</ele>
        <time>2022-06-26T13:03:41.999Z</time>
      </trkpt>
      <trkpt lat="43.87814" lon="6.93553">
        <ele>651.19</ele>
        <time>2022-06-26T13:04:13.999Z</time>
      </trkpt>
      <trkpt lat="43.87832" lon="6.93549">
        <ele>637.91</ele>
        <time>2022-06-26T13:04:53.999Z</time>
      </trkpt>
      <trkpt lat="43.87846" lon="6.93531">
        <ele>630.56</ele>
        <time>2022-06-26T13:05:15.999Z</time>
      </trkpt>
      <trkpt lat="43.87855" lon="6.93509">
        <ele>625.18</ele>
        <time>2022-06-26T13:05:24.999Z</time>
      </trkpt>
      <trkpt lat="43.87874" lon="6.93504">
        <ele>617.56</ele>
        <time>2022-06-26T13:05:44.999Z</time>
      </trkpt>
      <trkpt lat="43.87892" lon="6.93507">
        <ele>604.66</ele>
        <time>2022-06-26T13:06:47.999Z</time>
      </trkpt>
      <trkpt lat="43.87902" lon="6.93528">
        <ele>602.02</ele>
        <time>2022-06-26T13:06:58.999Z</time>
      </trkpt>
      <trkpt lat="43.87921" lon="6.93526">
        <ele>594.13</ele>
        <time>2022-06-26T13:07:19.999Z</time>
      </trkpt>
      <trkpt lat="43.87939" lon="6.93533">
        <ele>583.81</ele>
        <time>2022-06-26T13:07:48.999Z</time>
      </trkpt>
      <trkpt lat="43.87945" lon="6.93558">
        <ele>578.2</ele>
        <time>2022-06-26T13:07:59.999Z</time>
      </trkpt>
      <trkpt lat="43.87962" lon="6.93564">
        <ele>569.94</ele>
        <time>2022-06-26T13:08:24.999Z</time>
      </trkpt>
      <trkpt lat="43.87963" lon="6.9359">
        <ele>562.34</ele>
        <time>2022-06-26T13:08:40.999Z</time>
      </trkpt>
      <trkpt lat="43.87981" lon="6.93603">
        <ele>557.85</ele>
        <time>2022-06-26T13:08:48.999Z</time>
      </trkpt>
      <trkpt lat="43.87992" lon="6.93624">
        <ele>552.69</ele>
        <time>2022-06-26T13:09:26.999Z</time>
      </trkpt>
      <trkpt lat="43.87992" lon="6.9365">
        <ele>551.41</ele>
        <time>2022-06-26T13:15:17.999Z</time>
      </trkpt>
      <trkpt lat="43.87998" lon="6.93673">
        <ele>555.14</ele>
        <time>2022-06-26T13:15:56.999Z</time>
      </trkpt>
      <trkpt lat="43.88016" lon="6.9368">
        <ele>564.02</ele>
        <time>2022-06-26T13:16:50.999Z</time>
      </trkpt>
      <trkpt lat="43.88033" lon="6.93687">
        <ele>567.02</ele>
        <time>2022-06-26T13:17:02.999Z</time>
      </trkpt>
      <trkpt lat="43.88043" lon="6.93708">
        <ele>574.92</ele>
        <time>2022-06-26T13:17:34.999Z</time>
      </trkpt>
      <trkpt lat="43.88048" lon="6.93732">
        <ele>584.61</ele>
        <time>2022-06-26T13:18:29.999Z</time>
      </trkpt>
      <trkpt lat="43.88062" lon="6.93749">
        <ele>588.66</ele>
        <time>2022-06-26T13:19:06.999Z</time>
      </trkpt>
      <trkpt lat="43.88081" lon="6.93753">
        <ele>590.49</ele>
        <time>2022-06-26T13:19:17.999Z</time>
      </trkpt>
      <trkpt lat="43.88068" lon="6.9377">
        <ele>592.95</ele>
        <time>2022-06-26T13:20:06.999Z</time>
      </trkpt>
      <trkpt lat="43.8805" lon="6.93782">
        <ele>594.21</ele>
        <time>2022-06-26T13:20:19.999Z</time>
      </trkpt>
      <trkpt lat="43.88033" lon="6.93788">
        <ele>595.37</ele>
        <time>2022-06-26T13:20:30.999Z</time>
      </trkpt>
      <trkpt lat="43.88016" lon="6.93802">
        <ele>592.24</ele>
        <time>2022-06-26T13:20:39.999Z</time>
      </trkpt>
      <trkpt lat="43.88005" lon="6.93825">
        <ele>598.21</ele>
        <time>2022-06-26T13:20:50.999Z</time>
      </trkpt>
      <trkpt lat="43.87995" lon="6.93847">
        <ele>602.91</ele>
        <time>2022-06-26T13:21:02.999Z</time>
      </trkpt>
      <trkpt lat="43.87984" lon="6.93868">
        <ele>601.37</ele>
        <time>2022-06-26T13:21:28.999Z</time>
      </trkpt>
      <trkpt lat="43.8798" lon="6.93895">
        <ele>604.25</ele>
        <time>2022-06-26T13:21:40.999Z</time>
      </trkpt>
      <trkpt lat="43.87972" lon="6.9392">
        <ele>605.72</ele>
        <time>2022-06-26T13:21:51.999Z</time>
      </trkpt>
      <trkpt lat="43.87959" lon="6.93938">
        <ele>607.46</ele>
        <time>2022-06-26T13:22:02.999Z</time>
      </trkpt>
      <trkpt lat="43.87949" lon="6.93961">
        <ele>609.02</ele>
        <time>2022-06-26T13:22:12.999Z</time>
      </trkpt>
      <trkpt lat="43.87939" lon="6.93984">
        <ele>610.52</ele>
        <time>2022-06-26T13:22:22.999Z</time>
      </trkpt>
      <trkpt lat="43.87931" lon="6.94008">
        <ele>611.02</ele>
        <time>2022-06-26T13:22:35.999Z</time>
      </trkpt>
      <trkpt lat="43.87929" lon="6.94036">
        <ele>610.7</ele>
        <time>2022-06-26T13:22:44.999Z</time>
      </trkpt>
      <trkpt lat="43.87926" lon="6.9406">
        <ele>613.37</ele>
        <time>2022-06-26T13:22:55.999Z</time>
      </trkpt>
      <trkpt lat="43.87917" lon="6.94083">
        <ele>615.41</ele>
        <time>2022-06-26T13:23:14.999Z</time>
      </trkpt>
      <trkpt lat="43.87912" lon="6.94107">
        <ele>617.68</ele>
        <time>2022-06-26T13:23:37.999Z</time>
      </trkpt>
      <trkpt lat="43.87911" lon="6.94134">
        <ele>625.59</ele>
        <time>2022-06-26T13:24:30.999Z</time>
      </trkpt>
      <trkpt lat="43.87911" lon="6.94159">
        <ele>625.37</ele>
        <time>2022-06-26T13:24:40.999Z</time>
      </trkpt>
      <trkpt lat="43.87904" lon="6.94183">
        <ele>625.57</ele>
        <time>2022-06-26T13:24:50.999Z</time>
      </trkpt>
      <trkpt lat="43.87901" lon="6.9421">
        <ele>624.09</ele>
        <time>2022-06-26T13:25:01.999Z</time>
      </trkpt>
      <trkpt lat="43.87896" lon="6.94235">
        <ele>624.5</ele>
        <time>2022-06-26T13:25:12.999Z</time>
      </trkpt>
      <trkpt lat="43.87892" lon="6.9426">
        <ele>625.2</ele>
        <time>2022-06-26T13:25:23.999Z</time>
      </trkpt>
      <trkpt lat="43.87891" lon="6.94286">
        <ele>626.48</ele>
        <time>2022-06-26T13:25:35.999Z</time>
      </trkpt>
      <trkpt lat="43.87886" lon="6.94312">
        <ele>627.22</ele>
        <time>2022-06-26T13:25:47.999Z</time>
      </trkpt>
      <trkpt lat="43.8788" lon="6.94336">
        <ele>627.96</ele>
        <time>2022-06-26T13:25:59.999Z</time>
      </trkpt>
      <trkpt lat="43.87876" lon="6.94361">
        <ele>632.53</ele>
        <time>2022-06-26T13:26:24.999Z</time>
      </trkpt>
      <trkpt lat="43.87868" lon="6.94385">
        <ele>636.66</ele>
        <time>2022-06-26T13:26:49.999Z</time>
      </trkpt>
      <trkpt lat="43.8786" lon="6.94409">
        <ele>638.46</ele>
        <time>2022-06-26T13:27:00.999Z</time>
      </trkpt>
      <trkpt lat="43.8785" lon="6.94432">
        <ele>639.83</ele>
        <time>2022-06-26T13:27:12.999Z</time>
      </trkpt>
      <trkpt lat="43.87838" lon="6.94454">
        <ele>639.53</ele>
        <time>2022-06-26T13:27:24.999Z</time>
      </trkpt>
      <trkpt lat="43.87823" lon="6.94473">
        <ele>640.35</ele>
        <time>2022-06-26T13:27:33.999Z</time>
      </trkpt>
      <trkpt lat="43.87815" lon="6.94499">
        <ele>641.62</ele>
        <time>2022-06-26T13:27:41.999Z</time>
      </trkpt>
      <trkpt lat="43.87812" lon="6.94524">
        <ele>646.96</ele>
        <time>2022-06-26T13:28:09.999Z</time>
      </trkpt>
      <trkpt lat="43.87817" lon="6.94548">
        <ele>648.39</ele>
        <time>2022-06-26T13:28:24.999Z</time>
      </trkpt>
      <trkpt lat="43.87813" lon="6.94574">
        <ele>650.97</ele>
        <time>2022-06-26T13:28:36.999Z</time>
      </trkpt>
      <trkpt lat="43.87803" lon="6.94596">
        <ele>651.08</ele>
        <time>2022-06-26T13:28:47.999Z</time>
      </trkpt>
      <trkpt lat="43.87796" lon="6.9462">
        <ele>653.42</ele>
        <time>2022-06-26T13:29:00.999Z</time>
      </trkpt>
      <trkpt lat="43.87793" lon="6.94645">
        <ele>654.58</ele>
        <time>2022-06-26T13:29:09.999Z</time>
      </trkpt>
      <trkpt lat="43.8779" lon="6.9467">
        <ele>655.88</ele>
        <time>2022-06-26T13:29:17.999Z</time>
      </trkpt>
      <trkpt lat="43.87784" lon="6.94695">
        <ele>655.32</ele>
        <time>2022-06-26T13:29:25.999Z</time>
      </trkpt>
      <trkpt lat="43.87771" lon="6.94716">
        <ele>655.48</ele>
        <time>2022-06-26T13:29:34.999Z</time>
      </trkpt>
      <trkpt lat="43.87763" lon="6.94741">
        <ele>655.37</ele>
        <time>2022-06-26T13:29:41.999Z</time>
      </trkpt>
      <trkpt lat="43.8776" lon="6.94766">
        <ele>659.96</ele>
        <time>2022-06-26T13:30:07.999Z</time>
      </trkpt>
      <trkpt lat="43.87757" lon="6.94792">
        <ele>660.19</ele>
        <time>2022-06-26T13:30:18.999Z</time>
      </trkpt>
      <trkpt lat="43.87747" lon="6.94813">
        <ele>661.02</ele>
        <time>2022-06-26T13:30:30.999Z</time>
      </trkpt>
      <trkpt lat="43.87739" lon="6.94838">
        <ele>664.06</ele>
        <time>2022-06-26T13:30:43.999Z</time>
      </trkpt>
      <trkpt lat="43.87737" lon="6.94863">
        <ele>668.64</ele>
        <time>2022-06-26T13:31:35.999Z</time>
      </trkpt>
      <trkpt lat="43.87731" lon="6.94887">
        <ele>673.32</ele>
        <time>2022-06-26T13:32:26.999Z</time>
      </trkpt>
      <trkpt lat="43.87724" lon="6.9491">
        <ele>670.23</ele>
        <time>2022-06-26T13:32:39.999Z</time>
      </trkpt>
      <trkpt lat="43.87715" lon="6.94935">
        <ele>670.05</ele>
        <time>2022-06-26T13:32:51.999Z</time>
      </trkpt>
      <trkpt lat="43.87706" lon="6.94957">
        <ele>669.53</ele>
        <time>2022-06-26T13:33:02.999Z</time>
      </trkpt>
      <trkpt lat="43.87698" lon="6.94981">
        <ele>672.27</ele>
        <time>2022-06-26T13:33:15.999Z</time>
      </trkpt>
      <trkpt lat="43.8769" lon="6.95004">
        <ele>672.59</ele>
        <time>2022-06-26T13:33:32.999Z</time>
      </trkpt>
      <trkpt lat="43.87674" lon="6.95018">
        <ele>675.2</ele>
        <time>2022-06-26T13:33:46.999Z</time>
      </trkpt>
      <trkpt lat="43.87655" lon="6.95018">
        <ele>676.63</ele>
        <time>2022-06-26T13:34:29.999Z</time>
      </trkpt>
      <trkpt lat="43.8764" lon="6.95003">
        <ele>676.87</ele>
        <time>2022-06-26T13:34:38.999Z</time>
      </trkpt>
      <trkpt lat="43.87624" lon="6.94989">
        <ele>678.3</ele>
        <time>2022-06-26T13:34:47.999Z</time>
      </trkpt>
      <trkpt lat="43.87606" lon="6.94987">
        <ele>677.46</ele>
        <time>2022-06-26T13:34:55.999Z</time>
      </trkpt>
      <trkpt lat="43.8759" lon="6.95005">
        <ele>677.69</ele>
        <time>2022-06-26T13:35:03.999Z</time>
      </trkpt>
      <trkpt lat="43.87574" lon="6.95025">
        <ele>676.61</ele>
        <time>2022-06-26T13:35:09.999Z</time>
      </trkpt>
      <trkpt lat="43.87561" lon="6.95051">
        <ele>674.98</ele>
        <time>2022-06-26T13:35:14.999Z</time>
      </trkpt>
      <trkpt lat="43.87551" lon="6.95074">
        <ele>673.89</ele>
        <time>2022-06-26T13:35:18.999Z</time>
      </trkpt>
      <trkpt lat="43.8754" lon="6.95098">
        <ele>672.97</ele>
        <time>2022-06-26T13:35:22.999Z</time>
      </trkpt>
      <trkpt lat="43.87531" lon="6.95121">
        <ele>671.83</ele>
        <time>2022-06-26T13:35:26.999Z</time>
      </trkpt>
      <trkpt lat="43.8752" lon="6.95146">
        <ele>671.14</ele>
        <time>2022-06-26T13:35:32.999Z</time>
      </trkpt>
      <trkpt lat="43.87511" lon="6.95168">
        <ele>671.52</ele>
        <time>2022-06-26T13:35:37.999Z</time>
      </trkpt>
      <trkpt lat="43.875" lon="6.95191">
        <ele>671.9</ele>
        <time>2022-06-26T13:35:42.999Z</time>
      </trkpt>
      <trkpt lat="43.87488" lon="6.95211">
        <ele>670.6</ele>
        <time>2022-06-26T13:35:46.999Z</time>
      </trkpt>
      <trkpt lat="43.87469" lon="6.95228">
        <ele>669.46</ele>
        <time>2022-06-26T13:35:50.999Z</time>
      </trkpt>
      <trkpt lat="43.87451" lon="6.95212">
        <ele>666.57</ele>
        <time>2022-06-26T13:35:53.999Z</time>
      </trkpt>
      <trkpt lat="43.87445" lon="6.95185">
        <ele>665.77</ele>
        <time>2022-06-26T13:35:56.999Z</time>
      </trkpt>
      <trkpt lat="43.8743" lon="6.95166">
        <ele>664.28</ele>
        <time>2022-06-26T13:36:00.999Z</time>
      </trkpt>
      <trkpt lat="43.87408" lon="6.95172">
        <ele>662.96</ele>
        <time>2022-06-26T13:36:04.999Z</time>
      </trkpt>
      <trkpt lat="43.87387" lon="6.95164">
        <ele>661.98</ele>
        <time>2022-06-26T13:36:08.999Z</time>
      </trkpt>
      <trkpt lat="43.8737" lon="6.95147">
        <ele>660.78</ele>
        <time>2022-06-26T13:36:12.999Z</time>
      </trkpt>
      <trkpt lat="43.87349" lon="6.95133">
        <ele>659.71</ele>
        <time>2022-06-26T13:36:16.999Z</time>
      </trkpt>
      <trkpt lat="43.87334" lon="6.9515">
        <ele>659.79</ele>
        <time>2022-06-26T13:36:19.999Z</time>
      </trkpt>
      <trkpt lat="43.87328" lon="6.95175">
        <ele>659.81</ele>
        <time>2022-06-26T13:36:22.999Z</time>
      </trkpt>
      <trkpt lat="43.87321" lon="6.95207">
        <ele>659.41</ele>
        <time>2022-06-26T13:36:26.999Z</time>
      </trkpt>
      <trkpt lat="43.87313" lon="6.95238">
        <ele>659.52</ele>
        <time>2022-06-26T13:36:30.999Z</time>
      </trkpt>
      <trkpt lat="43.87304" lon="6.95262">
        <ele>659.36</ele>
        <time>2022-06-26T13:36:33.999Z</time>
      </trkpt>
      <trkpt lat="43.87295" lon="6.95283">
        <ele>659.47</ele>
        <time>2022-06-26T13:36:36.999Z</time>
      </trkpt>
      <trkpt lat="43.87285" lon="6.95306">
        <ele>659.34</ele>
        <time>2022-06-26T13:36:39.999Z</time>
      </trkpt>
      <trkpt lat="43.8728" lon="6.95332">
        <ele>658.76</ele>
        <time>2022-06-26T13:36:42.999Z</time>
      </trkpt>
      <trkpt lat="43.87283" lon="6.95359">
        <ele>657.53</ele>
        <time>2022-06-26T13:36:45.999Z</time>
      </trkpt>
      <trkpt lat="43.87293" lon="6.95381">
        <ele>655.9</ele>
        <time>2022-06-26T13:36:48.999Z</time>
      </trkpt>
      <trkpt lat="43.87306" lon="6.95408">
        <ele>654.79</ele>
        <time>2022-06-26T13:36:52.999Z</time>
      </trkpt>
      <trkpt lat="43.87316" lon="6.9543">
        <ele>654.35</ele>
        <time>2022-06-26T13:36:55.999Z</time>
      </trkpt>
      <trkpt lat="43.87321" lon="6.95456">
        <ele>654.39</ele>
        <time>2022-06-26T13:36:58.999Z</time>
      </trkpt>
      <trkpt lat="43.87314" lon="6.95483">
        <ele>654.41</ele>
        <time>2022-06-26T13:37:01.999Z</time>
      </trkpt>
      <trkpt lat="43.87299" lon="6.95504">
        <ele>653.65</ele>
        <time>2022-06-26T13:37:04.999Z</time>
      </trkpt>
      <trkpt lat="43.87297" lon="6.95529">
        <ele>653.04</ele>
        <time>2022-06-26T13:37:07.999Z</time>
      </trkpt>
      <trkpt lat="43.87309" lon="6.95554">
        <ele>652.11</ele>
        <time>2022-06-26T13:37:10.999Z</time>
      </trkpt>
      <trkpt lat="43.87311" lon="6.95579">
        <ele>651.59</ele>
        <time>2022-06-26T13:37:13.999Z</time>
      </trkpt>
      <trkpt lat="43.87305" lon="6.95604">
        <ele>651.23</ele>
        <time>2022-06-26T13:37:16.999Z</time>
      </trkpt>
      <trkpt lat="43.873" lon="6.9563">
        <ele>650.98</ele>
        <time>2022-06-26T13:37:19.999Z</time>
      </trkpt>
      <trkpt lat="43.87299" lon="6.95656">
        <ele>650.39</ele>
        <time>2022-06-26T13:37:22.999Z</time>
      </trkpt>
      <trkpt lat="43.87302" lon="6.95683">
        <ele>649.2</ele>
        <time>2022-06-26T13:37:25.999Z</time>
      </trkpt>
      <trkpt lat="43.87305" lon="6.95711">
        <ele>649.01</ele>
        <time>2022-06-26T13:37:28.999Z</time>
      </trkpt>
      <trkpt lat="43.87303" lon="6.9574">
        <ele>648.68</ele>
        <time>2022-06-26T13:37:31.999Z</time>
      </trkpt>
      <trkpt lat="43.87297" lon="6.95767">
        <ele>648.05</ele>
        <time>2022-06-26T13:37:34.999Z</time>
      </trkpt>
      <trkpt lat="43.87291" lon="6.95794">
        <ele>647.76</ele>
        <time>2022-06-26T13:37:37.999Z</time>
      </trkpt>
      <trkpt lat="43.87287" lon="6.9582">
        <ele>646.86</ele>
        <time>2022-06-26T13:37:40.999Z</time>
      </trkpt>
      <trkpt lat="43.87281" lon="6.95849">
        <ele>646.13</ele>
        <time>2022-06-26T13:37:44.999Z</time>
      </trkpt>
      <trkpt lat="43.87272" lon="6.95871">
        <ele>645.63</ele>
        <time>2022-06-26T13:37:48.999Z</time>
      </trkpt>
      <trkpt lat="43.87263" lon="6.95897">
        <ele>643.65</ele>
        <time>2022-06-26T13:37:53.999Z</time>
      </trkpt>
      <trkpt lat="43.87258" lon="6.95922">
        <ele>642.45</ele>
        <time>2022-06-26T13:37:57.999Z</time>
      </trkpt>
      <trkpt lat="43.87246" lon="6.95949">
        <ele>642.26</ele>
        <time>2022-06-26T13:38:01.999Z</time>
      </trkpt>
      <trkpt lat="43.87231" lon="6.95974">
        <ele>641.62</ele>
        <time>2022-06-26T13:38:05.999Z</time>
      </trkpt>
      <trkpt lat="43.87219" lon="6.96003">
        <ele>638.65</ele>
        <time>2022-06-26T13:38:09.999Z</time>
      </trkpt>
      <trkpt lat="43.8722" lon="6.9603">
        <ele>637.38</ele>
        <time>2022-06-26T13:38:12.999Z</time>
      </trkpt>
      <trkpt lat="43.87225" lon="6.96056">
        <ele>635.8</ele>
        <time>2022-06-26T13:38:15.999Z</time>
      </trkpt>
      <trkpt lat="43.87231" lon="6.9608">
        <ele>633.84</ele>
        <time>2022-06-26T13:38:18.999Z</time>
      </trkpt>
      <trkpt lat="43.87238" lon="6.9611">
        <ele>632.08</ele>
        <time>2022-06-26T13:38:22.999Z</time>
      </trkpt>
      <trkpt lat="43.87245" lon="6.96141">
        <ele>630.87</ele>
        <time>2022-06-26T13:38:26.999Z</time>
      </trkpt>
      <trkpt lat="43.8725" lon="6.96166">
        <ele>630.01</ele>
        <time>2022-06-26T13:38:29.999Z</time>
      </trkpt>
      <trkpt lat="43.87256" lon="6.96191">
        <ele>630.67</ele>
        <time>2022-06-26T13:38:32.999Z</time>
      </trkpt>
      <trkpt lat="43.87256" lon="6.96222">
        <ele>631.98</ele>
        <time>2022-06-26T13:38:36.999Z</time>
      </trkpt>
      <trkpt lat="43.87252" lon="6.96252">
        <ele>633.38</ele>
        <time>2022-06-26T13:38:40.999Z</time>
      </trkpt>
      <trkpt lat="43.8724" lon="6.96278">
        <ele>634.88</ele>
        <time>2022-06-26T13:38:44.999Z</time>
      </trkpt>
      <trkpt lat="43.87218" lon="6.9629">
        <ele>634.73</ele>
        <time>2022-06-26T13:38:48.999Z</time>
      </trkpt>
      <trkpt lat="43.87199" lon="6.96293">
        <ele>630.32</ele>
        <time>2022-06-26T13:38:52.999Z</time>
      </trkpt>
      <trkpt lat="43.87185" lon="6.96311">
        <ele>625.87</ele>
        <time>2022-06-26T13:38:56.999Z</time>
      </trkpt>
      <trkpt lat="43.87186" lon="6.96339">
        <ele>623.52</ele>
        <time>2022-06-26T13:39:01.999Z</time>
      </trkpt>
      <trkpt lat="43.87192" lon="6.96364">
        <ele>623.85</ele>
        <time>2022-06-26T13:39:07.999Z</time>
      </trkpt>
      <trkpt lat="43.87194" lon="6.96392">
        <ele>624.02</ele>
        <time>2022-06-26T13:39:14.999Z</time>
      </trkpt>
      <trkpt lat="43.87188" lon="6.96418">
        <ele>623.7</ele>
        <time>2022-06-26T13:39:23.999Z</time>
      </trkpt>
      <trkpt lat="43.8719" lon="6.96445">
        <ele>632.9</ele>
        <time>2022-06-26T13:40:21.999Z</time>
      </trkpt>
      <trkpt lat="43.87203" lon="6.96463">
        <ele>631.45</ele>
        <time>2022-06-26T13:40:32.999Z</time>
      </trkpt>
      <trkpt lat="43.87216" lon="6.96481">
        <ele>631.65</ele>
        <time>2022-06-26T13:40:43.999Z</time>
      </trkpt>
      <trkpt lat="43.87236" lon="6.96487">
        <ele>631.94</ele>
        <time>2022-06-26T13:40:52.999Z</time>
      </trkpt>
      <trkpt lat="43.87253" lon="6.96472">
        <ele>630.8</ele>
        <time>2022-06-26T13:40:59.999Z</time>
      </trkpt>
      <trkpt lat="43.87267" lon="6.96453">
        <ele>629.94</ele>
        <time>2022-06-26T13:41:06.999Z</time>
      </trkpt>
      <trkpt lat="43.87281" lon="6.96437">
        <ele>630.17</ele>
        <time>2022-06-26T13:41:13.999Z</time>
      </trkpt>
      <trkpt lat="43.87298" lon="6.96425">
        <ele>629.52</ele>
        <time>2022-06-26T13:41:19.999Z</time>
      </trkpt>
      <trkpt lat="43.87314" lon="6.96412">
        <ele>629.11</ele>
        <time>2022-06-26T13:41:27.999Z</time>
      </trkpt>
      <trkpt lat="43.87301" lon="6.96431">
        <ele>624.58</ele>
        <time>2022-06-26T13:46:33.999Z</time>
      </trkpt>
      <trkpt lat="43.87282" lon="6.96438">
        <ele>626.48</ele>
        <time>2022-06-26T13:46:42.999Z</time>
      </trkpt>
      <trkpt lat="43.87267" lon="6.96456">
        <ele>626.19</ele>
        <time>2022-06-26T13:46:49.999Z</time>
      </trkpt>
      <trkpt lat="43.87254" lon="6.96474">
        <ele>625.29</ele>
        <time>2022-06-26T13:46:57.999Z</time>
      </trkpt>
    </trkseg>
  </trk>
</gpx>